<?xml version="1.0" encoding="UTF-8" standalone="no" ?>
<gpx xmlns="http://www.topografix.com/GPX/1/1" xmlns:xsi="http://www.w3.org/2001/XMLSchema-instance" xsi:schemaLocation="http://www.topografix.com/GPX/1/1 http://www.topografix.com/GPX/1/1/gpx.xsd" version="1.1" creator="VisuGPX - https://www.visugpx.com">
  <metadata>
    <name>Rochefort-sur-Brévon, 2018-05-26_16-16-34</name>
    <desc><![CDATA[[url]https://fr.wikipedia.org/wiki/Rochefort-sur-Br%C3%A9von[/url]]]></desc>
  </metadata>
  <wpt lat="47.75101" lon="4.66875">
    <ele>415.81908833469</ele>
    <name><![CDATA[DAE (8.0m)]]></name>
  </wpt>
  <wpt lat="47.74314" lon="4.70329">
    <ele>355.55057960389</ele>
    <name><![CDATA[Photographie (6.0m)]]></name>
    <link href="2018-05-26_17-33-23.jpg"></link>
  </wpt>
  <wpt lat="47.74324" lon="4.7033">
    <ele>357.72933269939</ele>
    <name><![CDATA[Photographie (16.0m)]]></name>
    <link href="2018-05-26_17-34-32.jpg"></link>
  </wpt>
  <wpt lat="47.74701" lon="4.70444">
    <ele>422.56393102658</ele>
    <name><![CDATA[Photographie (6.0m)]]></name>
    <link href="2018-05-26_17-55-08.jpg"></link>
  </wpt>
  <wpt lat="47.75323" lon="4.68135">
    <ele>367.26177261049</ele>
    <name><![CDATA[Photographie (8.0m)]]></name>
    <link href="2018-05-26_18-51-10.jpg"></link>
  </wpt>
  <wpt lat="47.75079" lon="4.66876">
    <ele>417.3809716549</ele>
    <name><![CDATA[Boite à lettre (6.0m)]]></name>
  </wpt>
  <wpt lat="47.75075" lon="4.66865">
    <ele>417.37520488375</ele>
    <name><![CDATA[mairie (8.0m)]]></name>
  </wpt>
  <trk>
    <name><![CDATA[Traces enregistrées avec OSMTracker pour Android™]]></name>
    <trkseg>
      <trkpt lat="47.75065" lon="4.66761">
        <ele>391.55966570551</ele>
        <time>2018-05-26T14:16:40Z</time>
      </trkpt>
      <trkpt lat="47.75064" lon="4.66765">
        <ele>411.55367182583</ele>
        <time>2018-05-26T14:16:47Z</time>
      </trkpt>
      <trkpt lat="47.75069" lon="4.66785">
        <ele>415.75794885532</ele>
        <time>2018-05-26T14:16:54Z</time>
      </trkpt>
      <trkpt lat="47.75071" lon="4.66794">
        <ele>414.61365306949</ele>
        <time>2018-05-26T14:17:00Z</time>
      </trkpt>
      <trkpt lat="47.75074" lon="4.66801">
        <ele>415.56560644808</ele>
        <time>2018-05-26T14:17:06Z</time>
      </trkpt>
      <trkpt lat="47.75076" lon="4.66811">
        <ele>418.38295097408</ele>
        <time>2018-05-26T14:17:13Z</time>
      </trkpt>
      <trkpt lat="47.75079" lon="4.66818">
        <ele>418.34966299398</ele>
        <time>2018-05-26T14:17:19Z</time>
      </trkpt>
      <trkpt lat="47.75081" lon="4.66828">
        <ele>418.54367687544</ele>
        <time>2018-05-26T14:17:26Z</time>
      </trkpt>
      <trkpt lat="47.75081" lon="4.66838">
        <ele>418.51525560019</ele>
        <time>2018-05-26T14:17:33Z</time>
      </trkpt>
      <trkpt lat="47.7508" lon="4.66847">
        <ele>417.83888690808</ele>
        <time>2018-05-26T14:17:40Z</time>
      </trkpt>
      <trkpt lat="47.75079" lon="4.66856">
        <ele>417.62205169828</ele>
        <time>2018-05-26T14:17:47Z</time>
      </trkpt>
      <trkpt lat="47.7508" lon="4.6686">
        <ele>417.47616352914</ele>
        <time>2018-05-26T14:17:54Z</time>
      </trkpt>
      <trkpt lat="47.7508" lon="4.66865">
        <ele>417.35546543845</ele>
        <time>2018-05-26T14:18:00Z</time>
      </trkpt>
      <trkpt lat="47.75087" lon="4.66878">
        <ele>416.82028021112</ele>
        <time>2018-05-26T14:18:07Z</time>
      </trkpt>
      <trkpt lat="47.75091" lon="4.6688">
        <ele>416.576470003</ele>
        <time>2018-05-26T14:18:14Z</time>
      </trkpt>
      <trkpt lat="47.75096" lon="4.66884">
        <ele>416.55113834931</ele>
        <time>2018-05-26T14:18:20Z</time>
      </trkpt>
      <trkpt lat="47.75098" lon="4.66884">
        <ele>416.84119957793</ele>
        <time>2018-05-26T14:18:27Z</time>
      </trkpt>
      <trkpt lat="47.75099" lon="4.66882">
        <ele>416.67679719033</ele>
        <time>2018-05-26T14:18:33Z</time>
      </trkpt>
      <trkpt lat="47.751" lon="4.66881">
        <ele>416.50134107201</ele>
        <time>2018-05-26T14:18:40Z</time>
      </trkpt>
      <trkpt lat="47.751" lon="4.66881">
        <ele>416.52674710035</ele>
        <time>2018-05-26T14:18:46Z</time>
      </trkpt>
      <trkpt lat="47.751" lon="4.6688">
        <ele>416.63276176369</ele>
        <time>2018-05-26T14:18:53Z</time>
      </trkpt>
      <trkpt lat="47.75099" lon="4.66881">
        <ele>417.08291269091</ele>
        <time>2018-05-26T14:18:59Z</time>
      </trkpt>
      <trkpt lat="47.75099" lon="4.66881">
        <ele>416.85252683337</ele>
        <time>2018-05-26T14:19:05Z</time>
      </trkpt>
      <trkpt lat="47.75099" lon="4.66881">
        <ele>416.6232291475</ele>
        <time>2018-05-26T14:19:12Z</time>
      </trkpt>
      <trkpt lat="47.751" lon="4.6688">
        <ele>416.482826928</ele>
        <time>2018-05-26T14:19:18Z</time>
      </trkpt>
      <trkpt lat="47.75099" lon="4.66879">
        <ele>416.06060006894</ele>
        <time>2018-05-26T14:19:25Z</time>
      </trkpt>
      <trkpt lat="47.75099" lon="4.66879">
        <ele>415.8744753586</ele>
        <time>2018-05-26T14:19:32Z</time>
      </trkpt>
      <trkpt lat="47.751" lon="4.66877">
        <ele>415.86368837996</ele>
        <time>2018-05-26T14:19:39Z</time>
      </trkpt>
      <trkpt lat="47.75101" lon="4.66875">
        <ele>415.83637101873</ele>
        <time>2018-05-26T14:19:45Z</time>
      </trkpt>
      <trkpt lat="47.75101" lon="4.66875">
        <ele>415.78115274743</ele>
        <time>2018-05-26T14:19:52Z</time>
      </trkpt>
      <trkpt lat="47.75099" lon="4.66875">
        <ele>415.65228128706</ele>
        <time>2018-05-26T14:19:58Z</time>
      </trkpt>
      <trkpt lat="47.75099" lon="4.66877">
        <ele>416.3138799994</ele>
        <time>2018-05-26T14:20:05Z</time>
      </trkpt>
      <trkpt lat="47.75099" lon="4.66877">
        <ele>416.75067462222</ele>
        <time>2018-05-26T14:20:12Z</time>
      </trkpt>
      <trkpt lat="47.75099" lon="4.66878">
        <ele>416.76111146675</ele>
        <time>2018-05-26T14:20:18Z</time>
      </trkpt>
      <trkpt lat="47.75099" lon="4.66878">
        <ele>416.71558997018</ele>
        <time>2018-05-26T14:20:25Z</time>
      </trkpt>
      <trkpt lat="47.75099" lon="4.66879">
        <ele>416.42701189613</ele>
        <time>2018-05-26T14:20:32Z</time>
      </trkpt>
      <trkpt lat="47.75098" lon="4.6688">
        <ele>415.8760426836</ele>
        <time>2018-05-26T14:20:38Z</time>
      </trkpt>
      <trkpt lat="47.75098" lon="4.6688">
        <ele>415.86833438517</ele>
        <time>2018-05-26T14:20:45Z</time>
      </trkpt>
      <trkpt lat="47.75098" lon="4.6688">
        <ele>415.91920036697</ele>
        <time>2018-05-26T14:20:51Z</time>
      </trkpt>
      <trkpt lat="47.75098" lon="4.66881">
        <ele>416.0204135126</ele>
        <time>2018-05-26T14:20:58Z</time>
      </trkpt>
      <trkpt lat="47.75099" lon="4.6688">
        <ele>416.12689695583</ele>
        <time>2018-05-26T14:21:04Z</time>
      </trkpt>
      <trkpt lat="47.75099" lon="4.6688">
        <ele>416.21492666188</ele>
        <time>2018-05-26T14:21:10Z</time>
      </trkpt>
      <trkpt lat="47.75099" lon="4.66879">
        <ele>416.4383752605</ele>
        <time>2018-05-26T14:21:17Z</time>
      </trkpt>
      <trkpt lat="47.75099" lon="4.66879">
        <ele>416.44385375156</ele>
        <time>2018-05-26T14:21:23Z</time>
      </trkpt>
      <trkpt lat="47.751" lon="4.66876">
        <ele>416.70553540774</ele>
        <time>2018-05-26T14:21:30Z</time>
      </trkpt>
      <trkpt lat="47.751" lon="4.66876">
        <ele>416.77070890396</ele>
        <time>2018-05-26T14:21:38Z</time>
      </trkpt>
      <trkpt lat="47.751" lon="4.66876">
        <ele>417.02447115763</ele>
        <time>2018-05-26T14:21:45Z</time>
      </trkpt>
      <trkpt lat="47.751" lon="4.66876">
        <ele>417.62607139736</ele>
        <time>2018-05-26T14:21:52Z</time>
      </trkpt>
      <trkpt lat="47.751" lon="4.66876">
        <ele>419.43360692902</ele>
        <time>2018-05-26T14:21:59Z</time>
      </trkpt>
      <trkpt lat="47.751" lon="4.66876">
        <ele>419.61663443617</ele>
        <time>2018-05-26T14:22:06Z</time>
      </trkpt>
      <trkpt lat="47.75103" lon="4.66869">
        <ele>420.83694157636</ele>
        <time>2018-05-26T14:22:12Z</time>
      </trkpt>
      <trkpt lat="47.75104" lon="4.66868">
        <ele>421.31537143299</ele>
        <time>2018-05-26T14:22:19Z</time>
      </trkpt>
      <trkpt lat="47.75105" lon="4.66869">
        <ele>420.6588609653</ele>
        <time>2018-05-26T14:22:25Z</time>
      </trkpt>
      <trkpt lat="47.75105" lon="4.66869">
        <ele>420.42907634649</ele>
        <time>2018-05-26T14:22:32Z</time>
      </trkpt>
      <trkpt lat="47.75105" lon="4.66869">
        <ele>420.2312196145</ele>
        <time>2018-05-26T14:22:38Z</time>
      </trkpt>
      <trkpt lat="47.75104" lon="4.66873">
        <ele>419.80540882071</ele>
        <time>2018-05-26T14:22:45Z</time>
      </trkpt>
      <trkpt lat="47.75098" lon="4.66879">
        <ele>418.12673756222</ele>
        <time>2018-05-26T14:22:52Z</time>
      </trkpt>
      <trkpt lat="47.75094" lon="4.66887">
        <ele>417.35313708945</ele>
        <time>2018-05-26T14:22:59Z</time>
      </trkpt>
      <trkpt lat="47.75088" lon="4.66903">
        <ele>417.17343677337</ele>
        <time>2018-05-26T14:23:06Z</time>
      </trkpt>
      <trkpt lat="47.75083" lon="4.66912">
        <ele>416.97692769931</ele>
        <time>2018-05-26T14:23:12Z</time>
      </trkpt>
      <trkpt lat="47.75081" lon="4.66922">
        <ele>416.45853832685</ele>
        <time>2018-05-26T14:23:19Z</time>
      </trkpt>
      <trkpt lat="47.7508" lon="4.66923">
        <ele>416.22652012064</ele>
        <time>2018-05-26T14:23:26Z</time>
      </trkpt>
      <trkpt lat="47.75081" lon="4.66923">
        <ele>416.07753553985</ele>
        <time>2018-05-26T14:23:32Z</time>
      </trkpt>
      <trkpt lat="47.75084" lon="4.66927">
        <ele>414.83897919043</ele>
        <time>2018-05-26T14:23:39Z</time>
      </trkpt>
      <trkpt lat="47.7508" lon="4.66936">
        <ele>414.48544167259</ele>
        <time>2018-05-26T14:23:45Z</time>
      </trkpt>
      <trkpt lat="47.75079" lon="4.66941">
        <ele>414.17818236788</ele>
        <time>2018-05-26T14:23:51Z</time>
      </trkpt>
      <trkpt lat="47.75081" lon="4.66951">
        <ele>413.87591045605</ele>
        <time>2018-05-26T14:23:58Z</time>
      </trkpt>
      <trkpt lat="47.75084" lon="4.66959">
        <ele>413.65849819297</ele>
        <time>2018-05-26T14:24:04Z</time>
      </trkpt>
      <trkpt lat="47.75087" lon="4.6697">
        <ele>413.76073703601</ele>
        <time>2018-05-26T14:24:11Z</time>
      </trkpt>
      <trkpt lat="47.75089" lon="4.66977">
        <ele>414.08265611693</ele>
        <time>2018-05-26T14:24:18Z</time>
      </trkpt>
      <trkpt lat="47.75091" lon="4.66979">
        <ele>413.89486437738</ele>
        <time>2018-05-26T14:24:24Z</time>
      </trkpt>
      <trkpt lat="47.75093" lon="4.66982">
        <ele>413.30868819768</ele>
        <time>2018-05-26T14:24:30Z</time>
      </trkpt>
      <trkpt lat="47.75093" lon="4.6698">
        <ele>412.60529833349</ele>
        <time>2018-05-26T14:24:37Z</time>
      </trkpt>
      <trkpt lat="47.75094" lon="4.66979">
        <ele>412.19499182658</ele>
        <time>2018-05-26T14:24:43Z</time>
      </trkpt>
      <trkpt lat="47.75096" lon="4.66984">
        <ele>411.60791297758</ele>
        <time>2018-05-26T14:24:49Z</time>
      </trkpt>
      <trkpt lat="47.75098" lon="4.66993">
        <ele>410.79389008485</ele>
        <time>2018-05-26T14:24:56Z</time>
      </trkpt>
      <trkpt lat="47.75101" lon="4.67003">
        <ele>410.65125820629</ele>
        <time>2018-05-26T14:25:02Z</time>
      </trkpt>
      <trkpt lat="47.75104" lon="4.67016">
        <ele>410.58805881372</ele>
        <time>2018-05-26T14:25:09Z</time>
      </trkpt>
      <trkpt lat="47.75106" lon="4.67025">
        <ele>411.20077375042</ele>
        <time>2018-05-26T14:25:16Z</time>
      </trkpt>
      <trkpt lat="47.75108" lon="4.67033">
        <ele>411.47393490495</ele>
        <time>2018-05-26T14:25:22Z</time>
      </trkpt>
      <trkpt lat="47.75112" lon="4.6704">
        <ele>411.60636336723</ele>
        <time>2018-05-26T14:25:29Z</time>
      </trkpt>
      <trkpt lat="47.75116" lon="4.67046">
        <ele>411.06736515412</ele>
        <time>2018-05-26T14:25:35Z</time>
      </trkpt>
      <trkpt lat="47.7512" lon="4.67055">
        <ele>410.96960076136</ele>
        <time>2018-05-26T14:25:41Z</time>
      </trkpt>
      <trkpt lat="47.75124" lon="4.67065">
        <ele>411.0864108879</ele>
        <time>2018-05-26T14:25:48Z</time>
      </trkpt>
      <trkpt lat="47.75126" lon="4.67076">
        <ele>410.83057492335</ele>
        <time>2018-05-26T14:25:54Z</time>
      </trkpt>
      <trkpt lat="47.75128" lon="4.67086">
        <ele>410.73861963949</ele>
        <time>2018-05-26T14:26:01Z</time>
      </trkpt>
      <trkpt lat="47.75128" lon="4.67087">
        <ele>410.59638104197</ele>
        <time>2018-05-26T14:26:07Z</time>
      </trkpt>
      <trkpt lat="47.75131" lon="4.67091">
        <ele>410.36025927164</ele>
        <time>2018-05-26T14:26:14Z</time>
      </trkpt>
      <trkpt lat="47.75136" lon="4.67097">
        <ele>410.42194653881</ele>
        <time>2018-05-26T14:26:21Z</time>
      </trkpt>
      <trkpt lat="47.75137" lon="4.67107">
        <ele>410.4915536192</ele>
        <time>2018-05-26T14:26:27Z</time>
      </trkpt>
      <trkpt lat="47.75141" lon="4.67116">
        <ele>410.6469014322</ele>
        <time>2018-05-26T14:26:33Z</time>
      </trkpt>
      <trkpt lat="47.75145" lon="4.67124">
        <ele>411.16068633129</ele>
        <time>2018-05-26T14:26:40Z</time>
      </trkpt>
      <trkpt lat="47.75147" lon="4.67131">
        <ele>411.13214710531</ele>
        <time>2018-05-26T14:26:47Z</time>
      </trkpt>
      <trkpt lat="47.75149" lon="4.67138">
        <ele>411.2601514459</ele>
        <time>2018-05-26T14:26:54Z</time>
      </trkpt>
      <trkpt lat="47.75153" lon="4.67153">
        <ele>410.52757708532</ele>
        <time>2018-05-26T14:27:01Z</time>
      </trkpt>
      <trkpt lat="47.75157" lon="4.67176">
        <ele>410.23088636265</ele>
        <time>2018-05-26T14:27:08Z</time>
      </trkpt>
      <trkpt lat="47.75163" lon="4.67198">
        <ele>410.58224325787</ele>
        <time>2018-05-26T14:27:15Z</time>
      </trkpt>
      <trkpt lat="47.75167" lon="4.67206">
        <ele>410.88879827121</ele>
        <time>2018-05-26T14:27:21Z</time>
      </trkpt>
      <trkpt lat="47.75171" lon="4.67211">
        <ele>411.32869373513</ele>
        <time>2018-05-26T14:27:27Z</time>
      </trkpt>
      <trkpt lat="47.75175" lon="4.67216">
        <ele>411.29892693116</ele>
        <time>2018-05-26T14:27:34Z</time>
      </trkpt>
      <trkpt lat="47.75178" lon="4.67223">
        <ele>411.4144917178</ele>
        <time>2018-05-26T14:27:41Z</time>
      </trkpt>
      <trkpt lat="47.75183" lon="4.6723">
        <ele>411.34406858484</ele>
        <time>2018-05-26T14:27:48Z</time>
      </trkpt>
      <trkpt lat="47.75185" lon="4.67235">
        <ele>411.43572271059</ele>
        <time>2018-05-26T14:27:55Z</time>
      </trkpt>
      <trkpt lat="47.7519" lon="4.6724">
        <ele>411.29823871736</ele>
        <time>2018-05-26T14:28:01Z</time>
      </trkpt>
      <trkpt lat="47.75194" lon="4.67247">
        <ele>411.5298280182</ele>
        <time>2018-05-26T14:28:08Z</time>
      </trkpt>
      <trkpt lat="47.75197" lon="4.67251">
        <ele>411.85297082185</ele>
        <time>2018-05-26T14:28:14Z</time>
      </trkpt>
      <trkpt lat="47.752" lon="4.67261">
        <ele>411.84979482735</ele>
        <time>2018-05-26T14:28:21Z</time>
      </trkpt>
      <trkpt lat="47.75204" lon="4.6727">
        <ele>411.78929861992</ele>
        <time>2018-05-26T14:28:27Z</time>
      </trkpt>
      <trkpt lat="47.75208" lon="4.67277">
        <ele>411.518116779</ele>
        <time>2018-05-26T14:28:34Z</time>
      </trkpt>
      <trkpt lat="47.75211" lon="4.67285">
        <ele>411.2304532817</ele>
        <time>2018-05-26T14:28:40Z</time>
      </trkpt>
      <trkpt lat="47.75212" lon="4.67295">
        <ele>411.04044725028</ele>
        <time>2018-05-26T14:28:47Z</time>
      </trkpt>
      <trkpt lat="47.75213" lon="4.67306">
        <ele>411.01193081125</ele>
        <time>2018-05-26T14:28:53Z</time>
      </trkpt>
      <trkpt lat="47.75215" lon="4.67314">
        <ele>410.81452717281</ele>
        <time>2018-05-26T14:29:00Z</time>
      </trkpt>
      <trkpt lat="47.75214" lon="4.67326">
        <ele>410.80855551902</ele>
        <time>2018-05-26T14:29:07Z</time>
      </trkpt>
      <trkpt lat="47.75215" lon="4.67337">
        <ele>410.88236526183</ele>
        <time>2018-05-26T14:29:14Z</time>
      </trkpt>
      <trkpt lat="47.75216" lon="4.67346">
        <ele>411.01214454941</ele>
        <time>2018-05-26T14:29:20Z</time>
      </trkpt>
      <trkpt lat="47.75217" lon="4.67356">
        <ele>410.70896805807</ele>
        <time>2018-05-26T14:29:27Z</time>
      </trkpt>
      <trkpt lat="47.75217" lon="4.67366">
        <ele>410.34033727843</ele>
        <time>2018-05-26T14:29:33Z</time>
      </trkpt>
      <trkpt lat="47.75218" lon="4.67376">
        <ele>410.01068636264</ele>
        <time>2018-05-26T14:29:40Z</time>
      </trkpt>
      <trkpt lat="47.75219" lon="4.67384">
        <ele>409.66180040051</ele>
        <time>2018-05-26T14:29:47Z</time>
      </trkpt>
      <trkpt lat="47.75221" lon="4.67387">
        <ele>408.99610662006</ele>
        <time>2018-05-26T14:29:54Z</time>
      </trkpt>
      <trkpt lat="47.75223" lon="4.67397">
        <ele>408.2158475602</ele>
        <time>2018-05-26T14:30:01Z</time>
      </trkpt>
      <trkpt lat="47.75225" lon="4.67408">
        <ele>407.80891659899</ele>
        <time>2018-05-26T14:30:08Z</time>
      </trkpt>
      <trkpt lat="47.75226" lon="4.67413">
        <ele>407.59898024519</ele>
        <time>2018-05-26T14:30:15Z</time>
      </trkpt>
      <trkpt lat="47.75225" lon="4.67422">
        <ele>407.66398711804</ele>
        <time>2018-05-26T14:30:21Z</time>
      </trkpt>
      <trkpt lat="47.75225" lon="4.67432">
        <ele>407.48870365367</ele>
        <time>2018-05-26T14:30:28Z</time>
      </trkpt>
      <trkpt lat="47.75225" lon="4.67433">
        <ele>407.49818888226</ele>
        <time>2018-05-26T14:30:35Z</time>
      </trkpt>
      <trkpt lat="47.75225" lon="4.67442">
        <ele>407.27226651425</ele>
        <time>2018-05-26T14:30:41Z</time>
      </trkpt>
      <trkpt lat="47.75225" lon="4.67452">
        <ele>406.70691521131</ele>
        <time>2018-05-26T14:30:48Z</time>
      </trkpt>
      <trkpt lat="47.75226" lon="4.6746">
        <ele>406.39678904404</ele>
        <time>2018-05-26T14:30:54Z</time>
      </trkpt>
      <trkpt lat="47.75227" lon="4.67471">
        <ele>406.04241433969</ele>
        <time>2018-05-26T14:31:01Z</time>
      </trkpt>
      <trkpt lat="47.75229" lon="4.6748">
        <ele>405.735316206</ele>
        <time>2018-05-26T14:31:07Z</time>
      </trkpt>
      <trkpt lat="47.75229" lon="4.67492">
        <ele>405.09390405284</ele>
        <time>2018-05-26T14:31:14Z</time>
      </trkpt>
      <trkpt lat="47.7523" lon="4.67502">
        <ele>404.23651387547</ele>
        <time>2018-05-26T14:31:20Z</time>
      </trkpt>
      <trkpt lat="47.75231" lon="4.67512">
        <ele>403.70949411487</ele>
        <time>2018-05-26T14:31:26Z</time>
      </trkpt>
      <trkpt lat="47.7523" lon="4.67522">
        <ele>402.98739052922</ele>
        <time>2018-05-26T14:31:33Z</time>
      </trkpt>
      <trkpt lat="47.75231" lon="4.67534">
        <ele>402.4798945675</ele>
        <time>2018-05-26T14:31:40Z</time>
      </trkpt>
      <trkpt lat="47.7523" lon="4.67545">
        <ele>402.25533460297</ele>
        <time>2018-05-26T14:31:47Z</time>
      </trkpt>
      <trkpt lat="47.75231" lon="4.67556">
        <ele>401.85395343555</ele>
        <time>2018-05-26T14:31:54Z</time>
      </trkpt>
      <trkpt lat="47.75231" lon="4.67571">
        <ele>401.80073250952</ele>
        <time>2018-05-26T14:32:01Z</time>
      </trkpt>
      <trkpt lat="47.75232" lon="4.6758">
        <ele>401.38739239161</ele>
        <time>2018-05-26T14:32:07Z</time>
      </trkpt>
      <trkpt lat="47.75234" lon="4.67589">
        <ele>400.64414383629</ele>
        <time>2018-05-26T14:32:14Z</time>
      </trkpt>
      <trkpt lat="47.75235" lon="4.67598">
        <ele>400.03168463293</ele>
        <time>2018-05-26T14:32:21Z</time>
      </trkpt>
      <trkpt lat="47.75236" lon="4.67608">
        <ele>399.74402236519</ele>
        <time>2018-05-26T14:32:27Z</time>
      </trkpt>
      <trkpt lat="47.75237" lon="4.67618">
        <ele>399.34943025212</ele>
        <time>2018-05-26T14:32:34Z</time>
      </trkpt>
      <trkpt lat="47.75239" lon="4.67631">
        <ele>398.84712740736</ele>
        <time>2018-05-26T14:32:41Z</time>
      </trkpt>
      <trkpt lat="47.75242" lon="4.6764">
        <ele>398.21172359583</ele>
        <time>2018-05-26T14:32:48Z</time>
      </trkpt>
      <trkpt lat="47.75245" lon="4.6765">
        <ele>397.70762491254</ele>
        <time>2018-05-26T14:32:55Z</time>
      </trkpt>
      <trkpt lat="47.75247" lon="4.67661">
        <ele>397.0938304553</ele>
        <time>2018-05-26T14:33:02Z</time>
      </trkpt>
      <trkpt lat="47.7525" lon="4.6767">
        <ele>396.30471061365</ele>
        <time>2018-05-26T14:33:08Z</time>
      </trkpt>
      <trkpt lat="47.75254" lon="4.67681">
        <ele>395.58873662106</ele>
        <time>2018-05-26T14:33:15Z</time>
      </trkpt>
      <trkpt lat="47.75254" lon="4.67694">
        <ele>395.25309375706</ele>
        <time>2018-05-26T14:33:22Z</time>
      </trkpt>
      <trkpt lat="47.75255" lon="4.67703">
        <ele>394.84193286963</ele>
        <time>2018-05-26T14:33:28Z</time>
      </trkpt>
      <trkpt lat="47.75256" lon="4.67713">
        <ele>394.67823052183</ele>
        <time>2018-05-26T14:33:35Z</time>
      </trkpt>
      <trkpt lat="47.75256" lon="4.67724">
        <ele>394.30011127511</ele>
        <time>2018-05-26T14:33:42Z</time>
      </trkpt>
      <trkpt lat="47.75256" lon="4.67733">
        <ele>394.2398010282</ele>
        <time>2018-05-26T14:33:48Z</time>
      </trkpt>
      <trkpt lat="47.75258" lon="4.67742">
        <ele>393.90722723728</ele>
        <time>2018-05-26T14:33:54Z</time>
      </trkpt>
      <trkpt lat="47.75259" lon="4.67751">
        <ele>393.42650473866</ele>
        <time>2018-05-26T14:34:00Z</time>
      </trkpt>
      <trkpt lat="47.7526" lon="4.67762">
        <ele>392.87989892353</ele>
        <time>2018-05-26T14:34:07Z</time>
      </trkpt>
      <trkpt lat="47.7526" lon="4.67772">
        <ele>392.51426152737</ele>
        <time>2018-05-26T14:34:14Z</time>
      </trkpt>
      <trkpt lat="47.7526" lon="4.67784">
        <ele>392.45606817786</ele>
        <time>2018-05-26T14:34:21Z</time>
      </trkpt>
      <trkpt lat="47.75262" lon="4.67794">
        <ele>392.44868544997</ele>
        <time>2018-05-26T14:34:28Z</time>
      </trkpt>
      <trkpt lat="47.75263" lon="4.67804">
        <ele>392.09806186686</ele>
        <time>2018-05-26T14:34:34Z</time>
      </trkpt>
      <trkpt lat="47.75263" lon="4.67814">
        <ele>391.66541523447</ele>
        <time>2018-05-26T14:34:41Z</time>
      </trkpt>
      <trkpt lat="47.75262" lon="4.67822">
        <ele>391.46374555416</ele>
        <time>2018-05-26T14:34:47Z</time>
      </trkpt>
      <trkpt lat="47.75265" lon="4.6783">
        <ele>391.26943449182</ele>
        <time>2018-05-26T14:34:54Z</time>
      </trkpt>
      <trkpt lat="47.75265" lon="4.67833">
        <ele>390.86589349529</ele>
        <time>2018-05-26T14:35:01Z</time>
      </trkpt>
      <trkpt lat="47.75261" lon="4.67837">
        <ele>390.66148522468</ele>
        <time>2018-05-26T14:35:07Z</time>
      </trkpt>
      <trkpt lat="47.75257" lon="4.67842">
        <ele>390.38077519016</ele>
        <time>2018-05-26T14:35:13Z</time>
      </trkpt>
      <trkpt lat="47.75252" lon="4.67848">
        <ele>390.08561194054</ele>
        <time>2018-05-26T14:35:19Z</time>
      </trkpt>
      <trkpt lat="47.75248" lon="4.67852">
        <ele>389.47150117496</ele>
        <time>2018-05-26T14:35:26Z</time>
      </trkpt>
      <trkpt lat="47.7524" lon="4.67856">
        <ele>389.06911304544</ele>
        <time>2018-05-26T14:35:33Z</time>
      </trkpt>
      <trkpt lat="47.75235" lon="4.67859">
        <ele>388.80605977889</ele>
        <time>2018-05-26T14:35:39Z</time>
      </trkpt>
      <trkpt lat="47.75231" lon="4.67862">
        <ele>388.18573564886</ele>
        <time>2018-05-26T14:35:46Z</time>
      </trkpt>
      <trkpt lat="47.75224" lon="4.67868">
        <ele>387.6597390778</ele>
        <time>2018-05-26T14:35:53Z</time>
      </trkpt>
      <trkpt lat="47.75218" lon="4.67872">
        <ele>387.0735674219</ele>
        <time>2018-05-26T14:36:00Z</time>
      </trkpt>
      <trkpt lat="47.75214" lon="4.67877">
        <ele>386.75892119184</ele>
        <time>2018-05-26T14:36:06Z</time>
      </trkpt>
      <trkpt lat="47.75204" lon="4.67884">
        <ele>386.48049397169</ele>
        <time>2018-05-26T14:36:13Z</time>
      </trkpt>
      <trkpt lat="47.752" lon="4.6789">
        <ele>386.22304736357</ele>
        <time>2018-05-26T14:36:20Z</time>
      </trkpt>
      <trkpt lat="47.75194" lon="4.67898">
        <ele>385.80520948818</ele>
        <time>2018-05-26T14:36:27Z</time>
      </trkpt>
      <trkpt lat="47.75189" lon="4.67906">
        <ele>385.71604251502</ele>
        <time>2018-05-26T14:36:33Z</time>
      </trkpt>
      <trkpt lat="47.75185" lon="4.67911">
        <ele>385.39687847013</ele>
        <time>2018-05-26T14:36:40Z</time>
      </trkpt>
      <trkpt lat="47.7518" lon="4.67916">
        <ele>385.2184272499</ele>
        <time>2018-05-26T14:36:47Z</time>
      </trkpt>
      <trkpt lat="47.75175" lon="4.67921">
        <ele>385.20011971785</ele>
        <time>2018-05-26T14:36:54Z</time>
      </trkpt>
      <trkpt lat="47.7517" lon="4.67927">
        <ele>384.84023628672</ele>
        <time>2018-05-26T14:37:01Z</time>
      </trkpt>
      <trkpt lat="47.75164" lon="4.67931">
        <ele>384.78146073815</ele>
        <time>2018-05-26T14:37:08Z</time>
      </trkpt>
      <trkpt lat="47.7516" lon="4.67933">
        <ele>384.6074174173</ele>
        <time>2018-05-26T14:37:15Z</time>
      </trkpt>
      <trkpt lat="47.75155" lon="4.67937">
        <ele>384.8711656394</ele>
        <time>2018-05-26T14:37:22Z</time>
      </trkpt>
      <trkpt lat="47.75149" lon="4.6794">
        <ele>384.94789617121</ele>
        <time>2018-05-26T14:37:29Z</time>
      </trkpt>
      <trkpt lat="47.75144" lon="4.67941">
        <ele>385.15697881783</ele>
        <time>2018-05-26T14:37:35Z</time>
      </trkpt>
      <trkpt lat="47.75139" lon="4.67941">
        <ele>385.05433842504</ele>
        <time>2018-05-26T14:37:42Z</time>
      </trkpt>
      <trkpt lat="47.7513" lon="4.67941">
        <ele>385.05544797283</ele>
        <time>2018-05-26T14:37:48Z</time>
      </trkpt>
      <trkpt lat="47.75119" lon="4.67941">
        <ele>384.91642083533</ele>
        <time>2018-05-26T14:37:54Z</time>
      </trkpt>
      <trkpt lat="47.75109" lon="4.67939">
        <ele>384.61734425945</ele>
        <time>2018-05-26T14:38:01Z</time>
      </trkpt>
      <trkpt lat="47.75104" lon="4.67939">
        <ele>384.10083152744</ele>
        <time>2018-05-26T14:38:08Z</time>
      </trkpt>
      <trkpt lat="47.75099" lon="4.67939">
        <ele>383.94662688923</ele>
        <time>2018-05-26T14:38:15Z</time>
      </trkpt>
      <trkpt lat="47.75094" lon="4.67939">
        <ele>383.44419073866</ele>
        <time>2018-05-26T14:38:21Z</time>
      </trkpt>
      <trkpt lat="47.75088" lon="4.67937">
        <ele>382.8969168624</ele>
        <time>2018-05-26T14:38:27Z</time>
      </trkpt>
      <trkpt lat="47.75083" lon="4.67936">
        <ele>382.13030029751</ele>
        <time>2018-05-26T14:38:34Z</time>
      </trkpt>
      <trkpt lat="47.75075" lon="4.67932">
        <ele>382.1930279617</ele>
        <time>2018-05-26T14:38:41Z</time>
      </trkpt>
      <trkpt lat="47.75069" lon="4.67929">
        <ele>382.36426579947</ele>
        <time>2018-05-26T14:38:47Z</time>
      </trkpt>
      <trkpt lat="47.75059" lon="4.67927">
        <ele>382.53519302434</ele>
        <time>2018-05-26T14:38:54Z</time>
      </trkpt>
      <trkpt lat="47.75052" lon="4.67929">
        <ele>382.86931615077</ele>
        <time>2018-05-26T14:39:01Z</time>
      </trkpt>
      <trkpt lat="47.75049" lon="4.6793">
        <ele>382.92313702256</ele>
        <time>2018-05-26T14:39:08Z</time>
      </trkpt>
      <trkpt lat="47.75042" lon="4.67929">
        <ele>383.03930696593</ele>
        <time>2018-05-26T14:39:15Z</time>
      </trkpt>
      <trkpt lat="47.75034" lon="4.67929">
        <ele>383.0994301355</ele>
        <time>2018-05-26T14:39:22Z</time>
      </trkpt>
      <trkpt lat="47.75028" lon="4.67929">
        <ele>383.18563975905</ele>
        <time>2018-05-26T14:39:29Z</time>
      </trkpt>
      <trkpt lat="47.75022" lon="4.67927">
        <ele>382.83655591044</ele>
        <time>2018-05-26T14:39:35Z</time>
      </trkpt>
      <trkpt lat="47.75017" lon="4.67924">
        <ele>382.02498411245</ele>
        <time>2018-05-26T14:39:42Z</time>
      </trkpt>
      <trkpt lat="47.75017" lon="4.67924">
        <ele>382.01482933304</ele>
        <time>2018-05-26T14:39:49Z</time>
      </trkpt>
      <trkpt lat="47.75015" lon="4.67927">
        <ele>382.21913521329</ele>
        <time>2018-05-26T14:39:56Z</time>
      </trkpt>
      <trkpt lat="47.75007" lon="4.67926">
        <ele>382.72566024387</ele>
        <time>2018-05-26T14:40:03Z</time>
      </trkpt>
      <trkpt lat="47.75001" lon="4.67929">
        <ele>382.88454279476</ele>
        <time>2018-05-26T14:40:09Z</time>
      </trkpt>
      <trkpt lat="47.74995" lon="4.67932">
        <ele>382.46318950083</ele>
        <time>2018-05-26T14:40:16Z</time>
      </trkpt>
      <trkpt lat="47.74992" lon="4.67934">
        <ele>381.69809673398</ele>
        <time>2018-05-26T14:40:22Z</time>
      </trkpt>
      <trkpt lat="47.74985" lon="4.67938">
        <ele>381.35194299004</ele>
        <time>2018-05-26T14:40:29Z</time>
      </trkpt>
      <trkpt lat="47.74977" lon="4.67943">
        <ele>381.40393792712</ele>
        <time>2018-05-26T14:40:36Z</time>
      </trkpt>
      <trkpt lat="47.74966" lon="4.67943">
        <ele>381.37789580067</ele>
        <time>2018-05-26T14:40:42Z</time>
      </trkpt>
      <trkpt lat="47.74961" lon="4.67945">
        <ele>381.07407101355</ele>
        <time>2018-05-26T14:40:49Z</time>
      </trkpt>
      <trkpt lat="47.74958" lon="4.67945">
        <ele>381.2187322441</ele>
        <time>2018-05-26T14:40:55Z</time>
      </trkpt>
      <trkpt lat="47.7495" lon="4.67944">
        <ele>380.98677692688</ele>
        <time>2018-05-26T14:41:02Z</time>
      </trkpt>
      <trkpt lat="47.74943" lon="4.67948">
        <ele>381.11617491077</ele>
        <time>2018-05-26T14:41:09Z</time>
      </trkpt>
      <trkpt lat="47.74937" lon="4.67949">
        <ele>380.43591587847</ele>
        <time>2018-05-26T14:41:15Z</time>
      </trkpt>
      <trkpt lat="47.7493" lon="4.67949">
        <ele>379.7164447352</ele>
        <time>2018-05-26T14:41:22Z</time>
      </trkpt>
      <trkpt lat="47.74926" lon="4.67951">
        <ele>378.82414329079</ele>
        <time>2018-05-26T14:41:29Z</time>
      </trkpt>
      <trkpt lat="47.74918" lon="4.67953">
        <ele>378.00535837644</ele>
        <time>2018-05-26T14:41:35Z</time>
      </trkpt>
      <trkpt lat="47.74911" lon="4.67955">
        <ele>377.199880542</ele>
        <time>2018-05-26T14:41:41Z</time>
      </trkpt>
      <trkpt lat="47.74906" lon="4.67956">
        <ele>376.22111631337</ele>
        <time>2018-05-26T14:41:48Z</time>
      </trkpt>
      <trkpt lat="47.74901" lon="4.67957">
        <ele>376.41295879038</ele>
        <time>2018-05-26T14:41:54Z</time>
      </trkpt>
      <trkpt lat="47.74894" lon="4.67959">
        <ele>376.12169906602</ele>
        <time>2018-05-26T14:42:01Z</time>
      </trkpt>
      <trkpt lat="47.74886" lon="4.67966">
        <ele>375.40244622408</ele>
        <time>2018-05-26T14:42:08Z</time>
      </trkpt>
      <trkpt lat="47.74882" lon="4.6797">
        <ele>374.76794007499</ele>
        <time>2018-05-26T14:42:14Z</time>
      </trkpt>
      <trkpt lat="47.74875" lon="4.67969">
        <ele>374.30658176211</ele>
        <time>2018-05-26T14:42:21Z</time>
      </trkpt>
      <trkpt lat="47.74869" lon="4.67969">
        <ele>374.10636748411</ele>
        <time>2018-05-26T14:42:28Z</time>
      </trkpt>
      <trkpt lat="47.74859" lon="4.6797">
        <ele>373.24755889615</ele>
        <time>2018-05-26T14:42:35Z</time>
      </trkpt>
      <trkpt lat="47.74855" lon="4.67972">
        <ele>372.48258360558</ele>
        <time>2018-05-26T14:42:41Z</time>
      </trkpt>
      <trkpt lat="47.74852" lon="4.67974">
        <ele>371.82313186077</ele>
        <time>2018-05-26T14:42:47Z</time>
      </trkpt>
      <trkpt lat="47.74844" lon="4.67976">
        <ele>370.96650558757</ele>
        <time>2018-05-26T14:42:54Z</time>
      </trkpt>
      <trkpt lat="47.74838" lon="4.67976">
        <ele>370.60162708926</ele>
        <time>2018-05-26T14:43:00Z</time>
      </trkpt>
      <trkpt lat="47.7483" lon="4.67975">
        <ele>369.91844686075</ele>
        <time>2018-05-26T14:43:07Z</time>
      </trkpt>
      <trkpt lat="47.7482" lon="4.67973">
        <ele>369.132944683</ele>
        <time>2018-05-26T14:43:14Z</time>
      </trkpt>
      <trkpt lat="47.74813" lon="4.67969">
        <ele>368.61805780457</ele>
        <time>2018-05-26T14:43:20Z</time>
      </trkpt>
      <trkpt lat="47.74806" lon="4.67968">
        <ele>368.27114661414</ele>
        <time>2018-05-26T14:43:26Z</time>
      </trkpt>
      <trkpt lat="47.74799" lon="4.67967">
        <ele>367.64696686656</ele>
        <time>2018-05-26T14:43:33Z</time>
      </trkpt>
      <trkpt lat="47.74792" lon="4.67963">
        <ele>366.8960379733</ele>
        <time>2018-05-26T14:43:39Z</time>
      </trkpt>
      <trkpt lat="47.74786" lon="4.67961">
        <ele>366.37806070779</ele>
        <time>2018-05-26T14:43:46Z</time>
      </trkpt>
      <trkpt lat="47.74779" lon="4.67957">
        <ele>365.94620285841</ele>
        <time>2018-05-26T14:43:53Z</time>
      </trkpt>
      <trkpt lat="47.74771" lon="4.67942">
        <ele>365.75207202824</ele>
        <time>2018-05-26T14:44:00Z</time>
      </trkpt>
      <trkpt lat="47.74765" lon="4.6793">
        <ele>366.36981217817</ele>
        <time>2018-05-26T14:44:07Z</time>
      </trkpt>
      <trkpt lat="47.74762" lon="4.67925">
        <ele>367.20402507439</ele>
        <time>2018-05-26T14:44:14Z</time>
      </trkpt>
      <trkpt lat="47.74759" lon="4.67921">
        <ele>367.84807670888</ele>
        <time>2018-05-26T14:44:20Z</time>
      </trkpt>
      <trkpt lat="47.74755" lon="4.67916">
        <ele>367.43410695576</ele>
        <time>2018-05-26T14:44:27Z</time>
      </trkpt>
      <trkpt lat="47.74753" lon="4.67911">
        <ele>366.88202843497</ele>
        <time>2018-05-26T14:44:33Z</time>
      </trkpt>
      <trkpt lat="47.74749" lon="4.67902">
        <ele>365.76730495528</ele>
        <time>2018-05-26T14:44:40Z</time>
      </trkpt>
      <trkpt lat="47.74745" lon="4.6789">
        <ele>364.5752273058</ele>
        <time>2018-05-26T14:44:47Z</time>
      </trkpt>
      <trkpt lat="47.74741" lon="4.67884">
        <ele>363.9689821708</ele>
        <time>2018-05-26T14:44:53Z</time>
      </trkpt>
      <trkpt lat="47.74735" lon="4.67879">
        <ele>363.47988228448</ele>
        <time>2018-05-26T14:44:59Z</time>
      </trkpt>
      <trkpt lat="47.74729" lon="4.67878">
        <ele>362.4537483172</ele>
        <time>2018-05-26T14:45:05Z</time>
      </trkpt>
      <trkpt lat="47.74722" lon="4.67886">
        <ele>360.99767509274</ele>
        <time>2018-05-26T14:45:12Z</time>
      </trkpt>
      <trkpt lat="47.74721" lon="4.67901">
        <ele>359.81236094253</ele>
        <time>2018-05-26T14:45:18Z</time>
      </trkpt>
      <trkpt lat="47.74725" lon="4.67917">
        <ele>358.87067922693</ele>
        <time>2018-05-26T14:45:25Z</time>
      </trkpt>
      <trkpt lat="47.74728" lon="4.67929">
        <ele>358.36590895394</ele>
        <time>2018-05-26T14:45:32Z</time>
      </trkpt>
      <trkpt lat="47.74731" lon="4.67936">
        <ele>357.59317815183</ele>
        <time>2018-05-26T14:45:38Z</time>
      </trkpt>
      <trkpt lat="47.74734" lon="4.67946">
        <ele>356.25967975122</ele>
        <time>2018-05-26T14:45:45Z</time>
      </trkpt>
      <trkpt lat="47.74738" lon="4.67952">
        <ele>354.83674936807</ele>
        <time>2018-05-26T14:45:51Z</time>
      </trkpt>
      <trkpt lat="47.74743" lon="4.67963">
        <ele>353.64613006233</ele>
        <time>2018-05-26T14:45:58Z</time>
      </trkpt>
      <trkpt lat="47.74747" lon="4.67971">
        <ele>352.56546330442</ele>
        <time>2018-05-26T14:46:05Z</time>
      </trkpt>
      <trkpt lat="47.74749" lon="4.67979">
        <ele>351.77204213804</ele>
        <time>2018-05-26T14:46:11Z</time>
      </trkpt>
      <trkpt lat="47.74752" lon="4.67989">
        <ele>351.03618728413</ele>
        <time>2018-05-26T14:46:18Z</time>
      </trkpt>
      <trkpt lat="47.74753" lon="4.67997">
        <ele>350.12728243452</ele>
        <time>2018-05-26T14:46:24Z</time>
      </trkpt>
      <trkpt lat="47.74756" lon="4.68007">
        <ele>348.96983692149</ele>
        <time>2018-05-26T14:46:31Z</time>
      </trkpt>
      <trkpt lat="47.7476" lon="4.68015">
        <ele>347.82978794811</ele>
        <time>2018-05-26T14:46:38Z</time>
      </trkpt>
      <trkpt lat="47.74762" lon="4.68028">
        <ele>346.61510308858</ele>
        <time>2018-05-26T14:46:45Z</time>
      </trkpt>
      <trkpt lat="47.74764" lon="4.68037">
        <ele>345.58791944042</ele>
        <time>2018-05-26T14:46:51Z</time>
      </trkpt>
      <trkpt lat="47.74765" lon="4.68048">
        <ele>344.50944028436</ele>
        <time>2018-05-26T14:46:58Z</time>
      </trkpt>
      <trkpt lat="47.74766" lon="4.68063">
        <ele>343.44310155325</ele>
        <time>2018-05-26T14:47:05Z</time>
      </trkpt>
      <trkpt lat="47.74766" lon="4.68068">
        <ele>343.1427728824</ele>
        <time>2018-05-26T14:47:11Z</time>
      </trkpt>
      <trkpt lat="47.74765" lon="4.68079">
        <ele>342.15616882254</ele>
        <time>2018-05-26T14:47:18Z</time>
      </trkpt>
      <trkpt lat="47.74763" lon="4.68091">
        <ele>340.77713251012</ele>
        <time>2018-05-26T14:47:25Z</time>
      </trkpt>
      <trkpt lat="47.74761" lon="4.68102">
        <ele>339.71054176978</ele>
        <time>2018-05-26T14:47:31Z</time>
      </trkpt>
      <trkpt lat="47.74759" lon="4.68111">
        <ele>339.02597843616</ele>
        <time>2018-05-26T14:47:38Z</time>
      </trkpt>
      <trkpt lat="47.74756" lon="4.68119">
        <ele>338.72629611952</ele>
        <time>2018-05-26T14:47:45Z</time>
      </trkpt>
      <trkpt lat="47.7475" lon="4.68128">
        <ele>338.75889362947</ele>
        <time>2018-05-26T14:47:51Z</time>
      </trkpt>
      <trkpt lat="47.74748" lon="4.68139">
        <ele>337.91888359794</ele>
        <time>2018-05-26T14:47:58Z</time>
      </trkpt>
      <trkpt lat="47.74747" lon="4.68148">
        <ele>337.2789719949</ele>
        <time>2018-05-26T14:48:04Z</time>
      </trkpt>
      <trkpt lat="47.74748" lon="4.68153">
        <ele>336.57107297511</ele>
        <time>2018-05-26T14:48:11Z</time>
      </trkpt>
      <trkpt lat="47.74747" lon="4.68159">
        <ele>336.18828285685</ele>
        <time>2018-05-26T14:48:17Z</time>
      </trkpt>
      <trkpt lat="47.74745" lon="4.68162">
        <ele>335.60836873391</ele>
        <time>2018-05-26T14:48:24Z</time>
      </trkpt>
      <trkpt lat="47.74745" lon="4.68173">
        <ele>335.078497539</ele>
        <time>2018-05-26T14:48:30Z</time>
      </trkpt>
      <trkpt lat="47.74745" lon="4.68182">
        <ele>334.5751591261</ele>
        <time>2018-05-26T14:48:36Z</time>
      </trkpt>
      <trkpt lat="47.74743" lon="4.6819">
        <ele>333.69461353083</ele>
        <time>2018-05-26T14:48:42Z</time>
      </trkpt>
      <trkpt lat="47.74744" lon="4.68197">
        <ele>333.09611312008</ele>
        <time>2018-05-26T14:48:49Z</time>
      </trkpt>
      <trkpt lat="47.74743" lon="4.682">
        <ele>332.8368888621</ele>
        <time>2018-05-26T14:48:56Z</time>
      </trkpt>
      <trkpt lat="47.74745" lon="4.68199">
        <ele>332.8541996492</ele>
        <time>2018-05-26T14:49:03Z</time>
      </trkpt>
      <trkpt lat="47.74744" lon="4.68199">
        <ele>332.65875477437</ele>
        <time>2018-05-26T14:49:10Z</time>
      </trkpt>
      <trkpt lat="47.74744" lon="4.68202">
        <ele>332.03512114047</ele>
        <time>2018-05-26T14:49:16Z</time>
      </trkpt>
      <trkpt lat="47.74742" lon="4.68212">
        <ele>331.58770672851</ele>
        <time>2018-05-26T14:49:23Z</time>
      </trkpt>
      <trkpt lat="47.74741" lon="4.68221">
        <ele>331.87646341624</ele>
        <time>2018-05-26T14:49:30Z</time>
      </trkpt>
      <trkpt lat="47.74738" lon="4.68232">
        <ele>331.44106855</ele>
        <time>2018-05-26T14:49:36Z</time>
      </trkpt>
      <trkpt lat="47.74737" lon="4.68237">
        <ele>331.25840350744</ele>
        <time>2018-05-26T14:49:43Z</time>
      </trkpt>
      <trkpt lat="47.74736" lon="4.68245">
        <ele>331.37265889013</ele>
        <time>2018-05-26T14:49:49Z</time>
      </trkpt>
      <trkpt lat="47.74733" lon="4.68252">
        <ele>331.20055088672</ele>
        <time>2018-05-26T14:49:56Z</time>
      </trkpt>
      <trkpt lat="47.74732" lon="4.68256">
        <ele>331.09855282407</ele>
        <time>2018-05-26T14:50:03Z</time>
      </trkpt>
      <trkpt lat="47.74732" lon="4.68259">
        <ele>331.21248967038</ele>
        <time>2018-05-26T14:50:10Z</time>
      </trkpt>
      <trkpt lat="47.74733" lon="4.68267">
        <ele>330.73492260239</ele>
        <time>2018-05-26T14:50:16Z</time>
      </trkpt>
      <trkpt lat="47.74732" lon="4.68272">
        <ele>330.71505776098</ele>
        <time>2018-05-26T14:50:23Z</time>
      </trkpt>
      <trkpt lat="47.74731" lon="4.6828">
        <ele>330.02292515895</ele>
        <time>2018-05-26T14:50:30Z</time>
      </trkpt>
      <trkpt lat="47.7473" lon="4.68292">
        <ele>329.84074677326</ele>
        <time>2018-05-26T14:50:37Z</time>
      </trkpt>
      <trkpt lat="47.74725" lon="4.68301">
        <ele>330.24521440039</ele>
        <time>2018-05-26T14:50:43Z</time>
      </trkpt>
      <trkpt lat="47.74721" lon="4.6831">
        <ele>330.76303840265</ele>
        <time>2018-05-26T14:50:50Z</time>
      </trkpt>
      <trkpt lat="47.7472" lon="4.68318">
        <ele>330.77010123438</ele>
        <time>2018-05-26T14:50:57Z</time>
      </trkpt>
      <trkpt lat="47.74718" lon="4.68324">
        <ele>330.51914706214</ele>
        <time>2018-05-26T14:51:03Z</time>
      </trkpt>
      <trkpt lat="47.74716" lon="4.68332">
        <ele>330.55474250013</ele>
        <time>2018-05-26T14:51:10Z</time>
      </trkpt>
      <trkpt lat="47.74714" lon="4.68342">
        <ele>330.28122238673</ele>
        <time>2018-05-26T14:51:17Z</time>
      </trkpt>
      <trkpt lat="47.7471" lon="4.6835">
        <ele>330.24038455756</ele>
        <time>2018-05-26T14:51:23Z</time>
      </trkpt>
      <trkpt lat="47.74705" lon="4.68361">
        <ele>330.6602080183</ele>
        <time>2018-05-26T14:51:30Z</time>
      </trkpt>
      <trkpt lat="47.74702" lon="4.68371">
        <ele>330.86504600457</ele>
        <time>2018-05-26T14:51:37Z</time>
      </trkpt>
      <trkpt lat="47.747" lon="4.6838">
        <ele>331.57025808924</ele>
        <time>2018-05-26T14:51:44Z</time>
      </trkpt>
      <trkpt lat="47.74697" lon="4.68389">
        <ele>331.82860833813</ele>
        <time>2018-05-26T14:51:51Z</time>
      </trkpt>
      <trkpt lat="47.74692" lon="4.68399">
        <ele>331.83522888803</ele>
        <time>2018-05-26T14:51:58Z</time>
      </trkpt>
      <trkpt lat="47.74689" lon="4.68405">
        <ele>331.5281703715</ele>
        <time>2018-05-26T14:52:05Z</time>
      </trkpt>
      <trkpt lat="47.74685" lon="4.68409">
        <ele>331.02784831393</ele>
        <time>2018-05-26T14:52:11Z</time>
      </trkpt>
      <trkpt lat="47.74681" lon="4.68418">
        <ele>331.05740425617</ele>
        <time>2018-05-26T14:52:18Z</time>
      </trkpt>
      <trkpt lat="47.74678" lon="4.68426">
        <ele>331.23697440572</ele>
        <time>2018-05-26T14:52:25Z</time>
      </trkpt>
      <trkpt lat="47.74677" lon="4.68433">
        <ele>331.63801736273</ele>
        <time>2018-05-26T14:52:31Z</time>
      </trkpt>
      <trkpt lat="47.74676" lon="4.68443">
        <ele>331.89589880853</ele>
        <time>2018-05-26T14:52:37Z</time>
      </trkpt>
      <trkpt lat="47.74677" lon="4.68452">
        <ele>332.11639311968</ele>
        <time>2018-05-26T14:52:44Z</time>
      </trkpt>
      <trkpt lat="47.74676" lon="4.68458">
        <ele>332.48599325775</ele>
        <time>2018-05-26T14:52:50Z</time>
      </trkpt>
      <trkpt lat="47.74675" lon="4.68467">
        <ele>332.58215556657</ele>
        <time>2018-05-26T14:52:56Z</time>
      </trkpt>
      <trkpt lat="47.74672" lon="4.68478">
        <ele>332.96762758517</ele>
        <time>2018-05-26T14:53:03Z</time>
      </trkpt>
      <trkpt lat="47.74672" lon="4.68484">
        <ele>333.49992143913</ele>
        <time>2018-05-26T14:53:10Z</time>
      </trkpt>
      <trkpt lat="47.74672" lon="4.68491">
        <ele>333.4653967675</ele>
        <time>2018-05-26T14:53:17Z</time>
      </trkpt>
      <trkpt lat="47.74674" lon="4.68498">
        <ele>333.7686907309</ele>
        <time>2018-05-26T14:53:23Z</time>
      </trkpt>
      <trkpt lat="47.74678" lon="4.68511">
        <ele>333.90817243775</ele>
        <time>2018-05-26T14:53:30Z</time>
      </trkpt>
      <trkpt lat="47.74681" lon="4.68518">
        <ele>334.31200263445</ele>
        <time>2018-05-26T14:53:37Z</time>
      </trkpt>
      <trkpt lat="47.74682" lon="4.68528">
        <ele>334.55129374292</ele>
        <time>2018-05-26T14:53:43Z</time>
      </trkpt>
      <trkpt lat="47.74681" lon="4.68536">
        <ele>334.55452508821</ele>
        <time>2018-05-26T14:53:50Z</time>
      </trkpt>
      <trkpt lat="47.7468" lon="4.68547">
        <ele>334.3342164554</ele>
        <time>2018-05-26T14:53:57Z</time>
      </trkpt>
      <trkpt lat="47.74679" lon="4.68556">
        <ele>334.41319427469</ele>
        <time>2018-05-26T14:54:03Z</time>
      </trkpt>
      <trkpt lat="47.74677" lon="4.68564">
        <ele>334.76394044316</ele>
        <time>2018-05-26T14:54:10Z</time>
      </trkpt>
      <trkpt lat="47.74675" lon="4.68572">
        <ele>335.05725790791</ele>
        <time>2018-05-26T14:54:17Z</time>
      </trkpt>
      <trkpt lat="47.74672" lon="4.68579">
        <ele>335.1687860634</ele>
        <time>2018-05-26T14:54:23Z</time>
      </trkpt>
      <trkpt lat="47.74667" lon="4.68586">
        <ele>335.10167977406</ele>
        <time>2018-05-26T14:54:29Z</time>
      </trkpt>
      <trkpt lat="47.74664" lon="4.68596">
        <ele>334.67046062173</ele>
        <time>2018-05-26T14:54:36Z</time>
      </trkpt>
      <trkpt lat="47.74662" lon="4.68605">
        <ele>334.75788334826</ele>
        <time>2018-05-26T14:54:42Z</time>
      </trkpt>
      <trkpt lat="47.74661" lon="4.68615">
        <ele>335.56142091791</ele>
        <time>2018-05-26T14:54:49Z</time>
      </trkpt>
      <trkpt lat="47.74662" lon="4.68614">
        <ele>335.89529407022</ele>
        <time>2018-05-26T14:54:55Z</time>
      </trkpt>
      <trkpt lat="47.74663" lon="4.68615">
        <ele>335.88990936502</ele>
        <time>2018-05-26T14:55:02Z</time>
      </trkpt>
      <trkpt lat="47.74661" lon="4.68622">
        <ele>336.1326807146</ele>
        <time>2018-05-26T14:55:09Z</time>
      </trkpt>
      <trkpt lat="47.74658" lon="4.68633">
        <ele>336.21325170737</ele>
        <time>2018-05-26T14:55:15Z</time>
      </trkpt>
      <trkpt lat="47.74655" lon="4.68642">
        <ele>337.03006860671</ele>
        <time>2018-05-26T14:55:22Z</time>
      </trkpt>
      <trkpt lat="47.74651" lon="4.68655">
        <ele>337.70032522815</ele>
        <time>2018-05-26T14:55:29Z</time>
      </trkpt>
      <trkpt lat="47.74649" lon="4.68661">
        <ele>338.28903645833</ele>
        <time>2018-05-26T14:55:36Z</time>
      </trkpt>
      <trkpt lat="47.74648" lon="4.68667">
        <ele>338.96352334062</ele>
        <time>2018-05-26T14:55:42Z</time>
      </trkpt>
      <trkpt lat="47.74643" lon="4.68677">
        <ele>339.08011385217</ele>
        <time>2018-05-26T14:55:49Z</time>
      </trkpt>
      <trkpt lat="47.7464" lon="4.68687">
        <ele>339.36746053251</ele>
        <time>2018-05-26T14:55:55Z</time>
      </trkpt>
      <trkpt lat="47.74636" lon="4.68696">
        <ele>339.48378874176</ele>
        <time>2018-05-26T14:56:01Z</time>
      </trkpt>
      <trkpt lat="47.74633" lon="4.68701">
        <ele>339.405827544</ele>
        <time>2018-05-26T14:56:07Z</time>
      </trkpt>
      <trkpt lat="47.74629" lon="4.68706">
        <ele>339.33794027046</ele>
        <time>2018-05-26T14:56:14Z</time>
      </trkpt>
      <trkpt lat="47.74626" lon="4.68709">
        <ele>339.31189423379</ele>
        <time>2018-05-26T14:56:20Z</time>
      </trkpt>
      <trkpt lat="47.74621" lon="4.6872">
        <ele>338.87245226363</ele>
        <time>2018-05-26T14:56:27Z</time>
      </trkpt>
      <trkpt lat="47.74619" lon="4.68725">
        <ele>339.07377400159</ele>
        <time>2018-05-26T14:56:34Z</time>
      </trkpt>
      <trkpt lat="47.7461" lon="4.68736">
        <ele>339.51762081087</ele>
        <time>2018-05-26T14:56:41Z</time>
      </trkpt>
      <trkpt lat="47.74613" lon="4.68748">
        <ele>340.06090477225</ele>
        <time>2018-05-26T14:56:48Z</time>
      </trkpt>
      <trkpt lat="47.74613" lon="4.68748">
        <ele>340.16467534444</ele>
        <time>2018-05-26T14:56:54Z</time>
      </trkpt>
      <trkpt lat="47.74613" lon="4.68748">
        <ele>340.29176696385</ele>
        <time>2018-05-26T14:57:01Z</time>
      </trkpt>
      <trkpt lat="47.74613" lon="4.68748">
        <ele>340.37774157473</ele>
        <time>2018-05-26T14:57:07Z</time>
      </trkpt>
      <trkpt lat="47.74613" lon="4.68748">
        <ele>340.60646370045</ele>
        <time>2018-05-26T14:57:14Z</time>
      </trkpt>
      <trkpt lat="47.74613" lon="4.68748">
        <ele>340.86857760174</ele>
        <time>2018-05-26T14:57:21Z</time>
      </trkpt>
      <trkpt lat="47.74613" lon="4.68748">
        <ele>340.90162422978</ele>
        <time>2018-05-26T14:57:28Z</time>
      </trkpt>
      <trkpt lat="47.74613" lon="4.68748">
        <ele>340.95700169158</ele>
        <time>2018-05-26T14:57:35Z</time>
      </trkpt>
      <trkpt lat="47.74613" lon="4.68748">
        <ele>341.08688385306</ele>
        <time>2018-05-26T14:57:41Z</time>
      </trkpt>
      <trkpt lat="47.74608" lon="4.68758">
        <ele>343.53624296906</ele>
        <time>2018-05-26T14:57:48Z</time>
      </trkpt>
      <trkpt lat="47.74605" lon="4.68764">
        <ele>344.73829850568</ele>
        <time>2018-05-26T14:57:54Z</time>
      </trkpt>
      <trkpt lat="47.746" lon="4.68774">
        <ele>345.64679585269</ele>
        <time>2018-05-26T14:58:01Z</time>
      </trkpt>
      <trkpt lat="47.74596" lon="4.68784">
        <ele>346.08619101694</ele>
        <time>2018-05-26T14:58:08Z</time>
      </trkpt>
      <trkpt lat="47.74593" lon="4.68791">
        <ele>346.52717131335</ele>
        <time>2018-05-26T14:58:14Z</time>
      </trkpt>
      <trkpt lat="47.7459" lon="4.68798">
        <ele>346.64321761112</ele>
        <time>2018-05-26T14:58:21Z</time>
      </trkpt>
      <trkpt lat="47.74588" lon="4.68807">
        <ele>347.00338405205</ele>
        <time>2018-05-26T14:58:28Z</time>
      </trkpt>
      <trkpt lat="47.74588" lon="4.68811">
        <ele>347.83907894318</ele>
        <time>2018-05-26T14:58:35Z</time>
      </trkpt>
      <trkpt lat="47.74587" lon="4.68822">
        <ele>348.95956826275</ele>
        <time>2018-05-26T14:58:41Z</time>
      </trkpt>
      <trkpt lat="47.74583" lon="4.68835">
        <ele>349.58102579098</ele>
        <time>2018-05-26T14:58:48Z</time>
      </trkpt>
      <trkpt lat="47.74577" lon="4.68848">
        <ele>350.17958633846</ele>
        <time>2018-05-26T14:58:55Z</time>
      </trkpt>
      <trkpt lat="47.74572" lon="4.68857">
        <ele>350.1552759275</ele>
        <time>2018-05-26T14:59:02Z</time>
      </trkpt>
      <trkpt lat="47.74568" lon="4.68868">
        <ele>349.82685693613</ele>
        <time>2018-05-26T14:59:09Z</time>
      </trkpt>
      <trkpt lat="47.74564" lon="4.68878">
        <ele>349.84148452444</ele>
        <time>2018-05-26T14:59:16Z</time>
      </trkpt>
      <trkpt lat="47.74559" lon="4.68888">
        <ele>349.21035361578</ele>
        <time>2018-05-26T14:59:23Z</time>
      </trkpt>
      <trkpt lat="47.74553" lon="4.68898">
        <ele>348.69527110668</ele>
        <time>2018-05-26T14:59:30Z</time>
      </trkpt>
      <trkpt lat="47.7455" lon="4.68911">
        <ele>348.63613287257</ele>
        <time>2018-05-26T14:59:37Z</time>
      </trkpt>
      <trkpt lat="47.74549" lon="4.6892">
        <ele>349.51219413712</ele>
        <time>2018-05-26T14:59:43Z</time>
      </trkpt>
      <trkpt lat="47.74546" lon="4.68929">
        <ele>350.05821647977</ele>
        <time>2018-05-26T14:59:49Z</time>
      </trkpt>
      <trkpt lat="47.74543" lon="4.68936">
        <ele>350.34101115408</ele>
        <time>2018-05-26T14:59:56Z</time>
      </trkpt>
      <trkpt lat="47.7454" lon="4.68947">
        <ele>350.27206779389</ele>
        <time>2018-05-26T15:00:03Z</time>
      </trkpt>
      <trkpt lat="47.74537" lon="4.68955">
        <ele>349.94886202381</ele>
        <time>2018-05-26T15:00:09Z</time>
      </trkpt>
      <trkpt lat="47.74536" lon="4.6896">
        <ele>349.13749018528</ele>
        <time>2018-05-26T15:00:16Z</time>
      </trkpt>
      <trkpt lat="47.74534" lon="4.68968">
        <ele>347.93881777991</ele>
        <time>2018-05-26T15:00:23Z</time>
      </trkpt>
      <trkpt lat="47.7453" lon="4.68975">
        <ele>346.92902413702</ele>
        <time>2018-05-26T15:00:29Z</time>
      </trkpt>
      <trkpt lat="47.74527" lon="4.68983">
        <ele>345.95427436738</ele>
        <time>2018-05-26T15:00:36Z</time>
      </trkpt>
      <trkpt lat="47.74526" lon="4.68989">
        <ele>345.09706731276</ele>
        <time>2018-05-26T15:00:42Z</time>
      </trkpt>
      <trkpt lat="47.74522" lon="4.68994">
        <ele>344.56967200867</ele>
        <time>2018-05-26T15:00:48Z</time>
      </trkpt>
      <trkpt lat="47.74517" lon="4.69003">
        <ele>344.70717719809</ele>
        <time>2018-05-26T15:00:55Z</time>
      </trkpt>
      <trkpt lat="47.74512" lon="4.69011">
        <ele>344.7791879757</ele>
        <time>2018-05-26T15:01:02Z</time>
      </trkpt>
      <trkpt lat="47.74505" lon="4.69024">
        <ele>344.99353270233</ele>
        <time>2018-05-26T15:01:09Z</time>
      </trkpt>
      <trkpt lat="47.74504" lon="4.69032">
        <ele>345.44803819623</ele>
        <time>2018-05-26T15:01:16Z</time>
      </trkpt>
      <trkpt lat="47.74502" lon="4.69037">
        <ele>345.40449621265</ele>
        <time>2018-05-26T15:01:23Z</time>
      </trkpt>
      <trkpt lat="47.74495" lon="4.69045">
        <ele>346.07400113201</ele>
        <time>2018-05-26T15:01:30Z</time>
      </trkpt>
      <trkpt lat="47.7449" lon="4.69059">
        <ele>346.91587226513</ele>
        <time>2018-05-26T15:01:37Z</time>
      </trkpt>
      <trkpt lat="47.74491" lon="4.69074">
        <ele>347.33592104621</ele>
        <time>2018-05-26T15:01:44Z</time>
      </trkpt>
      <trkpt lat="47.7449" lon="4.69081">
        <ele>348.12071657949</ele>
        <time>2018-05-26T15:01:51Z</time>
      </trkpt>
      <trkpt lat="47.74491" lon="4.69087">
        <ele>348.82113124359</ele>
        <time>2018-05-26T15:01:58Z</time>
      </trkpt>
      <trkpt lat="47.74488" lon="4.69096">
        <ele>349.69263274219</ele>
        <time>2018-05-26T15:02:05Z</time>
      </trkpt>
      <trkpt lat="47.74484" lon="4.69104">
        <ele>350.18346516111</ele>
        <time>2018-05-26T15:02:11Z</time>
      </trkpt>
      <trkpt lat="47.74482" lon="4.69109">
        <ele>349.84400372056</ele>
        <time>2018-05-26T15:02:18Z</time>
      </trkpt>
      <trkpt lat="47.74481" lon="4.69113">
        <ele>349.49715792804</ele>
        <time>2018-05-26T15:02:24Z</time>
      </trkpt>
      <trkpt lat="47.74481" lon="4.69116">
        <ele>349.87291922052</ele>
        <time>2018-05-26T15:02:30Z</time>
      </trkpt>
      <trkpt lat="47.74478" lon="4.69127">
        <ele>351.22534275594</ele>
        <time>2018-05-26T15:02:37Z</time>
      </trkpt>
      <trkpt lat="47.74474" lon="4.69141">
        <ele>352.12742047862</ele>
        <time>2018-05-26T15:02:44Z</time>
      </trkpt>
      <trkpt lat="47.74473" lon="4.69155">
        <ele>352.95117918539</ele>
        <time>2018-05-26T15:02:50Z</time>
      </trkpt>
      <trkpt lat="47.7447" lon="4.69167">
        <ele>353.01733340098</ele>
        <time>2018-05-26T15:02:57Z</time>
      </trkpt>
      <trkpt lat="47.74466" lon="4.69181">
        <ele>353.17261888841</ele>
        <time>2018-05-26T15:03:03Z</time>
      </trkpt>
      <trkpt lat="47.74464" lon="4.69188">
        <ele>352.90372776365</ele>
        <time>2018-05-26T15:03:09Z</time>
      </trkpt>
      <trkpt lat="47.74462" lon="4.69199">
        <ele>352.38991860485</ele>
        <time>2018-05-26T15:03:16Z</time>
      </trkpt>
      <trkpt lat="47.74461" lon="4.69211">
        <ele>352.01496896453</ele>
        <time>2018-05-26T15:03:23Z</time>
      </trkpt>
      <trkpt lat="47.74461" lon="4.69215">
        <ele>351.57708799645</ele>
        <time>2018-05-26T15:03:29Z</time>
      </trkpt>
      <trkpt lat="47.74462" lon="4.69225">
        <ele>350.81593894467</ele>
        <time>2018-05-26T15:03:35Z</time>
      </trkpt>
      <trkpt lat="47.74462" lon="4.69232">
        <ele>349.81768427023</ele>
        <time>2018-05-26T15:03:42Z</time>
      </trkpt>
      <trkpt lat="47.74461" lon="4.69239">
        <ele>349.08761012236</ele>
        <time>2018-05-26T15:03:48Z</time>
      </trkpt>
      <trkpt lat="47.74461" lon="4.69248">
        <ele>348.39717244064</ele>
        <time>2018-05-26T15:03:54Z</time>
      </trkpt>
      <trkpt lat="47.74459" lon="4.69257">
        <ele>347.4158346496</ele>
        <time>2018-05-26T15:04:01Z</time>
      </trkpt>
      <trkpt lat="47.74461" lon="4.69265">
        <ele>346.40203800869</ele>
        <time>2018-05-26T15:04:07Z</time>
      </trkpt>
      <trkpt lat="47.74462" lon="4.69274">
        <ele>345.597856737</ele>
        <time>2018-05-26T15:04:13Z</time>
      </trkpt>
      <trkpt lat="47.74463" lon="4.69286">
        <ele>345.34032312395</ele>
        <time>2018-05-26T15:04:20Z</time>
      </trkpt>
      <trkpt lat="47.74464" lon="4.69289">
        <ele>345.50043953373</ele>
        <time>2018-05-26T15:04:26Z</time>
      </trkpt>
      <trkpt lat="47.74464" lon="4.69295">
        <ele>345.52933331043</ele>
        <time>2018-05-26T15:04:32Z</time>
      </trkpt>
      <trkpt lat="47.74464" lon="4.69295">
        <ele>345.31995374527</ele>
        <time>2018-05-26T15:04:38Z</time>
      </trkpt>
      <trkpt lat="47.74464" lon="4.69295">
        <ele>345.27151512864</ele>
        <time>2018-05-26T15:04:44Z</time>
      </trkpt>
      <trkpt lat="47.74464" lon="4.69296">
        <ele>345.53932491372</ele>
        <time>2018-05-26T15:04:51Z</time>
      </trkpt>
      <trkpt lat="47.74463" lon="4.69304">
        <ele>345.43497078698</ele>
        <time>2018-05-26T15:04:58Z</time>
      </trkpt>
      <trkpt lat="47.74464" lon="4.69311">
        <ele>345.49765082708</ele>
        <time>2018-05-26T15:05:05Z</time>
      </trkpt>
      <trkpt lat="47.74465" lon="4.69318">
        <ele>345.1598115224</ele>
        <time>2018-05-26T15:05:12Z</time>
      </trkpt>
      <trkpt lat="47.74466" lon="4.69327">
        <ele>345.04594021304</ele>
        <time>2018-05-26T15:05:19Z</time>
      </trkpt>
      <trkpt lat="47.74466" lon="4.69332">
        <ele>344.96400887985</ele>
        <time>2018-05-26T15:05:26Z</time>
      </trkpt>
      <trkpt lat="47.74466" lon="4.6934">
        <ele>344.86476690324</ele>
        <time>2018-05-26T15:05:32Z</time>
      </trkpt>
      <trkpt lat="47.74466" lon="4.69347">
        <ele>344.67674923249</ele>
        <time>2018-05-26T15:05:38Z</time>
      </trkpt>
      <trkpt lat="47.74466" lon="4.69354">
        <ele>344.16076659302</ele>
        <time>2018-05-26T15:05:44Z</time>
      </trkpt>
      <trkpt lat="47.74468" lon="4.69363">
        <ele>343.42738457972</ele>
        <time>2018-05-26T15:05:51Z</time>
      </trkpt>
      <trkpt lat="47.74469" lon="4.69372">
        <ele>343.05533552916</ele>
        <time>2018-05-26T15:05:58Z</time>
      </trkpt>
      <trkpt lat="47.74469" lon="4.69383">
        <ele>343.20618367281</ele>
        <time>2018-05-26T15:06:04Z</time>
      </trkpt>
      <trkpt lat="47.74469" lon="4.69391">
        <ele>343.37663719002</ele>
        <time>2018-05-26T15:06:11Z</time>
      </trkpt>
      <trkpt lat="47.7447" lon="4.69399">
        <ele>342.96073674904</ele>
        <time>2018-05-26T15:06:17Z</time>
      </trkpt>
      <trkpt lat="47.74471" lon="4.69407">
        <ele>342.05583269684</ele>
        <time>2018-05-26T15:06:23Z</time>
      </trkpt>
      <trkpt lat="47.74474" lon="4.69413">
        <ele>341.66336402455</ele>
        <time>2018-05-26T15:06:30Z</time>
      </trkpt>
      <trkpt lat="47.74473" lon="4.69417">
        <ele>341.14428196728</ele>
        <time>2018-05-26T15:06:37Z</time>
      </trkpt>
      <trkpt lat="47.7447" lon="4.69423">
        <ele>340.68410047514</ele>
        <time>2018-05-26T15:06:44Z</time>
      </trkpt>
      <trkpt lat="47.74467" lon="4.69437">
        <ele>340.55764579857</ele>
        <time>2018-05-26T15:06:51Z</time>
      </trkpt>
      <trkpt lat="47.7447" lon="4.69447">
        <ele>340.53212902553</ele>
        <time>2018-05-26T15:06:58Z</time>
      </trkpt>
      <trkpt lat="47.74471" lon="4.69457">
        <ele>340.69012581901</ele>
        <time>2018-05-26T15:07:05Z</time>
      </trkpt>
      <trkpt lat="47.74469" lon="4.69465">
        <ele>340.77161728246</ele>
        <time>2018-05-26T15:07:12Z</time>
      </trkpt>
      <trkpt lat="47.74469" lon="4.69473">
        <ele>340.86895170731</ele>
        <time>2018-05-26T15:07:18Z</time>
      </trkpt>
      <trkpt lat="47.74469" lon="4.6948">
        <ele>340.77832336349</ele>
        <time>2018-05-26T15:07:25Z</time>
      </trkpt>
      <trkpt lat="47.74469" lon="4.69487">
        <ele>340.90187727621</ele>
        <time>2018-05-26T15:07:31Z</time>
      </trkpt>
      <trkpt lat="47.74471" lon="4.69498">
        <ele>341.3606276123</ele>
        <time>2018-05-26T15:07:38Z</time>
      </trkpt>
      <trkpt lat="47.7447" lon="4.69504">
        <ele>341.42518191988</ele>
        <time>2018-05-26T15:07:44Z</time>
      </trkpt>
      <trkpt lat="47.74468" lon="4.69511">
        <ele>341.35202141575</ele>
        <time>2018-05-26T15:07:51Z</time>
      </trkpt>
      <trkpt lat="47.74466" lon="4.69519">
        <ele>341.46892956311</ele>
        <time>2018-05-26T15:07:57Z</time>
      </trkpt>
      <trkpt lat="47.74468" lon="4.69528">
        <ele>341.37895200853</ele>
        <time>2018-05-26T15:08:04Z</time>
      </trkpt>
      <trkpt lat="47.74466" lon="4.69536">
        <ele>341.26948228119</ele>
        <time>2018-05-26T15:08:10Z</time>
      </trkpt>
      <trkpt lat="47.74465" lon="4.6954">
        <ele>341.21010370297</ele>
        <time>2018-05-26T15:08:16Z</time>
      </trkpt>
      <trkpt lat="47.7446" lon="4.69548">
        <ele>340.73052005671</ele>
        <time>2018-05-26T15:08:23Z</time>
      </trkpt>
      <trkpt lat="47.74457" lon="4.69556">
        <ele>340.55914494995</ele>
        <time>2018-05-26T15:08:29Z</time>
      </trkpt>
      <trkpt lat="47.74456" lon="4.69566">
        <ele>340.1081630208</ele>
        <time>2018-05-26T15:08:36Z</time>
      </trkpt>
      <trkpt lat="47.74451" lon="4.69575">
        <ele>340.13580107363</ele>
        <time>2018-05-26T15:08:43Z</time>
      </trkpt>
      <trkpt lat="47.74447" lon="4.69584">
        <ele>340.6610898914</ele>
        <time>2018-05-26T15:08:50Z</time>
      </trkpt>
      <trkpt lat="47.74444" lon="4.69591">
        <ele>341.0455255167</ele>
        <time>2018-05-26T15:08:57Z</time>
      </trkpt>
      <trkpt lat="47.74438" lon="4.69599">
        <ele>341.09947657079</ele>
        <time>2018-05-26T15:09:04Z</time>
      </trkpt>
      <trkpt lat="47.74434" lon="4.69603">
        <ele>341.63827674578</ele>
        <time>2018-05-26T15:09:11Z</time>
      </trkpt>
      <trkpt lat="47.74428" lon="4.6961">
        <ele>342.56521890107</ele>
        <time>2018-05-26T15:09:18Z</time>
      </trkpt>
      <trkpt lat="47.74422" lon="4.69617">
        <ele>343.35619369512</ele>
        <time>2018-05-26T15:09:25Z</time>
      </trkpt>
      <trkpt lat="47.74421" lon="4.69621">
        <ele>344.0791788789</ele>
        <time>2018-05-26T15:09:32Z</time>
      </trkpt>
      <trkpt lat="47.74414" lon="4.69626">
        <ele>345.30985223617</ele>
        <time>2018-05-26T15:09:39Z</time>
      </trkpt>
      <trkpt lat="47.74408" lon="4.69632">
        <ele>345.92672793514</ele>
        <time>2018-05-26T15:09:46Z</time>
      </trkpt>
      <trkpt lat="47.74401" lon="4.69639">
        <ele>346.42424723576</ele>
        <time>2018-05-26T15:09:53Z</time>
      </trkpt>
      <trkpt lat="47.74397" lon="4.69643">
        <ele>346.78822729427</ele>
        <time>2018-05-26T15:09:59Z</time>
      </trkpt>
      <trkpt lat="47.74393" lon="4.6965">
        <ele>346.63255987715</ele>
        <time>2018-05-26T15:10:06Z</time>
      </trkpt>
      <trkpt lat="47.74392" lon="4.69651">
        <ele>346.53840071252</ele>
        <time>2018-05-26T15:10:12Z</time>
      </trkpt>
      <trkpt lat="47.74389" lon="4.69653">
        <ele>346.49379567557</ele>
        <time>2018-05-26T15:10:18Z</time>
      </trkpt>
      <trkpt lat="47.74384" lon="4.69659">
        <ele>345.87175732741</ele>
        <time>2018-05-26T15:10:25Z</time>
      </trkpt>
      <trkpt lat="47.74384" lon="4.69659">
        <ele>346.02994553273</ele>
        <time>2018-05-26T15:10:32Z</time>
      </trkpt>
      <trkpt lat="47.74384" lon="4.69659">
        <ele>346.95365123013</ele>
        <time>2018-05-26T15:10:39Z</time>
      </trkpt>
      <trkpt lat="47.7438" lon="4.69665">
        <ele>348.52111665911</ele>
        <time>2018-05-26T15:10:45Z</time>
      </trkpt>
      <trkpt lat="47.74376" lon="4.69671">
        <ele>348.75852912823</ele>
        <time>2018-05-26T15:10:52Z</time>
      </trkpt>
      <trkpt lat="47.74372" lon="4.69676">
        <ele>348.53720689872</ele>
        <time>2018-05-26T15:10:59Z</time>
      </trkpt>
      <trkpt lat="47.74369" lon="4.69681">
        <ele>348.4998094669</ele>
        <time>2018-05-26T15:11:05Z</time>
      </trkpt>
      <trkpt lat="47.74367" lon="4.69683">
        <ele>349.12838719755</ele>
        <time>2018-05-26T15:11:12Z</time>
      </trkpt>
      <trkpt lat="47.74359" lon="4.69689">
        <ele>349.48978944818</ele>
        <time>2018-05-26T15:11:19Z</time>
      </trkpt>
      <trkpt lat="47.74353" lon="4.69697">
        <ele>349.59119579235</ele>
        <time>2018-05-26T15:11:26Z</time>
      </trkpt>
      <trkpt lat="47.74347" lon="4.69704">
        <ele>349.62714762389</ele>
        <time>2018-05-26T15:11:32Z</time>
      </trkpt>
      <trkpt lat="47.74342" lon="4.6971">
        <ele>349.58344863111</ele>
        <time>2018-05-26T15:11:39Z</time>
      </trkpt>
      <trkpt lat="47.74339" lon="4.69714">
        <ele>349.4250117482</ele>
        <time>2018-05-26T15:11:46Z</time>
      </trkpt>
      <trkpt lat="47.74333" lon="4.69718">
        <ele>348.74879452284</ele>
        <time>2018-05-26T15:11:53Z</time>
      </trkpt>
      <trkpt lat="47.74328" lon="4.69722">
        <ele>348.44164524666</ele>
        <time>2018-05-26T15:12:00Z</time>
      </trkpt>
      <trkpt lat="47.74323" lon="4.69722">
        <ele>347.87545563889</ele>
        <time>2018-05-26T15:12:06Z</time>
      </trkpt>
      <trkpt lat="47.74318" lon="4.69723">
        <ele>347.08730144098</ele>
        <time>2018-05-26T15:12:13Z</time>
      </trkpt>
      <trkpt lat="47.74312" lon="4.69721">
        <ele>346.18995309636</ele>
        <time>2018-05-26T15:12:20Z</time>
      </trkpt>
      <trkpt lat="47.74312" lon="4.69723">
        <ele>346.03281234109</ele>
        <time>2018-05-26T15:12:26Z</time>
      </trkpt>
      <trkpt lat="47.74312" lon="4.69725">
        <ele>346.09231411636</ele>
        <time>2018-05-26T15:12:33Z</time>
      </trkpt>
      <trkpt lat="47.74312" lon="4.69725">
        <ele>346.14220628101</ele>
        <time>2018-05-26T15:12:39Z</time>
      </trkpt>
      <trkpt lat="47.74312" lon="4.69725">
        <ele>346.28126522371</ele>
        <time>2018-05-26T15:12:46Z</time>
      </trkpt>
      <trkpt lat="47.74312" lon="4.69725">
        <ele>346.3497541266</ele>
        <time>2018-05-26T15:12:53Z</time>
      </trkpt>
      <trkpt lat="47.74312" lon="4.69725">
        <ele>346.22717657235</ele>
        <time>2018-05-26T15:13:00Z</time>
      </trkpt>
      <trkpt lat="47.74312" lon="4.69725">
        <ele>345.99385970055</ele>
        <time>2018-05-26T15:13:07Z</time>
      </trkpt>
      <trkpt lat="47.74312" lon="4.69725">
        <ele>345.82754127326</ele>
        <time>2018-05-26T15:13:14Z</time>
      </trkpt>
      <trkpt lat="47.74312" lon="4.69725">
        <ele>345.74184369011</ele>
        <time>2018-05-26T15:13:20Z</time>
      </trkpt>
      <trkpt lat="47.74312" lon="4.69725">
        <ele>345.73514703352</ele>
        <time>2018-05-26T15:13:26Z</time>
      </trkpt>
      <trkpt lat="47.74312" lon="4.69725">
        <ele>345.75797605573</ele>
        <time>2018-05-26T15:13:33Z</time>
      </trkpt>
      <trkpt lat="47.74312" lon="4.69725">
        <ele>345.80445766509</ele>
        <time>2018-05-26T15:13:39Z</time>
      </trkpt>
      <trkpt lat="47.74312" lon="4.69725">
        <ele>345.75428401985</ele>
        <time>2018-05-26T15:13:46Z</time>
      </trkpt>
      <trkpt lat="47.74312" lon="4.69725">
        <ele>345.64866455679</ele>
        <time>2018-05-26T15:13:53Z</time>
      </trkpt>
      <trkpt lat="47.74312" lon="4.69725">
        <ele>345.50320531253</ele>
        <time>2018-05-26T15:14:00Z</time>
      </trkpt>
      <trkpt lat="47.74312" lon="4.69725">
        <ele>345.42030439459</ele>
        <time>2018-05-26T15:14:07Z</time>
      </trkpt>
      <trkpt lat="47.74312" lon="4.69725">
        <ele>345.18595335872</ele>
        <time>2018-05-26T15:14:13Z</time>
      </trkpt>
      <trkpt lat="47.74311" lon="4.69724">
        <ele>344.21439241327</ele>
        <time>2018-05-26T15:14:19Z</time>
      </trkpt>
      <trkpt lat="47.74311" lon="4.69724">
        <ele>344.1301950649</ele>
        <time>2018-05-26T15:14:26Z</time>
      </trkpt>
      <trkpt lat="47.74311" lon="4.69725">
        <ele>343.94153113116</ele>
        <time>2018-05-26T15:14:33Z</time>
      </trkpt>
      <trkpt lat="47.74311" lon="4.69725">
        <ele>343.78354209588</ele>
        <time>2018-05-26T15:14:38Z</time>
      </trkpt>
      <trkpt lat="47.74311" lon="4.69725">
        <ele>343.48421866443</ele>
        <time>2018-05-26T15:14:44Z</time>
      </trkpt>
      <trkpt lat="47.74309" lon="4.69726">
        <ele>343.55515498815</ele>
        <time>2018-05-26T15:14:51Z</time>
      </trkpt>
      <trkpt lat="47.74309" lon="4.69726">
        <ele>343.61105713878</ele>
        <time>2018-05-26T15:14:58Z</time>
      </trkpt>
      <trkpt lat="47.74309" lon="4.69726">
        <ele>343.36383425786</ele>
        <time>2018-05-26T15:15:04Z</time>
      </trkpt>
      <trkpt lat="47.74309" lon="4.69726">
        <ele>343.0960354946</ele>
        <time>2018-05-26T15:15:10Z</time>
      </trkpt>
      <trkpt lat="47.74306" lon="4.69725">
        <ele>342.55752148419</ele>
        <time>2018-05-26T15:15:17Z</time>
      </trkpt>
      <trkpt lat="47.74297" lon="4.69726">
        <ele>343.17446004492</ele>
        <time>2018-05-26T15:15:24Z</time>
      </trkpt>
      <trkpt lat="47.7429" lon="4.69726">
        <ele>344.49307418793</ele>
        <time>2018-05-26T15:15:30Z</time>
      </trkpt>
      <trkpt lat="47.74283" lon="4.69726">
        <ele>345.4816984466</ele>
        <time>2018-05-26T15:15:37Z</time>
      </trkpt>
      <trkpt lat="47.74283" lon="4.69725">
        <ele>346.1651599228</ele>
        <time>2018-05-26T15:15:44Z</time>
      </trkpt>
      <trkpt lat="47.74279" lon="4.69725">
        <ele>346.53881651495</ele>
        <time>2018-05-26T15:15:51Z</time>
      </trkpt>
      <trkpt lat="47.74279" lon="4.69725">
        <ele>346.50718710534</ele>
        <time>2018-05-26T15:15:58Z</time>
      </trkpt>
      <trkpt lat="47.74277" lon="4.69724">
        <ele>346.73022657723</ele>
        <time>2018-05-26T15:16:05Z</time>
      </trkpt>
      <trkpt lat="47.74273" lon="4.69725">
        <ele>346.60688715526</ele>
        <time>2018-05-26T15:16:11Z</time>
      </trkpt>
      <trkpt lat="47.74266" lon="4.69729">
        <ele>346.84850337404</ele>
        <time>2018-05-26T15:16:18Z</time>
      </trkpt>
      <trkpt lat="47.74263" lon="4.69731">
        <ele>347.27636581873</ele>
        <time>2018-05-26T15:16:24Z</time>
      </trkpt>
      <trkpt lat="47.74255" lon="4.69737">
        <ele>348.25381706038</ele>
        <time>2018-05-26T15:16:31Z</time>
      </trkpt>
      <trkpt lat="47.74247" lon="4.69742">
        <ele>349.35305673218</ele>
        <time>2018-05-26T15:16:38Z</time>
      </trkpt>
      <trkpt lat="47.74245" lon="4.69745">
        <ele>350.21831551597</ele>
        <time>2018-05-26T15:16:45Z</time>
      </trkpt>
      <trkpt lat="47.74243" lon="4.69746">
        <ele>350.79969746539</ele>
        <time>2018-05-26T15:16:51Z</time>
      </trkpt>
      <trkpt lat="47.74242" lon="4.69746">
        <ele>350.58506899266</ele>
        <time>2018-05-26T15:16:58Z</time>
      </trkpt>
      <trkpt lat="47.74239" lon="4.69747">
        <ele>350.9881300031</ele>
        <time>2018-05-26T15:17:04Z</time>
      </trkpt>
      <trkpt lat="47.74234" lon="4.6975">
        <ele>351.81724629416</ele>
        <time>2018-05-26T15:17:10Z</time>
      </trkpt>
      <trkpt lat="47.74225" lon="4.69754">
        <ele>352.54452858127</ele>
        <time>2018-05-26T15:17:17Z</time>
      </trkpt>
      <trkpt lat="47.7422" lon="4.69761">
        <ele>352.11935921525</ele>
        <time>2018-05-26T15:17:24Z</time>
      </trkpt>
      <trkpt lat="47.74215" lon="4.69771">
        <ele>350.9082594018</ele>
        <time>2018-05-26T15:17:31Z</time>
      </trkpt>
      <trkpt lat="47.74209" lon="4.69776">
        <ele>349.90430585718</ele>
        <time>2018-05-26T15:17:38Z</time>
      </trkpt>
      <trkpt lat="47.74206" lon="4.69786">
        <ele>349.23687663541</ele>
        <time>2018-05-26T15:17:45Z</time>
      </trkpt>
      <trkpt lat="47.74205" lon="4.69796">
        <ele>348.89367437499</ele>
        <time>2018-05-26T15:17:52Z</time>
      </trkpt>
      <trkpt lat="47.74202" lon="4.69804">
        <ele>348.64244323284</ele>
        <time>2018-05-26T15:17:58Z</time>
      </trkpt>
      <trkpt lat="47.74198" lon="4.69813">
        <ele>348.66700390716</ele>
        <time>2018-05-26T15:18:05Z</time>
      </trkpt>
      <trkpt lat="47.74196" lon="4.69822">
        <ele>349.03302129684</ele>
        <time>2018-05-26T15:18:11Z</time>
      </trkpt>
      <trkpt lat="47.74194" lon="4.69829">
        <ele>349.00009508942</ele>
        <time>2018-05-26T15:18:18Z</time>
      </trkpt>
      <trkpt lat="47.74194" lon="4.6984">
        <ele>349.10222834113</ele>
        <time>2018-05-26T15:18:25Z</time>
      </trkpt>
      <trkpt lat="47.74194" lon="4.69852">
        <ele>348.99238652002</ele>
        <time>2018-05-26T15:18:32Z</time>
      </trkpt>
      <trkpt lat="47.74193" lon="4.69862">
        <ele>348.77888193094</ele>
        <time>2018-05-26T15:18:38Z</time>
      </trkpt>
      <trkpt lat="47.74193" lon="4.69872">
        <ele>348.71431765454</ele>
        <time>2018-05-26T15:18:45Z</time>
      </trkpt>
      <trkpt lat="47.74192" lon="4.69881">
        <ele>349.00819954163</ele>
        <time>2018-05-26T15:18:52Z</time>
      </trkpt>
      <trkpt lat="47.74192" lon="4.69884">
        <ele>349.5545977723</ele>
        <time>2018-05-26T15:18:58Z</time>
      </trkpt>
      <trkpt lat="47.74192" lon="4.69884">
        <ele>349.74276701804</ele>
        <time>2018-05-26T15:19:04Z</time>
      </trkpt>
      <trkpt lat="47.74192" lon="4.69884">
        <ele>349.68923998888</ele>
        <time>2018-05-26T15:19:10Z</time>
      </trkpt>
      <trkpt lat="47.74192" lon="4.69884">
        <ele>349.71890257683</ele>
        <time>2018-05-26T15:19:16Z</time>
      </trkpt>
      <trkpt lat="47.74192" lon="4.69884">
        <ele>349.72215887045</ele>
        <time>2018-05-26T15:19:23Z</time>
      </trkpt>
      <trkpt lat="47.74193" lon="4.69886">
        <ele>349.76445845451</ele>
        <time>2018-05-26T15:19:30Z</time>
      </trkpt>
      <trkpt lat="47.74191" lon="4.69885">
        <ele>350.07458511304</ele>
        <time>2018-05-26T15:19:37Z</time>
      </trkpt>
      <trkpt lat="47.74191" lon="4.69886">
        <ele>350.09829049537</ele>
        <time>2018-05-26T15:19:44Z</time>
      </trkpt>
      <trkpt lat="47.74191" lon="4.69886">
        <ele>349.95961015551</ele>
        <time>2018-05-26T15:19:50Z</time>
      </trkpt>
      <trkpt lat="47.74196" lon="4.6989">
        <ele>349.65872310271</ele>
        <time>2018-05-26T15:19:57Z</time>
      </trkpt>
      <trkpt lat="47.74196" lon="4.6989">
        <ele>349.60387236541</ele>
        <time>2018-05-26T15:20:04Z</time>
      </trkpt>
      <trkpt lat="47.74198" lon="4.69892">
        <ele>349.46161938968</ele>
        <time>2018-05-26T15:20:11Z</time>
      </trkpt>
      <trkpt lat="47.74202" lon="4.69901">
        <ele>348.61535213648</ele>
        <time>2018-05-26T15:20:18Z</time>
      </trkpt>
      <trkpt lat="47.74202" lon="4.69901">
        <ele>348.59984026736</ele>
        <time>2018-05-26T15:20:24Z</time>
      </trkpt>
      <trkpt lat="47.74202" lon="4.69901">
        <ele>349.06433886504</ele>
        <time>2018-05-26T15:20:31Z</time>
      </trkpt>
      <trkpt lat="47.74202" lon="4.69904">
        <ele>349.32787753082</ele>
        <time>2018-05-26T15:20:37Z</time>
      </trkpt>
      <trkpt lat="47.742" lon="4.69903">
        <ele>348.96951954516</ele>
        <time>2018-05-26T15:20:44Z</time>
      </trkpt>
      <trkpt lat="47.74202" lon="4.69907">
        <ele>346.94492790298</ele>
        <time>2018-05-26T15:20:51Z</time>
      </trkpt>
      <trkpt lat="47.74204" lon="4.69909">
        <ele>346.52250363541</ele>
        <time>2018-05-26T15:20:57Z</time>
      </trkpt>
      <trkpt lat="47.74205" lon="4.69919">
        <ele>345.95809169087</ele>
        <time>2018-05-26T15:21:04Z</time>
      </trkpt>
      <trkpt lat="47.74206" lon="4.69924">
        <ele>345.43293887387</ele>
        <time>2018-05-26T15:21:11Z</time>
      </trkpt>
      <trkpt lat="47.74214" lon="4.69933">
        <ele>345.62167756459</ele>
        <time>2018-05-26T15:21:18Z</time>
      </trkpt>
      <trkpt lat="47.74218" lon="4.69942">
        <ele>345.86191734036</ele>
        <time>2018-05-26T15:21:25Z</time>
      </trkpt>
      <trkpt lat="47.7422" lon="4.69948">
        <ele>346.42947856876</ele>
        <time>2018-05-26T15:21:32Z</time>
      </trkpt>
      <trkpt lat="47.74221" lon="4.69953">
        <ele>346.33459140399</ele>
        <time>2018-05-26T15:21:39Z</time>
      </trkpt>
      <trkpt lat="47.7422" lon="4.69954">
        <ele>346.4469360537</ele>
        <time>2018-05-26T15:21:46Z</time>
      </trkpt>
      <trkpt lat="47.7422" lon="4.69953">
        <ele>346.24629224051</ele>
        <time>2018-05-26T15:21:52Z</time>
      </trkpt>
      <trkpt lat="47.74221" lon="4.69953">
        <ele>346.31617662813</ele>
        <time>2018-05-26T15:21:59Z</time>
      </trkpt>
      <trkpt lat="47.74226" lon="4.69962">
        <ele>346.09144553369</ele>
        <time>2018-05-26T15:22:06Z</time>
      </trkpt>
      <trkpt lat="47.74229" lon="4.69968">
        <ele>346.14696128537</ele>
        <time>2018-05-26T15:22:12Z</time>
      </trkpt>
      <trkpt lat="47.74231" lon="4.69971">
        <ele>346.41390444306</ele>
        <time>2018-05-26T15:22:19Z</time>
      </trkpt>
      <trkpt lat="47.74232" lon="4.6997">
        <ele>346.55377086756</ele>
        <time>2018-05-26T15:22:25Z</time>
      </trkpt>
      <trkpt lat="47.74233" lon="4.69971">
        <ele>346.04479977834</ele>
        <time>2018-05-26T15:22:32Z</time>
      </trkpt>
      <trkpt lat="47.74233" lon="4.69977">
        <ele>346.33894649291</ele>
        <time>2018-05-26T15:22:39Z</time>
      </trkpt>
      <trkpt lat="47.74234" lon="4.6998">
        <ele>346.62688627718</ele>
        <time>2018-05-26T15:22:45Z</time>
      </trkpt>
      <trkpt lat="47.74234" lon="4.69982">
        <ele>346.85298172556</ele>
        <time>2018-05-26T15:22:51Z</time>
      </trkpt>
      <trkpt lat="47.74235" lon="4.69994">
        <ele>346.98857229191</ele>
        <time>2018-05-26T15:22:58Z</time>
      </trkpt>
      <trkpt lat="47.74242" lon="4.70026">
        <ele>347.40926367295</ele>
        <time>2018-05-26T15:23:05Z</time>
      </trkpt>
      <trkpt lat="47.74243" lon="4.70032">
        <ele>348.09387390702</ele>
        <time>2018-05-26T15:23:12Z</time>
      </trkpt>
      <trkpt lat="47.74242" lon="4.70035">
        <ele>348.6994545909</ele>
        <time>2018-05-26T15:23:18Z</time>
      </trkpt>
      <trkpt lat="47.74241" lon="4.70036">
        <ele>348.98855573656</ele>
        <time>2018-05-26T15:23:24Z</time>
      </trkpt>
      <trkpt lat="47.74239" lon="4.70041">
        <ele>349.23624527671</ele>
        <time>2018-05-26T15:23:31Z</time>
      </trkpt>
      <trkpt lat="47.74238" lon="4.70044">
        <ele>349.65503710181</ele>
        <time>2018-05-26T15:23:37Z</time>
      </trkpt>
      <trkpt lat="47.74236" lon="4.70049">
        <ele>350.11384022934</ele>
        <time>2018-05-26T15:23:43Z</time>
      </trkpt>
      <trkpt lat="47.74238" lon="4.70053">
        <ele>350.43918420874</ele>
        <time>2018-05-26T15:23:50Z</time>
      </trkpt>
      <trkpt lat="47.74238" lon="4.70056">
        <ele>351.05582491476</ele>
        <time>2018-05-26T15:23:57Z</time>
      </trkpt>
      <trkpt lat="47.74237" lon="4.70056">
        <ele>351.03225283925</ele>
        <time>2018-05-26T15:24:04Z</time>
      </trkpt>
      <trkpt lat="47.74239" lon="4.70057">
        <ele>350.92790230234</ele>
        <time>2018-05-26T15:24:11Z</time>
      </trkpt>
      <trkpt lat="47.7424" lon="4.70057">
        <ele>350.84329731635</ele>
        <time>2018-05-26T15:24:18Z</time>
      </trkpt>
      <trkpt lat="47.74239" lon="4.70058">
        <ele>350.9430861664</ele>
        <time>2018-05-26T15:24:24Z</time>
      </trkpt>
      <trkpt lat="47.74235" lon="4.70064">
        <ele>350.85973090244</ele>
        <time>2018-05-26T15:24:30Z</time>
      </trkpt>
      <trkpt lat="47.74231" lon="4.70073">
        <ele>350.69984445201</ele>
        <time>2018-05-26T15:24:37Z</time>
      </trkpt>
      <trkpt lat="47.74226" lon="4.70079">
        <ele>350.68837664715</ele>
        <time>2018-05-26T15:24:44Z</time>
      </trkpt>
      <trkpt lat="47.74225" lon="4.70084">
        <ele>350.64645281024</ele>
        <time>2018-05-26T15:24:51Z</time>
      </trkpt>
      <trkpt lat="47.74223" lon="4.70091">
        <ele>350.55538725688</ele>
        <time>2018-05-26T15:24:57Z</time>
      </trkpt>
      <trkpt lat="47.74219" lon="4.70098">
        <ele>350.31603220488</ele>
        <time>2018-05-26T15:25:03Z</time>
      </trkpt>
      <trkpt lat="47.74217" lon="4.70107">
        <ele>350.94229285951</ele>
        <time>2018-05-26T15:25:10Z</time>
      </trkpt>
      <trkpt lat="47.74217" lon="4.7012">
        <ele>351.10047464779</ele>
        <time>2018-05-26T15:25:17Z</time>
      </trkpt>
      <trkpt lat="47.74216" lon="4.70127">
        <ele>351.89133033252</ele>
        <time>2018-05-26T15:25:24Z</time>
      </trkpt>
      <trkpt lat="47.74218" lon="4.70132">
        <ele>352.50363350764</ele>
        <time>2018-05-26T15:25:31Z</time>
      </trkpt>
      <trkpt lat="47.74216" lon="4.7014">
        <ele>352.59227259415</ele>
        <time>2018-05-26T15:25:38Z</time>
      </trkpt>
      <trkpt lat="47.74216" lon="4.70147">
        <ele>352.37263956474</ele>
        <time>2018-05-26T15:25:44Z</time>
      </trkpt>
      <trkpt lat="47.74216" lon="4.70154">
        <ele>352.23736467844</ele>
        <time>2018-05-26T15:25:50Z</time>
      </trkpt>
      <trkpt lat="47.74215" lon="4.70162">
        <ele>352.20258767149</ele>
        <time>2018-05-26T15:25:57Z</time>
      </trkpt>
      <trkpt lat="47.74217" lon="4.7017">
        <ele>352.30995102145</ele>
        <time>2018-05-26T15:26:04Z</time>
      </trkpt>
      <trkpt lat="47.7422" lon="4.7018">
        <ele>352.21626522562</ele>
        <time>2018-05-26T15:26:11Z</time>
      </trkpt>
      <trkpt lat="47.74221" lon="4.70186">
        <ele>352.10486644087</ele>
        <time>2018-05-26T15:26:17Z</time>
      </trkpt>
      <trkpt lat="47.7422" lon="4.70192">
        <ele>351.60606797289</ele>
        <time>2018-05-26T15:26:24Z</time>
      </trkpt>
      <trkpt lat="47.74221" lon="4.70196">
        <ele>351.5498903976</ele>
        <time>2018-05-26T15:26:31Z</time>
      </trkpt>
      <trkpt lat="47.74224" lon="4.70199">
        <ele>351.44390625215</ele>
        <time>2018-05-26T15:26:37Z</time>
      </trkpt>
      <trkpt lat="47.74229" lon="4.702">
        <ele>351.14995349515</ele>
        <time>2018-05-26T15:26:44Z</time>
      </trkpt>
      <trkpt lat="47.7423" lon="4.70201">
        <ele>351.07929005906</ele>
        <time>2018-05-26T15:26:51Z</time>
      </trkpt>
      <trkpt lat="47.7423" lon="4.702">
        <ele>351.10149074801</ele>
        <time>2018-05-26T15:26:58Z</time>
      </trkpt>
      <trkpt lat="47.7423" lon="4.702">
        <ele>351.10524726861</ele>
        <time>2018-05-26T15:27:04Z</time>
      </trkpt>
      <trkpt lat="47.74231" lon="4.70201">
        <ele>351.03882183929</ele>
        <time>2018-05-26T15:27:10Z</time>
      </trkpt>
      <trkpt lat="47.74232" lon="4.70201">
        <ele>350.95703184189</ele>
        <time>2018-05-26T15:27:17Z</time>
      </trkpt>
      <trkpt lat="47.74232" lon="4.702">
        <ele>350.72965602685</ele>
        <time>2018-05-26T15:27:24Z</time>
      </trkpt>
      <trkpt lat="47.74231" lon="4.70201">
        <ele>350.68953718183</ele>
        <time>2018-05-26T15:27:30Z</time>
      </trkpt>
      <trkpt lat="47.74231" lon="4.70202">
        <ele>350.6798364954</ele>
        <time>2018-05-26T15:27:37Z</time>
      </trkpt>
      <trkpt lat="47.7423" lon="4.70203">
        <ele>350.67950849591</ele>
        <time>2018-05-26T15:27:44Z</time>
      </trkpt>
      <trkpt lat="47.7423" lon="4.70204">
        <ele>350.62781765848</ele>
        <time>2018-05-26T15:27:51Z</time>
      </trkpt>
      <trkpt lat="47.74232" lon="4.70213">
        <ele>351.08791703965</ele>
        <time>2018-05-26T15:27:58Z</time>
      </trkpt>
      <trkpt lat="47.74236" lon="4.70217">
        <ele>351.51561355223</ele>
        <time>2018-05-26T15:28:05Z</time>
      </trkpt>
      <trkpt lat="47.74239" lon="4.70219">
        <ele>351.74708977621</ele>
        <time>2018-05-26T15:28:12Z</time>
      </trkpt>
      <trkpt lat="47.74242" lon="4.70225">
        <ele>351.21755750032</ele>
        <time>2018-05-26T15:28:19Z</time>
      </trkpt>
      <trkpt lat="47.74244" lon="4.7023">
        <ele>350.70843796282</ele>
        <time>2018-05-26T15:28:25Z</time>
      </trkpt>
      <trkpt lat="47.74245" lon="4.70233">
        <ele>350.72608807542</ele>
        <time>2018-05-26T15:28:32Z</time>
      </trkpt>
      <trkpt lat="47.74248" lon="4.70235">
        <ele>350.91767148727</ele>
        <time>2018-05-26T15:28:38Z</time>
      </trkpt>
      <trkpt lat="47.74254" lon="4.70237">
        <ele>351.10343673178</ele>
        <time>2018-05-26T15:28:44Z</time>
      </trkpt>
      <trkpt lat="47.7426" lon="4.7024">
        <ele>351.44440632675</ele>
        <time>2018-05-26T15:28:50Z</time>
      </trkpt>
      <trkpt lat="47.74262" lon="4.70244">
        <ele>351.61822179219</ele>
        <time>2018-05-26T15:28:57Z</time>
      </trkpt>
      <trkpt lat="47.74263" lon="4.70245">
        <ele>351.47205171251</ele>
        <time>2018-05-26T15:29:04Z</time>
      </trkpt>
      <trkpt lat="47.74267" lon="4.70248">
        <ele>351.38223447324</ele>
        <time>2018-05-26T15:29:11Z</time>
      </trkpt>
      <trkpt lat="47.74268" lon="4.70247">
        <ele>351.4383045184</ele>
        <time>2018-05-26T15:29:18Z</time>
      </trkpt>
      <trkpt lat="47.74269" lon="4.70246">
        <ele>351.4936904313</ele>
        <time>2018-05-26T15:29:25Z</time>
      </trkpt>
      <trkpt lat="47.74273" lon="4.70249">
        <ele>351.03903302036</ele>
        <time>2018-05-26T15:29:31Z</time>
      </trkpt>
      <trkpt lat="47.74274" lon="4.70251">
        <ele>350.90087581399</ele>
        <time>2018-05-26T15:29:38Z</time>
      </trkpt>
      <trkpt lat="47.74276" lon="4.70252">
        <ele>350.78133043052</ele>
        <time>2018-05-26T15:29:44Z</time>
      </trkpt>
      <trkpt lat="47.74277" lon="4.70256">
        <ele>350.48898021048</ele>
        <time>2018-05-26T15:29:51Z</time>
      </trkpt>
      <trkpt lat="47.74282" lon="4.70265">
        <ele>350.24007152341</ele>
        <time>2018-05-26T15:29:58Z</time>
      </trkpt>
      <trkpt lat="47.74285" lon="4.70269">
        <ele>350.44207435617</ele>
        <time>2018-05-26T15:30:05Z</time>
      </trkpt>
      <trkpt lat="47.74286" lon="4.7027">
        <ele>350.58898870858</ele>
        <time>2018-05-26T15:30:12Z</time>
      </trkpt>
      <trkpt lat="47.74286" lon="4.7027">
        <ele>350.48158481217</ele>
        <time>2018-05-26T15:30:18Z</time>
      </trkpt>
      <trkpt lat="47.74286" lon="4.7027">
        <ele>350.53026565344</ele>
        <time>2018-05-26T15:30:25Z</time>
      </trkpt>
      <trkpt lat="47.74286" lon="4.70268">
        <ele>351.00969471488</ele>
        <time>2018-05-26T15:30:31Z</time>
      </trkpt>
      <trkpt lat="47.74285" lon="4.70268">
        <ele>351.05777625249</ele>
        <time>2018-05-26T15:30:38Z</time>
      </trkpt>
      <trkpt lat="47.74285" lon="4.70268">
        <ele>351.18473539109</ele>
        <time>2018-05-26T15:30:44Z</time>
      </trkpt>
      <trkpt lat="47.74285" lon="4.70269">
        <ele>351.4438952206</ele>
        <time>2018-05-26T15:30:51Z</time>
      </trkpt>
      <trkpt lat="47.74285" lon="4.70269">
        <ele>351.51726889665</ele>
        <time>2018-05-26T15:30:57Z</time>
      </trkpt>
      <trkpt lat="47.74286" lon="4.70267">
        <ele>351.57121433582</ele>
        <time>2018-05-26T15:31:04Z</time>
      </trkpt>
      <trkpt lat="47.74287" lon="4.70267">
        <ele>351.62708588528</ele>
        <time>2018-05-26T15:31:10Z</time>
      </trkpt>
      <trkpt lat="47.74287" lon="4.70267">
        <ele>351.64972803267</ele>
        <time>2018-05-26T15:31:17Z</time>
      </trkpt>
      <trkpt lat="47.74287" lon="4.70267">
        <ele>351.673346692</ele>
        <time>2018-05-26T15:31:22Z</time>
      </trkpt>
      <trkpt lat="47.74289" lon="4.70274">
        <ele>352.11718768877</ele>
        <time>2018-05-26T15:31:30Z</time>
      </trkpt>
      <trkpt lat="47.7429" lon="4.70275">
        <ele>352.15509379336</ele>
        <time>2018-05-26T15:31:36Z</time>
      </trkpt>
      <trkpt lat="47.7429" lon="4.70274">
        <ele>352.25231746887</ele>
        <time>2018-05-26T15:31:43Z</time>
      </trkpt>
      <trkpt lat="47.74291" lon="4.70275">
        <ele>352.13451973445</ele>
        <time>2018-05-26T15:31:50Z</time>
      </trkpt>
      <trkpt lat="47.74293" lon="4.70282">
        <ele>352.02994522301</ele>
        <time>2018-05-26T15:31:56Z</time>
      </trkpt>
      <trkpt lat="47.74297" lon="4.70294">
        <ele>352.11417799199</ele>
        <time>2018-05-26T15:32:02Z</time>
      </trkpt>
      <trkpt lat="47.74302" lon="4.70303">
        <ele>352.86222304082</ele>
        <time>2018-05-26T15:32:09Z</time>
      </trkpt>
      <trkpt lat="47.74305" lon="4.70309">
        <ele>352.71486745972</ele>
        <time>2018-05-26T15:32:15Z</time>
      </trkpt>
      <trkpt lat="47.74311" lon="4.70318">
        <ele>353.42983338178</ele>
        <time>2018-05-26T15:32:22Z</time>
      </trkpt>
      <trkpt lat="47.74314" lon="4.70325">
        <ele>353.94902942426</ele>
        <time>2018-05-26T15:32:28Z</time>
      </trkpt>
      <trkpt lat="47.74317" lon="4.7033">
        <ele>354.37576775625</ele>
        <time>2018-05-26T15:32:35Z</time>
      </trkpt>
      <trkpt lat="47.74316" lon="4.70327">
        <ele>354.30289583557</ele>
        <time>2018-05-26T15:32:41Z</time>
      </trkpt>
      <trkpt lat="47.74317" lon="4.70327">
        <ele>354.70734100794</ele>
        <time>2018-05-26T15:32:48Z</time>
      </trkpt>
      <trkpt lat="47.74315" lon="4.70327">
        <ele>355.14121010896</ele>
        <time>2018-05-26T15:32:55Z</time>
      </trkpt>
      <trkpt lat="47.74314" lon="4.70327">
        <ele>355.34712978065</ele>
        <time>2018-05-26T15:33:01Z</time>
      </trkpt>
      <trkpt lat="47.74314" lon="4.70328">
        <ele>355.30034908653</ele>
        <time>2018-05-26T15:33:07Z</time>
      </trkpt>
      <trkpt lat="47.74314" lon="4.70328">
        <ele>355.1962602985</ele>
        <time>2018-05-26T15:33:14Z</time>
      </trkpt>
      <trkpt lat="47.74314" lon="4.70328">
        <ele>355.2504870258</ele>
        <time>2018-05-26T15:33:21Z</time>
      </trkpt>
      <trkpt lat="47.74314" lon="4.70329">
        <ele>355.96231209901</ele>
        <time>2018-05-26T15:33:27Z</time>
      </trkpt>
      <trkpt lat="47.74317" lon="4.70331">
        <ele>356.76915067195</ele>
        <time>2018-05-26T15:33:33Z</time>
      </trkpt>
      <trkpt lat="47.74321" lon="4.70335">
        <ele>357.353221504</ele>
        <time>2018-05-26T15:33:40Z</time>
      </trkpt>
      <trkpt lat="47.74323" lon="4.70334">
        <ele>357.38781844788</ele>
        <time>2018-05-26T15:33:47Z</time>
      </trkpt>
      <trkpt lat="47.74323" lon="4.70332">
        <ele>357.4782554558</ele>
        <time>2018-05-26T15:33:53Z</time>
      </trkpt>
      <trkpt lat="47.74324" lon="4.70332">
        <ele>357.4243358339</ele>
        <time>2018-05-26T15:34:00Z</time>
      </trkpt>
      <trkpt lat="47.74324" lon="4.70332">
        <ele>357.47198797392</ele>
        <time>2018-05-26T15:34:06Z</time>
      </trkpt>
      <trkpt lat="47.74325" lon="4.70333">
        <ele>357.66822778376</ele>
        <time>2018-05-26T15:34:13Z</time>
      </trkpt>
      <trkpt lat="47.74324" lon="4.70332">
        <ele>357.28496671972</ele>
        <time>2018-05-26T15:34:19Z</time>
      </trkpt>
      <trkpt lat="47.74323" lon="4.70329">
        <ele>357.29610876813</ele>
        <time>2018-05-26T15:34:25Z</time>
      </trkpt>
      <trkpt lat="47.74323" lon="4.70329">
        <ele>357.6157578299</ele>
        <time>2018-05-26T15:34:31Z</time>
      </trkpt>
      <trkpt lat="47.74326" lon="4.70336">
        <ele>358.00345918267</ele>
        <time>2018-05-26T15:34:38Z</time>
      </trkpt>
      <trkpt lat="47.74327" lon="4.70338">
        <ele>358.13485545338</ele>
        <time>2018-05-26T15:34:44Z</time>
      </trkpt>
      <trkpt lat="47.7433" lon="4.70341">
        <ele>357.46608389471</ele>
        <time>2018-05-26T15:34:50Z</time>
      </trkpt>
      <trkpt lat="47.74332" lon="4.70344">
        <ele>357.08401130072</ele>
        <time>2018-05-26T15:34:57Z</time>
      </trkpt>
      <trkpt lat="47.74335" lon="4.70351">
        <ele>356.87600532444</ele>
        <time>2018-05-26T15:35:03Z</time>
      </trkpt>
      <trkpt lat="47.74335" lon="4.70351">
        <ele>356.9726637318</ele>
        <time>2018-05-26T15:35:10Z</time>
      </trkpt>
      <trkpt lat="47.74335" lon="4.70351">
        <ele>357.22672093652</ele>
        <time>2018-05-26T15:35:17Z</time>
      </trkpt>
      <trkpt lat="47.74336" lon="4.70352">
        <ele>359.25423542217</ele>
        <time>2018-05-26T15:35:23Z</time>
      </trkpt>
      <trkpt lat="47.74336" lon="4.70352">
        <ele>359.84925987592</ele>
        <time>2018-05-26T15:35:29Z</time>
      </trkpt>
      <trkpt lat="47.74336" lon="4.70352">
        <ele>359.93535356569</ele>
        <time>2018-05-26T15:35:35Z</time>
      </trkpt>
      <trkpt lat="47.74335" lon="4.70354">
        <ele>360.75583311667</ele>
        <time>2018-05-26T15:35:42Z</time>
      </trkpt>
      <trkpt lat="47.74335" lon="4.70354">
        <ele>360.62201541568</ele>
        <time>2018-05-26T15:35:48Z</time>
      </trkpt>
      <trkpt lat="47.74335" lon="4.70354">
        <ele>360.61199549529</ele>
        <time>2018-05-26T15:35:55Z</time>
      </trkpt>
      <trkpt lat="47.74341" lon="4.70353">
        <ele>361.26356910184</ele>
        <time>2018-05-26T15:36:01Z</time>
      </trkpt>
      <trkpt lat="47.74342" lon="4.70354">
        <ele>361.80952297748</ele>
        <time>2018-05-26T15:36:08Z</time>
      </trkpt>
      <trkpt lat="47.74342" lon="4.70354">
        <ele>362.01429263031</ele>
        <time>2018-05-26T15:36:15Z</time>
      </trkpt>
      <trkpt lat="47.74345" lon="4.70357">
        <ele>363.07175406914</ele>
        <time>2018-05-26T15:36:21Z</time>
      </trkpt>
      <trkpt lat="47.74349" lon="4.70364">
        <ele>364.43884775421</ele>
        <time>2018-05-26T15:36:28Z</time>
      </trkpt>
      <trkpt lat="47.74346" lon="4.70368">
        <ele>365.71442189646</ele>
        <time>2018-05-26T15:36:35Z</time>
      </trkpt>
      <trkpt lat="47.74343" lon="4.70371">
        <ele>366.54317650698</ele>
        <time>2018-05-26T15:36:42Z</time>
      </trkpt>
      <trkpt lat="47.74343" lon="4.70372">
        <ele>366.54205570301</ele>
        <time>2018-05-26T15:36:49Z</time>
      </trkpt>
      <trkpt lat="47.74344" lon="4.70369">
        <ele>366.16577274274</ele>
        <time>2018-05-26T15:36:56Z</time>
      </trkpt>
      <trkpt lat="47.74348" lon="4.70363">
        <ele>366.28252202947</ele>
        <time>2018-05-26T15:37:03Z</time>
      </trkpt>
      <trkpt lat="47.74351" lon="4.70368">
        <ele>366.64543227874</ele>
        <time>2018-05-26T15:37:09Z</time>
      </trkpt>
      <trkpt lat="47.74355" lon="4.70379">
        <ele>367.11053323219</ele>
        <time>2018-05-26T15:37:16Z</time>
      </trkpt>
      <trkpt lat="47.74354" lon="4.70381">
        <ele>367.22143194962</ele>
        <time>2018-05-26T15:37:22Z</time>
      </trkpt>
      <trkpt lat="47.74359" lon="4.70392">
        <ele>367.49294000712</ele>
        <time>2018-05-26T15:37:29Z</time>
      </trkpt>
      <trkpt lat="47.74364" lon="4.70397">
        <ele>367.70592431947</ele>
        <time>2018-05-26T15:37:35Z</time>
      </trkpt>
      <trkpt lat="47.74364" lon="4.70396">
        <ele>367.67921303085</ele>
        <time>2018-05-26T15:37:42Z</time>
      </trkpt>
      <trkpt lat="47.74364" lon="4.70396">
        <ele>367.7755375241</ele>
        <time>2018-05-26T15:37:49Z</time>
      </trkpt>
      <trkpt lat="47.74365" lon="4.70398">
        <ele>367.40342641857</ele>
        <time>2018-05-26T15:37:55Z</time>
      </trkpt>
      <trkpt lat="47.7437" lon="4.70405">
        <ele>368.12082681104</ele>
        <time>2018-05-26T15:38:02Z</time>
      </trkpt>
      <trkpt lat="47.74375" lon="4.70414">
        <ele>368.38852922703</ele>
        <time>2018-05-26T15:38:09Z</time>
      </trkpt>
      <trkpt lat="47.74378" lon="4.70423">
        <ele>368.46012264829</ele>
        <time>2018-05-26T15:38:16Z</time>
      </trkpt>
      <trkpt lat="47.74382" lon="4.70433">
        <ele>369.03201968748</ele>
        <time>2018-05-26T15:38:23Z</time>
      </trkpt>
      <trkpt lat="47.74386" lon="4.70442">
        <ele>369.4718675872</ele>
        <time>2018-05-26T15:38:30Z</time>
      </trkpt>
      <trkpt lat="47.74389" lon="4.70453">
        <ele>370.36484699483</ele>
        <time>2018-05-26T15:38:36Z</time>
      </trkpt>
      <trkpt lat="47.74393" lon="4.70465">
        <ele>371.55794631962</ele>
        <time>2018-05-26T15:38:43Z</time>
      </trkpt>
      <trkpt lat="47.74395" lon="4.70476">
        <ele>372.30485764533</ele>
        <time>2018-05-26T15:38:49Z</time>
      </trkpt>
      <trkpt lat="47.74396" lon="4.70484">
        <ele>373.11898167503</ele>
        <time>2018-05-26T15:38:55Z</time>
      </trkpt>
      <trkpt lat="47.744" lon="4.70488">
        <ele>373.89155136781</ele>
        <time>2018-05-26T15:39:01Z</time>
      </trkpt>
      <trkpt lat="47.74405" lon="4.70495">
        <ele>374.05270988058</ele>
        <time>2018-05-26T15:39:09Z</time>
      </trkpt>
      <trkpt lat="47.7441" lon="4.70502">
        <ele>374.2030966727</ele>
        <time>2018-05-26T15:39:16Z</time>
      </trkpt>
      <trkpt lat="47.74412" lon="4.70514">
        <ele>374.56198102448</ele>
        <time>2018-05-26T15:39:23Z</time>
      </trkpt>
      <trkpt lat="47.7441" lon="4.70523">
        <ele>375.32272601707</ele>
        <time>2018-05-26T15:39:29Z</time>
      </trkpt>
      <trkpt lat="47.74406" lon="4.70532">
        <ele>376.79738494991</ele>
        <time>2018-05-26T15:39:36Z</time>
      </trkpt>
      <trkpt lat="47.74406" lon="4.70532">
        <ele>377.28526467143</ele>
        <time>2018-05-26T15:39:42Z</time>
      </trkpt>
      <trkpt lat="47.74406" lon="4.70532">
        <ele>377.71253426229</ele>
        <time>2018-05-26T15:39:49Z</time>
      </trkpt>
      <trkpt lat="47.74406" lon="4.70532">
        <ele>377.79728954494</ele>
        <time>2018-05-26T15:39:56Z</time>
      </trkpt>
      <trkpt lat="47.74406" lon="4.70532">
        <ele>377.85453533853</ele>
        <time>2018-05-26T15:40:02Z</time>
      </trkpt>
      <trkpt lat="47.74406" lon="4.70532">
        <ele>377.86221891526</ele>
        <time>2018-05-26T15:40:09Z</time>
      </trkpt>
      <trkpt lat="47.74406" lon="4.70532">
        <ele>377.24317320197</ele>
        <time>2018-05-26T15:40:15Z</time>
      </trkpt>
      <trkpt lat="47.74406" lon="4.70532">
        <ele>376.92856106749</ele>
        <time>2018-05-26T15:40:22Z</time>
      </trkpt>
      <trkpt lat="47.74406" lon="4.70532">
        <ele>377.06955845504</ele>
        <time>2018-05-26T15:40:29Z</time>
      </trkpt>
      <trkpt lat="47.74406" lon="4.70532">
        <ele>377.325416282</ele>
        <time>2018-05-26T15:40:35Z</time>
      </trkpt>
      <trkpt lat="47.74408" lon="4.70535">
        <ele>379.27735218316</ele>
        <time>2018-05-26T15:40:42Z</time>
      </trkpt>
      <trkpt lat="47.7441" lon="4.70538">
        <ele>382.04725156371</ele>
        <time>2018-05-26T15:40:48Z</time>
      </trkpt>
      <trkpt lat="47.74413" lon="4.70538">
        <ele>383.33277911429</ele>
        <time>2018-05-26T15:40:54Z</time>
      </trkpt>
      <trkpt lat="47.74413" lon="4.70539">
        <ele>383.78682001999</ele>
        <time>2018-05-26T15:41:01Z</time>
      </trkpt>
      <trkpt lat="47.74415" lon="4.7054">
        <ele>384.29746414097</ele>
        <time>2018-05-26T15:41:08Z</time>
      </trkpt>
      <trkpt lat="47.74417" lon="4.70543">
        <ele>385.45858896145</ele>
        <time>2018-05-26T15:41:14Z</time>
      </trkpt>
      <trkpt lat="47.74416" lon="4.70543">
        <ele>386.28518873286</ele>
        <time>2018-05-26T15:41:21Z</time>
      </trkpt>
      <trkpt lat="47.74418" lon="4.70544">
        <ele>387.43724353875</ele>
        <time>2018-05-26T15:41:28Z</time>
      </trkpt>
      <trkpt lat="47.74421" lon="4.70547">
        <ele>388.64604543496</ele>
        <time>2018-05-26T15:41:34Z</time>
      </trkpt>
      <trkpt lat="47.74422" lon="4.70547">
        <ele>388.99255965041</ele>
        <time>2018-05-26T15:41:41Z</time>
      </trkpt>
      <trkpt lat="47.74425" lon="4.70548">
        <ele>389.62341515181</ele>
        <time>2018-05-26T15:41:47Z</time>
      </trkpt>
      <trkpt lat="47.74429" lon="4.70549">
        <ele>391.31980546555</ele>
        <time>2018-05-26T15:41:54Z</time>
      </trkpt>
      <trkpt lat="47.74432" lon="4.70551">
        <ele>393.00184299629</ele>
        <time>2018-05-26T15:42:00Z</time>
      </trkpt>
      <trkpt lat="47.74437" lon="4.70552">
        <ele>394.17776802164</ele>
        <time>2018-05-26T15:42:07Z</time>
      </trkpt>
      <trkpt lat="47.74437" lon="4.70552">
        <ele>395.44255531039</ele>
        <time>2018-05-26T15:42:14Z</time>
      </trkpt>
      <trkpt lat="47.74441" lon="4.70554">
        <ele>397.64546342165</ele>
        <time>2018-05-26T15:42:21Z</time>
      </trkpt>
      <trkpt lat="47.74442" lon="4.70553">
        <ele>398.48225882529</ele>
        <time>2018-05-26T15:42:28Z</time>
      </trkpt>
      <trkpt lat="47.74444" lon="4.70552">
        <ele>399.67366568502</ele>
        <time>2018-05-26T15:42:35Z</time>
      </trkpt>
      <trkpt lat="47.74451" lon="4.7055">
        <ele>400.89457038754</ele>
        <time>2018-05-26T15:42:42Z</time>
      </trkpt>
      <trkpt lat="47.74465" lon="4.70553">
        <ele>401.64732339132</ele>
        <time>2018-05-26T15:42:48Z</time>
      </trkpt>
      <trkpt lat="47.74477" lon="4.70549">
        <ele>401.73555062672</ele>
        <time>2018-05-26T15:42:55Z</time>
      </trkpt>
      <trkpt lat="47.74485" lon="4.70546">
        <ele>401.86726877302</ele>
        <time>2018-05-26T15:43:02Z</time>
      </trkpt>
      <trkpt lat="47.74487" lon="4.70545">
        <ele>401.84764011307</ele>
        <time>2018-05-26T15:43:09Z</time>
      </trkpt>
      <trkpt lat="47.74489" lon="4.70544">
        <ele>401.41341678172</ele>
        <time>2018-05-26T15:43:16Z</time>
      </trkpt>
      <trkpt lat="47.74491" lon="4.7054">
        <ele>402.03689275372</ele>
        <time>2018-05-26T15:43:22Z</time>
      </trkpt>
      <trkpt lat="47.74491" lon="4.70538">
        <ele>402.28667983009</ele>
        <time>2018-05-26T15:43:29Z</time>
      </trkpt>
      <trkpt lat="47.74491" lon="4.70535">
        <ele>403.01293957489</ele>
        <time>2018-05-26T15:43:36Z</time>
      </trkpt>
      <trkpt lat="47.74491" lon="4.70535">
        <ele>403.26074197463</ele>
        <time>2018-05-26T15:43:43Z</time>
      </trkpt>
      <trkpt lat="47.74493" lon="4.70527">
        <ele>403.84576390099</ele>
        <time>2018-05-26T15:43:50Z</time>
      </trkpt>
      <trkpt lat="47.74496" lon="4.7052">
        <ele>404.08734757118</ele>
        <time>2018-05-26T15:43:57Z</time>
      </trkpt>
      <trkpt lat="47.74497" lon="4.70519">
        <ele>404.54004810875</ele>
        <time>2018-05-26T15:44:04Z</time>
      </trkpt>
      <trkpt lat="47.74497" lon="4.70517">
        <ele>405.40282909894</ele>
        <time>2018-05-26T15:44:10Z</time>
      </trkpt>
      <trkpt lat="47.74498" lon="4.70514">
        <ele>407.00844955566</ele>
        <time>2018-05-26T15:44:17Z</time>
      </trkpt>
      <trkpt lat="47.74499" lon="4.70511">
        <ele>409.66030661457</ele>
        <time>2018-05-26T15:44:24Z</time>
      </trkpt>
      <trkpt lat="47.74505" lon="4.70501">
        <ele>410.99249038417</ele>
        <time>2018-05-26T15:44:31Z</time>
      </trkpt>
      <trkpt lat="47.74507" lon="4.70498">
        <ele>411.64808023409</ele>
        <time>2018-05-26T15:44:37Z</time>
      </trkpt>
      <trkpt lat="47.74509" lon="4.70495">
        <ele>411.58853140311</ele>
        <time>2018-05-26T15:44:43Z</time>
      </trkpt>
      <trkpt lat="47.74517" lon="4.70485">
        <ele>411.91262575855</ele>
        <time>2018-05-26T15:44:50Z</time>
      </trkpt>
      <trkpt lat="47.74522" lon="4.70477">
        <ele>411.95184844419</ele>
        <time>2018-05-26T15:44:57Z</time>
      </trkpt>
      <trkpt lat="47.74522" lon="4.70477">
        <ele>412.26338545728</ele>
        <time>2018-05-26T15:45:04Z</time>
      </trkpt>
      <trkpt lat="47.74522" lon="4.70475">
        <ele>413.67505106898</ele>
        <time>2018-05-26T15:45:10Z</time>
      </trkpt>
      <trkpt lat="47.74522" lon="4.70475">
        <ele>415.61488011707</ele>
        <time>2018-05-26T15:45:17Z</time>
      </trkpt>
      <trkpt lat="47.74522" lon="4.70471">
        <ele>416.50575486994</ele>
        <time>2018-05-26T15:45:23Z</time>
      </trkpt>
      <trkpt lat="47.74535" lon="4.70448">
        <ele>417.18356077262</ele>
        <time>2018-05-26T15:45:30Z</time>
      </trkpt>
      <trkpt lat="47.74534" lon="4.70446">
        <ele>417.03416453933</ele>
        <time>2018-05-26T15:45:37Z</time>
      </trkpt>
      <trkpt lat="47.74525" lon="4.70446">
        <ele>416.10411537822</ele>
        <time>2018-05-26T15:45:43Z</time>
      </trkpt>
      <trkpt lat="47.74518" lon="4.7045">
        <ele>414.37727246224</ele>
        <time>2018-05-26T15:45:50Z</time>
      </trkpt>
      <trkpt lat="47.74512" lon="4.70452">
        <ele>413.84349476972</ele>
        <time>2018-05-26T15:45:56Z</time>
      </trkpt>
      <trkpt lat="47.74509" lon="4.70456">
        <ele>413.35195107679</ele>
        <time>2018-05-26T15:46:02Z</time>
      </trkpt>
      <trkpt lat="47.74506" lon="4.70459">
        <ele>412.94287938389</ele>
        <time>2018-05-26T15:46:09Z</time>
      </trkpt>
      <trkpt lat="47.74506" lon="4.70462">
        <ele>412.8013429003</ele>
        <time>2018-05-26T15:46:15Z</time>
      </trkpt>
      <trkpt lat="47.74507" lon="4.70459">
        <ele>411.99630928144</ele>
        <time>2018-05-26T15:46:22Z</time>
      </trkpt>
      <trkpt lat="47.74511" lon="4.70454">
        <ele>411.98453822015</ele>
        <time>2018-05-26T15:46:29Z</time>
      </trkpt>
      <trkpt lat="47.74511" lon="4.70449">
        <ele>412.06053393331</ele>
        <time>2018-05-26T15:46:35Z</time>
      </trkpt>
      <trkpt lat="47.74511" lon="4.70449">
        <ele>411.9611532803</ele>
        <time>2018-05-26T15:46:41Z</time>
      </trkpt>
      <trkpt lat="47.74513" lon="4.70447">
        <ele>411.38278692372</ele>
        <time>2018-05-26T15:46:48Z</time>
      </trkpt>
      <trkpt lat="47.74513" lon="4.70447">
        <ele>411.54919324757</ele>
        <time>2018-05-26T15:46:54Z</time>
      </trkpt>
      <trkpt lat="47.74519" lon="4.70444">
        <ele>411.40901862359</ele>
        <time>2018-05-26T15:47:01Z</time>
      </trkpt>
      <trkpt lat="47.7452" lon="4.70442">
        <ele>411.15599245834</ele>
        <time>2018-05-26T15:47:07Z</time>
      </trkpt>
      <trkpt lat="47.74527" lon="4.7044">
        <ele>410.01705207873</ele>
        <time>2018-05-26T15:47:14Z</time>
      </trkpt>
      <trkpt lat="47.74533" lon="4.70438">
        <ele>409.19367874819</ele>
        <time>2018-05-26T15:47:21Z</time>
      </trkpt>
      <trkpt lat="47.74539" lon="4.70437">
        <ele>408.99303406845</ele>
        <time>2018-05-26T15:47:27Z</time>
      </trkpt>
      <trkpt lat="47.74539" lon="4.70437">
        <ele>409.03131554199</ele>
        <time>2018-05-26T15:47:34Z</time>
      </trkpt>
      <trkpt lat="47.74537" lon="4.70431">
        <ele>409.28877939268</ele>
        <time>2018-05-26T15:47:40Z</time>
      </trkpt>
      <trkpt lat="47.74537" lon="4.70431">
        <ele>409.98018521682</ele>
        <time>2018-05-26T15:47:47Z</time>
      </trkpt>
      <trkpt lat="47.74541" lon="4.70429">
        <ele>411.67233119587</ele>
        <time>2018-05-26T15:47:54Z</time>
      </trkpt>
      <trkpt lat="47.74546" lon="4.70426">
        <ele>412.6607869464</ele>
        <time>2018-05-26T15:48:01Z</time>
      </trkpt>
      <trkpt lat="47.74547" lon="4.70425">
        <ele>413.21679428014</ele>
        <time>2018-05-26T15:48:07Z</time>
      </trkpt>
      <trkpt lat="47.74547" lon="4.70425">
        <ele>413.37633464651</ele>
        <time>2018-05-26T15:48:14Z</time>
      </trkpt>
      <trkpt lat="47.74547" lon="4.70425">
        <ele>413.57917854558</ele>
        <time>2018-05-26T15:48:21Z</time>
      </trkpt>
      <trkpt lat="47.74547" lon="4.70425">
        <ele>414.18485453215</ele>
        <time>2018-05-26T15:48:27Z</time>
      </trkpt>
      <trkpt lat="47.74547" lon="4.70425">
        <ele>414.50396068886</ele>
        <time>2018-05-26T15:48:34Z</time>
      </trkpt>
      <trkpt lat="47.74547" lon="4.70425">
        <ele>414.72978875808</ele>
        <time>2018-05-26T15:48:41Z</time>
      </trkpt>
      <trkpt lat="47.74547" lon="4.70425">
        <ele>415.01162183939</ele>
        <time>2018-05-26T15:48:48Z</time>
      </trkpt>
      <trkpt lat="47.74546" lon="4.70425">
        <ele>415.64255742938</ele>
        <time>2018-05-26T15:48:54Z</time>
      </trkpt>
      <trkpt lat="47.74546" lon="4.70425">
        <ele>416.02705703161</ele>
        <time>2018-05-26T15:49:01Z</time>
      </trkpt>
      <trkpt lat="47.74546" lon="4.70425">
        <ele>416.38852120844</ele>
        <time>2018-05-26T15:49:08Z</time>
      </trkpt>
      <trkpt lat="47.74546" lon="4.70425">
        <ele>416.6699532391</ele>
        <time>2018-05-26T15:49:14Z</time>
      </trkpt>
      <trkpt lat="47.74546" lon="4.70425">
        <ele>416.9933192384</ele>
        <time>2018-05-26T15:49:21Z</time>
      </trkpt>
      <trkpt lat="47.74546" lon="4.70425">
        <ele>417.1537111927</ele>
        <time>2018-05-26T15:49:27Z</time>
      </trkpt>
      <trkpt lat="47.74546" lon="4.70425">
        <ele>417.15714661639</ele>
        <time>2018-05-26T15:49:33Z</time>
      </trkpt>
      <trkpt lat="47.74546" lon="4.70425">
        <ele>417.13310083446</ele>
        <time>2018-05-26T15:49:40Z</time>
      </trkpt>
      <trkpt lat="47.74546" lon="4.70425">
        <ele>417.14402674115</ele>
        <time>2018-05-26T15:49:46Z</time>
      </trkpt>
      <trkpt lat="47.74546" lon="4.70425">
        <ele>417.13052107883</ele>
        <time>2018-05-26T15:49:53Z</time>
      </trkpt>
      <trkpt lat="47.74546" lon="4.70425">
        <ele>417.24085669296</ele>
        <time>2018-05-26T15:49:59Z</time>
      </trkpt>
      <trkpt lat="47.74546" lon="4.70425">
        <ele>417.53035552526</ele>
        <time>2018-05-26T15:50:06Z</time>
      </trkpt>
      <trkpt lat="47.74546" lon="4.70425">
        <ele>417.81206158138</ele>
        <time>2018-05-26T15:50:12Z</time>
      </trkpt>
      <trkpt lat="47.74546" lon="4.70425">
        <ele>419.06854536375</ele>
        <time>2018-05-26T15:50:19Z</time>
      </trkpt>
      <trkpt lat="47.74549" lon="4.70426">
        <ele>420.93721117146</ele>
        <time>2018-05-26T15:50:26Z</time>
      </trkpt>
      <trkpt lat="47.74553" lon="4.70427">
        <ele>422.77198077907</ele>
        <time>2018-05-26T15:50:33Z</time>
      </trkpt>
      <trkpt lat="47.74553" lon="4.70427">
        <ele>423.12360841026</ele>
        <time>2018-05-26T15:50:40Z</time>
      </trkpt>
      <trkpt lat="47.74555" lon="4.70427">
        <ele>425.95311601914</ele>
        <time>2018-05-26T15:50:46Z</time>
      </trkpt>
      <trkpt lat="47.74561" lon="4.70426">
        <ele>427.78108531499</ele>
        <time>2018-05-26T15:50:52Z</time>
      </trkpt>
      <trkpt lat="47.74561" lon="4.70426">
        <ele>428.34749228626</ele>
        <time>2018-05-26T15:50:59Z</time>
      </trkpt>
      <trkpt lat="47.74565" lon="4.70425">
        <ele>428.6440837289</ele>
        <time>2018-05-26T15:51:05Z</time>
      </trkpt>
      <trkpt lat="47.74567" lon="4.70426">
        <ele>428.88247855775</ele>
        <time>2018-05-26T15:51:12Z</time>
      </trkpt>
      <trkpt lat="47.74573" lon="4.70425">
        <ele>428.80648985974</ele>
        <time>2018-05-26T15:51:19Z</time>
      </trkpt>
      <trkpt lat="47.74577" lon="4.70427">
        <ele>428.52864286856</ele>
        <time>2018-05-26T15:51:26Z</time>
      </trkpt>
      <trkpt lat="47.74584" lon="4.70431">
        <ele>426.41231012602</ele>
        <time>2018-05-26T15:51:33Z</time>
      </trkpt>
      <trkpt lat="47.74588" lon="4.70432">
        <ele>425.36688449863</ele>
        <time>2018-05-26T15:51:39Z</time>
      </trkpt>
      <trkpt lat="47.74588" lon="4.70431">
        <ele>425.16563698029</ele>
        <time>2018-05-26T15:51:45Z</time>
      </trkpt>
      <trkpt lat="47.7459" lon="4.70429">
        <ele>424.92787822261</ele>
        <time>2018-05-26T15:51:51Z</time>
      </trkpt>
      <trkpt lat="47.74598" lon="4.70431">
        <ele>424.32859320047</ele>
        <time>2018-05-26T15:51:58Z</time>
      </trkpt>
      <trkpt lat="47.74601" lon="4.70432">
        <ele>423.41704104624</ele>
        <time>2018-05-26T15:52:04Z</time>
      </trkpt>
      <trkpt lat="47.74607" lon="4.70433">
        <ele>422.12753132012</ele>
        <time>2018-05-26T15:52:11Z</time>
      </trkpt>
      <trkpt lat="47.7461" lon="4.70434">
        <ele>421.60909362254</ele>
        <time>2018-05-26T15:52:18Z</time>
      </trkpt>
      <trkpt lat="47.74616" lon="4.70438">
        <ele>421.39967408174</ele>
        <time>2018-05-26T15:52:25Z</time>
      </trkpt>
      <trkpt lat="47.7462" lon="4.70438">
        <ele>421.11668349881</ele>
        <time>2018-05-26T15:52:31Z</time>
      </trkpt>
      <trkpt lat="47.74629" lon="4.70443">
        <ele>420.74229867057</ele>
        <time>2018-05-26T15:52:38Z</time>
      </trkpt>
      <trkpt lat="47.74637" lon="4.70442">
        <ele>420.04645116222</ele>
        <time>2018-05-26T15:52:44Z</time>
      </trkpt>
      <trkpt lat="47.74644" lon="4.70441">
        <ele>419.47487267301</ele>
        <time>2018-05-26T15:52:51Z</time>
      </trkpt>
      <trkpt lat="47.74647" lon="4.70441">
        <ele>419.41817694785</ele>
        <time>2018-05-26T15:52:58Z</time>
      </trkpt>
      <trkpt lat="47.74652" lon="4.70441">
        <ele>419.01623841637</ele>
        <time>2018-05-26T15:53:04Z</time>
      </trkpt>
      <trkpt lat="47.74656" lon="4.7044">
        <ele>418.85190838585</ele>
        <time>2018-05-26T15:53:11Z</time>
      </trkpt>
      <trkpt lat="47.74656" lon="4.70439">
        <ele>419.22932719703</ele>
        <time>2018-05-26T15:53:18Z</time>
      </trkpt>
      <trkpt lat="47.74655" lon="4.70438">
        <ele>419.31334596244</ele>
        <time>2018-05-26T15:53:24Z</time>
      </trkpt>
      <trkpt lat="47.74656" lon="4.70438">
        <ele>419.57926774717</ele>
        <time>2018-05-26T15:53:31Z</time>
      </trkpt>
      <trkpt lat="47.74656" lon="4.70438">
        <ele>419.64928077593</ele>
        <time>2018-05-26T15:53:38Z</time>
      </trkpt>
      <trkpt lat="47.74656" lon="4.70438">
        <ele>419.77923816696</ele>
        <time>2018-05-26T15:53:44Z</time>
      </trkpt>
      <trkpt lat="47.7466" lon="4.70438">
        <ele>420.2952698509</ele>
        <time>2018-05-26T15:53:50Z</time>
      </trkpt>
      <trkpt lat="47.74663" lon="4.70438">
        <ele>421.33956454779</ele>
        <time>2018-05-26T15:53:56Z</time>
      </trkpt>
      <trkpt lat="47.74666" lon="4.70439">
        <ele>422.30490195811</ele>
        <time>2018-05-26T15:54:03Z</time>
      </trkpt>
      <trkpt lat="47.7467" lon="4.70438">
        <ele>423.39330522031</ele>
        <time>2018-05-26T15:54:10Z</time>
      </trkpt>
      <trkpt lat="47.74676" lon="4.70438">
        <ele>423.79725223683</ele>
        <time>2018-05-26T15:54:17Z</time>
      </trkpt>
      <trkpt lat="47.7468" lon="4.70437">
        <ele>423.80656298159</ele>
        <time>2018-05-26T15:54:24Z</time>
      </trkpt>
      <trkpt lat="47.74686" lon="4.70438">
        <ele>422.8592619843</ele>
        <time>2018-05-26T15:54:31Z</time>
      </trkpt>
      <trkpt lat="47.74691" lon="4.70441">
        <ele>422.16463642532</ele>
        <time>2018-05-26T15:54:38Z</time>
      </trkpt>
      <trkpt lat="47.74696" lon="4.70443">
        <ele>421.72383025133</ele>
        <time>2018-05-26T15:54:44Z</time>
      </trkpt>
      <trkpt lat="47.74699" lon="4.70444">
        <ele>421.87361166954</ele>
        <time>2018-05-26T15:54:50Z</time>
      </trkpt>
      <trkpt lat="47.74701" lon="4.70445">
        <ele>422.2925861951</ele>
        <time>2018-05-26T15:54:57Z</time>
      </trkpt>
      <trkpt lat="47.747" lon="4.70444">
        <ele>422.5067072848</ele>
        <time>2018-05-26T15:55:03Z</time>
      </trkpt>
      <trkpt lat="47.74701" lon="4.70444">
        <ele>422.56562770218</ele>
        <time>2018-05-26T15:55:09Z</time>
      </trkpt>
      <trkpt lat="47.74701" lon="4.70443">
        <ele>422.56556743937</ele>
        <time>2018-05-26T15:55:16Z</time>
      </trkpt>
      <trkpt lat="47.74702" lon="4.70443">
        <ele>422.44217031963</ele>
        <time>2018-05-26T15:55:23Z</time>
      </trkpt>
      <trkpt lat="47.74702" lon="4.70444">
        <ele>422.48987370062</ele>
        <time>2018-05-26T15:55:29Z</time>
      </trkpt>
      <trkpt lat="47.74702" lon="4.70445">
        <ele>422.46630770696</ele>
        <time>2018-05-26T15:55:36Z</time>
      </trkpt>
      <trkpt lat="47.74706" lon="4.70446">
        <ele>422.23352767165</ele>
        <time>2018-05-26T15:55:42Z</time>
      </trkpt>
      <trkpt lat="47.74713" lon="4.70446">
        <ele>422.39607530833</ele>
        <time>2018-05-26T15:55:48Z</time>
      </trkpt>
      <trkpt lat="47.7472" lon="4.70447">
        <ele>423.19376867031</ele>
        <time>2018-05-26T15:55:55Z</time>
      </trkpt>
      <trkpt lat="47.74726" lon="4.70446">
        <ele>424.00787995839</ele>
        <time>2018-05-26T15:56:02Z</time>
      </trkpt>
      <trkpt lat="47.74734" lon="4.70443">
        <ele>424.97574550879</ele>
        <time>2018-05-26T15:56:09Z</time>
      </trkpt>
      <trkpt lat="47.7474" lon="4.70444">
        <ele>425.51247463909</ele>
        <time>2018-05-26T15:56:16Z</time>
      </trkpt>
      <trkpt lat="47.74747" lon="4.70443">
        <ele>425.71028466338</ele>
        <time>2018-05-26T15:56:22Z</time>
      </trkpt>
      <trkpt lat="47.74755" lon="4.70442">
        <ele>426.14434465821</ele>
        <time>2018-05-26T15:56:29Z</time>
      </trkpt>
      <trkpt lat="47.74761" lon="4.7044">
        <ele>426.60935072133</ele>
        <time>2018-05-26T15:56:35Z</time>
      </trkpt>
      <trkpt lat="47.74767" lon="4.70436">
        <ele>427.21359370719</ele>
        <time>2018-05-26T15:56:42Z</time>
      </trkpt>
      <trkpt lat="47.74771" lon="4.70436">
        <ele>427.44058299507</ele>
        <time>2018-05-26T15:56:48Z</time>
      </trkpt>
      <trkpt lat="47.74777" lon="4.70435">
        <ele>427.6304494864</ele>
        <time>2018-05-26T15:56:55Z</time>
      </trkpt>
      <trkpt lat="47.74783" lon="4.70433">
        <ele>427.92889019369</ele>
        <time>2018-05-26T15:57:01Z</time>
      </trkpt>
      <trkpt lat="47.74788" lon="4.7043">
        <ele>428.37844449979</ele>
        <time>2018-05-26T15:57:08Z</time>
      </trkpt>
      <trkpt lat="47.74793" lon="4.70426">
        <ele>428.5093644899</ele>
        <time>2018-05-26T15:57:14Z</time>
      </trkpt>
      <trkpt lat="47.748" lon="4.7042">
        <ele>428.76473496098</ele>
        <time>2018-05-26T15:57:21Z</time>
      </trkpt>
      <trkpt lat="47.74805" lon="4.70416">
        <ele>429.10701417601</ele>
        <time>2018-05-26T15:57:28Z</time>
      </trkpt>
      <trkpt lat="47.74805" lon="4.70415">
        <ele>429.20980544258</ele>
        <time>2018-05-26T15:57:35Z</time>
      </trkpt>
      <trkpt lat="47.74803" lon="4.70414">
        <ele>429.30483033324</ele>
        <time>2018-05-26T15:57:42Z</time>
      </trkpt>
      <trkpt lat="47.74802" lon="4.70414">
        <ele>429.33025375792</ele>
        <time>2018-05-26T15:57:48Z</time>
      </trkpt>
      <trkpt lat="47.74802" lon="4.70414">
        <ele>429.18960051751</ele>
        <time>2018-05-26T15:57:55Z</time>
      </trkpt>
      <trkpt lat="47.74801" lon="4.70414">
        <ele>429.23496320582</ele>
        <time>2018-05-26T15:58:02Z</time>
      </trkpt>
      <trkpt lat="47.74801" lon="4.70414">
        <ele>429.29299822475</ele>
        <time>2018-05-26T15:58:08Z</time>
      </trkpt>
      <trkpt lat="47.74801" lon="4.70414">
        <ele>429.54061759716</ele>
        <time>2018-05-26T15:58:14Z</time>
      </trkpt>
      <trkpt lat="47.74802" lon="4.70414">
        <ele>429.94565906467</ele>
        <time>2018-05-26T15:58:21Z</time>
      </trkpt>
      <trkpt lat="47.74804" lon="4.70412">
        <ele>430.95242020029</ele>
        <time>2018-05-26T15:58:27Z</time>
      </trkpt>
      <trkpt lat="47.74809" lon="4.7041">
        <ele>432.2608073776</ele>
        <time>2018-05-26T15:58:34Z</time>
      </trkpt>
      <trkpt lat="47.74814" lon="4.70407">
        <ele>433.35023889038</ele>
        <time>2018-05-26T15:58:40Z</time>
      </trkpt>
      <trkpt lat="47.7482" lon="4.70407">
        <ele>434.2291102377</ele>
        <time>2018-05-26T15:58:47Z</time>
      </trkpt>
      <trkpt lat="47.74827" lon="4.70406">
        <ele>435.02847885285</ele>
        <time>2018-05-26T15:58:53Z</time>
      </trkpt>
      <trkpt lat="47.74834" lon="4.70403">
        <ele>435.59049536021</ele>
        <time>2018-05-26T15:58:59Z</time>
      </trkpt>
      <trkpt lat="47.74841" lon="4.70401">
        <ele>436.30351364491</ele>
        <time>2018-05-26T15:59:05Z</time>
      </trkpt>
      <trkpt lat="47.74846" lon="4.70399">
        <ele>437.12745793864</ele>
        <time>2018-05-26T15:59:12Z</time>
      </trkpt>
      <trkpt lat="47.74854" lon="4.70392">
        <ele>437.7973563755</ele>
        <time>2018-05-26T15:59:18Z</time>
      </trkpt>
      <trkpt lat="47.74857" lon="4.70383">
        <ele>437.91020756609</ele>
        <time>2018-05-26T15:59:25Z</time>
      </trkpt>
      <trkpt lat="47.7486" lon="4.70371">
        <ele>437.44152685645</ele>
        <time>2018-05-26T15:59:32Z</time>
      </trkpt>
      <trkpt lat="47.74863" lon="4.70361">
        <ele>437.50030624113</ele>
        <time>2018-05-26T15:59:39Z</time>
      </trkpt>
      <trkpt lat="47.74865" lon="4.70352">
        <ele>438.03810924649</ele>
        <time>2018-05-26T15:59:45Z</time>
      </trkpt>
      <trkpt lat="47.74867" lon="4.70343">
        <ele>438.132492109</ele>
        <time>2018-05-26T15:59:52Z</time>
      </trkpt>
      <trkpt lat="47.7487" lon="4.70335">
        <ele>438.12893014436</ele>
        <time>2018-05-26T15:59:58Z</time>
      </trkpt>
      <trkpt lat="47.74871" lon="4.70327">
        <ele>438.49011810812</ele>
        <time>2018-05-26T16:00:05Z</time>
      </trkpt>
      <trkpt lat="47.74873" lon="4.70316">
        <ele>438.49960565336</ele>
        <time>2018-05-26T16:00:12Z</time>
      </trkpt>
      <trkpt lat="47.74873" lon="4.70314">
        <ele>438.02460810463</ele>
        <time>2018-05-26T16:00:18Z</time>
      </trkpt>
      <trkpt lat="47.74874" lon="4.70305">
        <ele>436.8266785149</ele>
        <time>2018-05-26T16:00:25Z</time>
      </trkpt>
      <trkpt lat="47.74875" lon="4.703">
        <ele>436.15829875246</ele>
        <time>2018-05-26T16:00:31Z</time>
      </trkpt>
      <trkpt lat="47.74876" lon="4.7029">
        <ele>435.31877729765</ele>
        <time>2018-05-26T16:00:38Z</time>
      </trkpt>
      <trkpt lat="47.74877" lon="4.70278">
        <ele>434.83973673696</ele>
        <time>2018-05-26T16:00:45Z</time>
      </trkpt>
      <trkpt lat="47.74877" lon="4.70269">
        <ele>434.53279899571</ele>
        <time>2018-05-26T16:00:52Z</time>
      </trkpt>
      <trkpt lat="47.74878" lon="4.7026">
        <ele>434.3401878895</ele>
        <time>2018-05-26T16:00:58Z</time>
      </trkpt>
      <trkpt lat="47.74879" lon="4.70248">
        <ele>434.42263346569</ele>
        <time>2018-05-26T16:01:05Z</time>
      </trkpt>
      <trkpt lat="47.7488" lon="4.70238">
        <ele>434.34765752463</ele>
        <time>2018-05-26T16:01:12Z</time>
      </trkpt>
      <trkpt lat="47.7488" lon="4.70227">
        <ele>433.77086686321</ele>
        <time>2018-05-26T16:01:19Z</time>
      </trkpt>
      <trkpt lat="47.74883" lon="4.7022">
        <ele>433.71308333935</ele>
        <time>2018-05-26T16:01:25Z</time>
      </trkpt>
      <trkpt lat="47.74884" lon="4.7021">
        <ele>433.46406273041</ele>
        <time>2018-05-26T16:01:32Z</time>
      </trkpt>
      <trkpt lat="47.74885" lon="4.702">
        <ele>433.15598974371</ele>
        <time>2018-05-26T16:01:38Z</time>
      </trkpt>
      <trkpt lat="47.74886" lon="4.7019">
        <ele>432.63748655689</ele>
        <time>2018-05-26T16:01:44Z</time>
      </trkpt>
      <trkpt lat="47.74889" lon="4.70181">
        <ele>432.02106785526</ele>
        <time>2018-05-26T16:01:51Z</time>
      </trkpt>
      <trkpt lat="47.7489" lon="4.70172">
        <ele>431.824837514</ele>
        <time>2018-05-26T16:01:58Z</time>
      </trkpt>
      <trkpt lat="47.74894" lon="4.70162">
        <ele>431.53761937395</ele>
        <time>2018-05-26T16:02:05Z</time>
      </trkpt>
      <trkpt lat="47.74896" lon="4.70155">
        <ele>431.64805740115</ele>
        <time>2018-05-26T16:02:11Z</time>
      </trkpt>
      <trkpt lat="47.74897" lon="4.70147">
        <ele>431.76906093625</ele>
        <time>2018-05-26T16:02:17Z</time>
      </trkpt>
      <trkpt lat="47.74901" lon="4.70139">
        <ele>431.8215680362</ele>
        <time>2018-05-26T16:02:24Z</time>
      </trkpt>
      <trkpt lat="47.74904" lon="4.70132">
        <ele>432.05906947139</ele>
        <time>2018-05-26T16:02:30Z</time>
      </trkpt>
      <trkpt lat="47.74905" lon="4.70125">
        <ele>431.87679461725</ele>
        <time>2018-05-26T16:02:37Z</time>
      </trkpt>
      <trkpt lat="47.74906" lon="4.70119">
        <ele>431.76827569423</ele>
        <time>2018-05-26T16:02:43Z</time>
      </trkpt>
      <trkpt lat="47.74905" lon="4.7011">
        <ele>431.19063069568</ele>
        <time>2018-05-26T16:02:50Z</time>
      </trkpt>
      <trkpt lat="47.74906" lon="4.70101">
        <ele>430.60726288289</ele>
        <time>2018-05-26T16:02:57Z</time>
      </trkpt>
      <trkpt lat="47.7491" lon="4.70093">
        <ele>430.28626235227</ele>
        <time>2018-05-26T16:03:04Z</time>
      </trkpt>
      <trkpt lat="47.74912" lon="4.70082">
        <ele>429.82168702815</ele>
        <time>2018-05-26T16:03:11Z</time>
      </trkpt>
      <trkpt lat="47.74914" lon="4.70075">
        <ele>429.61583073805</ele>
        <time>2018-05-26T16:03:17Z</time>
      </trkpt>
      <trkpt lat="47.74917" lon="4.70065">
        <ele>429.44424452026</ele>
        <time>2018-05-26T16:03:24Z</time>
      </trkpt>
      <trkpt lat="47.74919" lon="4.70056">
        <ele>429.25740311824</ele>
        <time>2018-05-26T16:03:31Z</time>
      </trkpt>
      <trkpt lat="47.74921" lon="4.70048">
        <ele>429.10597824669</ele>
        <time>2018-05-26T16:03:38Z</time>
      </trkpt>
      <trkpt lat="47.74923" lon="4.70039">
        <ele>429.18121826996</ele>
        <time>2018-05-26T16:03:44Z</time>
      </trkpt>
      <trkpt lat="47.74926" lon="4.70031">
        <ele>429.38097525752</ele>
        <time>2018-05-26T16:03:50Z</time>
      </trkpt>
      <trkpt lat="47.74926" lon="4.70023">
        <ele>429.47176692095</ele>
        <time>2018-05-26T16:03:57Z</time>
      </trkpt>
      <trkpt lat="47.74927" lon="4.70017">
        <ele>428.95150527646</ele>
        <time>2018-05-26T16:04:04Z</time>
      </trkpt>
      <trkpt lat="47.74928" lon="4.70008">
        <ele>428.5819935561</ele>
        <time>2018-05-26T16:04:11Z</time>
      </trkpt>
      <trkpt lat="47.74929" lon="4.69999">
        <ele>428.61012830562</ele>
        <time>2018-05-26T16:04:17Z</time>
      </trkpt>
      <trkpt lat="47.74931" lon="4.69991">
        <ele>428.76463405664</ele>
        <time>2018-05-26T16:04:24Z</time>
      </trkpt>
      <trkpt lat="47.74933" lon="4.69983">
        <ele>428.56200070747</ele>
        <time>2018-05-26T16:04:30Z</time>
      </trkpt>
      <trkpt lat="47.74935" lon="4.69975">
        <ele>428.76565653281</ele>
        <time>2018-05-26T16:04:37Z</time>
      </trkpt>
      <trkpt lat="47.74938" lon="4.69968">
        <ele>428.95834171178</ele>
        <time>2018-05-26T16:04:43Z</time>
      </trkpt>
      <trkpt lat="47.74938" lon="4.69959">
        <ele>428.78628166572</ele>
        <time>2018-05-26T16:04:50Z</time>
      </trkpt>
      <trkpt lat="47.7494" lon="4.69954">
        <ele>428.87427841283</ele>
        <time>2018-05-26T16:04:57Z</time>
      </trkpt>
      <trkpt lat="47.74941" lon="4.69945">
        <ele>428.77397131527</ele>
        <time>2018-05-26T16:05:04Z</time>
      </trkpt>
      <trkpt lat="47.74941" lon="4.6994">
        <ele>428.85097136517</ele>
        <time>2018-05-26T16:05:11Z</time>
      </trkpt>
      <trkpt lat="47.74941" lon="4.69933">
        <ele>429.38830162198</ele>
        <time>2018-05-26T16:05:18Z</time>
      </trkpt>
      <trkpt lat="47.74941" lon="4.69926">
        <ele>429.00246116882</ele>
        <time>2018-05-26T16:05:25Z</time>
      </trkpt>
      <trkpt lat="47.74943" lon="4.69918">
        <ele>428.59423485202</ele>
        <time>2018-05-26T16:05:32Z</time>
      </trkpt>
      <trkpt lat="47.74946" lon="4.69908">
        <ele>428.08652339955</ele>
        <time>2018-05-26T16:05:38Z</time>
      </trkpt>
      <trkpt lat="47.74949" lon="4.699">
        <ele>427.90519274396</ele>
        <time>2018-05-26T16:05:45Z</time>
      </trkpt>
      <trkpt lat="47.74954" lon="4.69892">
        <ele>427.59914362544</ele>
        <time>2018-05-26T16:05:51Z</time>
      </trkpt>
      <trkpt lat="47.74954" lon="4.69883">
        <ele>427.83630166056</ele>
        <time>2018-05-26T16:05:57Z</time>
      </trkpt>
      <trkpt lat="47.74953" lon="4.69879">
        <ele>428.44079141391</ele>
        <time>2018-05-26T16:06:04Z</time>
      </trkpt>
      <trkpt lat="47.74954" lon="4.69877">
        <ele>428.27073463183</ele>
        <time>2018-05-26T16:06:10Z</time>
      </trkpt>
      <trkpt lat="47.74955" lon="4.69867">
        <ele>428.17238944027</ele>
        <time>2018-05-26T16:06:17Z</time>
      </trkpt>
      <trkpt lat="47.74956" lon="4.69854">
        <ele>427.91951917795</ele>
        <time>2018-05-26T16:06:24Z</time>
      </trkpt>
      <trkpt lat="47.74958" lon="4.69845">
        <ele>428.02803907886</ele>
        <time>2018-05-26T16:06:30Z</time>
      </trkpt>
      <trkpt lat="47.74959" lon="4.69837">
        <ele>428.39018198774</ele>
        <time>2018-05-26T16:06:37Z</time>
      </trkpt>
      <trkpt lat="47.74959" lon="4.69834">
        <ele>428.43614274243</ele>
        <time>2018-05-26T16:06:44Z</time>
      </trkpt>
      <trkpt lat="47.74961" lon="4.69826">
        <ele>428.70850254369</ele>
        <time>2018-05-26T16:06:51Z</time>
      </trkpt>
      <trkpt lat="47.74962" lon="4.69823">
        <ele>428.95267284336</ele>
        <time>2018-05-26T16:06:57Z</time>
      </trkpt>
      <trkpt lat="47.74962" lon="4.69812">
        <ele>429.28263635815</ele>
        <time>2018-05-26T16:07:04Z</time>
      </trkpt>
      <trkpt lat="47.74965" lon="4.69802">
        <ele>429.97939252988</ele>
        <time>2018-05-26T16:07:11Z</time>
      </trkpt>
      <trkpt lat="47.74969" lon="4.69797">
        <ele>430.81635628046</ele>
        <time>2018-05-26T16:07:17Z</time>
      </trkpt>
      <trkpt lat="47.74968" lon="4.69798">
        <ele>431.20235227052</ele>
        <time>2018-05-26T16:07:24Z</time>
      </trkpt>
      <trkpt lat="47.74968" lon="4.69796">
        <ele>431.82934526158</ele>
        <time>2018-05-26T16:07:30Z</time>
      </trkpt>
      <trkpt lat="47.74968" lon="4.69797">
        <ele>432.52878517102</ele>
        <time>2018-05-26T16:07:37Z</time>
      </trkpt>
      <trkpt lat="47.74968" lon="4.69796">
        <ele>432.64958655699</ele>
        <time>2018-05-26T16:07:43Z</time>
      </trkpt>
      <trkpt lat="47.74968" lon="4.69795">
        <ele>432.64107346239</ele>
        <time>2018-05-26T16:07:49Z</time>
      </trkpt>
      <trkpt lat="47.74967" lon="4.69796">
        <ele>433.02569102425</ele>
        <time>2018-05-26T16:07:55Z</time>
      </trkpt>
      <trkpt lat="47.74966" lon="4.69799">
        <ele>433.52547907791</ele>
        <time>2018-05-26T16:08:02Z</time>
      </trkpt>
      <trkpt lat="47.74964" lon="4.69801">
        <ele>434.07020139631</ele>
        <time>2018-05-26T16:08:08Z</time>
      </trkpt>
      <trkpt lat="47.74963" lon="4.698">
        <ele>434.08217326656</ele>
        <time>2018-05-26T16:08:15Z</time>
      </trkpt>
      <trkpt lat="47.74963" lon="4.69801">
        <ele>434.09623584284</ele>
        <time>2018-05-26T16:08:22Z</time>
      </trkpt>
      <trkpt lat="47.74964" lon="4.69801">
        <ele>434.18384140645</ele>
        <time>2018-05-26T16:08:28Z</time>
      </trkpt>
      <trkpt lat="47.74965" lon="4.69801">
        <ele>433.95505792833</ele>
        <time>2018-05-26T16:08:34Z</time>
      </trkpt>
      <trkpt lat="47.74964" lon="4.69802">
        <ele>433.38760686084</ele>
        <time>2018-05-26T16:08:41Z</time>
      </trkpt>
      <trkpt lat="47.74965" lon="4.69802">
        <ele>433.2750253258</ele>
        <time>2018-05-26T16:08:48Z</time>
      </trkpt>
      <trkpt lat="47.74965" lon="4.69802">
        <ele>433.0247588474</ele>
        <time>2018-05-26T16:08:55Z</time>
      </trkpt>
      <trkpt lat="47.74965" lon="4.69801">
        <ele>432.79062855543</ele>
        <time>2018-05-26T16:09:01Z</time>
      </trkpt>
      <trkpt lat="47.74966" lon="4.698">
        <ele>432.63837255316</ele>
        <time>2018-05-26T16:09:08Z</time>
      </trkpt>
      <trkpt lat="47.74966" lon="4.69796">
        <ele>432.61697449495</ele>
        <time>2018-05-26T16:09:15Z</time>
      </trkpt>
      <trkpt lat="47.74967" lon="4.69791">
        <ele>433.06716820511</ele>
        <time>2018-05-26T16:09:21Z</time>
      </trkpt>
      <trkpt lat="47.74971" lon="4.69776">
        <ele>433.14638220474</ele>
        <time>2018-05-26T16:09:28Z</time>
      </trkpt>
      <trkpt lat="47.74974" lon="4.69767">
        <ele>433.08168475463</ele>
        <time>2018-05-26T16:09:34Z</time>
      </trkpt>
      <trkpt lat="47.74974" lon="4.69759">
        <ele>432.92754669653</ele>
        <time>2018-05-26T16:09:41Z</time>
      </trkpt>
      <trkpt lat="47.74978" lon="4.6975">
        <ele>432.81257697004</ele>
        <time>2018-05-26T16:09:47Z</time>
      </trkpt>
      <trkpt lat="47.74978" lon="4.69742">
        <ele>432.80462233162</ele>
        <time>2018-05-26T16:09:53Z</time>
      </trkpt>
      <trkpt lat="47.74979" lon="4.69732">
        <ele>432.66760188358</ele>
        <time>2018-05-26T16:10:00Z</time>
      </trkpt>
      <trkpt lat="47.74979" lon="4.69721">
        <ele>432.67797342371</ele>
        <time>2018-05-26T16:10:07Z</time>
      </trkpt>
      <trkpt lat="47.74982" lon="4.6971">
        <ele>432.64358820916</ele>
        <time>2018-05-26T16:10:14Z</time>
      </trkpt>
      <trkpt lat="47.74983" lon="4.69703">
        <ele>432.78316722045</ele>
        <time>2018-05-26T16:10:20Z</time>
      </trkpt>
      <trkpt lat="47.74981" lon="4.69703">
        <ele>432.9131742494</ele>
        <time>2018-05-26T16:10:27Z</time>
      </trkpt>
      <trkpt lat="47.7498" lon="4.69702">
        <ele>432.89405372904</ele>
        <time>2018-05-26T16:10:33Z</time>
      </trkpt>
      <trkpt lat="47.74982" lon="4.69702">
        <ele>433.42872288012</ele>
        <time>2018-05-26T16:10:39Z</time>
      </trkpt>
      <trkpt lat="47.74981" lon="4.697">
        <ele>433.20103415263</ele>
        <time>2018-05-26T16:10:46Z</time>
      </trkpt>
      <trkpt lat="47.74981" lon="4.69697">
        <ele>433.29827311954</ele>
        <time>2018-05-26T16:10:53Z</time>
      </trkpt>
      <trkpt lat="47.74981" lon="4.69695">
        <ele>433.38281966511</ele>
        <time>2018-05-26T16:10:59Z</time>
      </trkpt>
      <trkpt lat="47.7498" lon="4.69696">
        <ele>433.04365192996</ele>
        <time>2018-05-26T16:11:06Z</time>
      </trkpt>
      <trkpt lat="47.74981" lon="4.69689">
        <ele>432.65707357453</ele>
        <time>2018-05-26T16:11:13Z</time>
      </trkpt>
      <trkpt lat="47.74983" lon="4.69681">
        <ele>432.75750642876</ele>
        <time>2018-05-26T16:11:19Z</time>
      </trkpt>
      <trkpt lat="47.74984" lon="4.69671">
        <ele>433.26351603751</ele>
        <time>2018-05-26T16:11:26Z</time>
      </trkpt>
      <trkpt lat="47.74984" lon="4.69664">
        <ele>433.37046005739</ele>
        <time>2018-05-26T16:11:32Z</time>
      </trkpt>
      <trkpt lat="47.74984" lon="4.69657">
        <ele>433.55577465396</ele>
        <time>2018-05-26T16:11:39Z</time>
      </trkpt>
      <trkpt lat="47.74984" lon="4.69649">
        <ele>433.64202523952</ele>
        <time>2018-05-26T16:11:45Z</time>
      </trkpt>
      <trkpt lat="47.74983" lon="4.69637">
        <ele>433.78125778031</ele>
        <time>2018-05-26T16:11:52Z</time>
      </trkpt>
      <trkpt lat="47.74983" lon="4.69629">
        <ele>433.74013152839</ele>
        <time>2018-05-26T16:11:58Z</time>
      </trkpt>
      <trkpt lat="47.74984" lon="4.6962">
        <ele>433.72064274648</ele>
        <time>2018-05-26T16:12:04Z</time>
      </trkpt>
      <trkpt lat="47.74985" lon="4.69607">
        <ele>433.65195515657</ele>
        <time>2018-05-26T16:12:11Z</time>
      </trkpt>
      <trkpt lat="47.74987" lon="4.69597">
        <ele>433.30297887035</ele>
        <time>2018-05-26T16:12:18Z</time>
      </trkpt>
      <trkpt lat="47.74988" lon="4.69588">
        <ele>433.51818777863</ele>
        <time>2018-05-26T16:12:25Z</time>
      </trkpt>
      <trkpt lat="47.74988" lon="4.69582">
        <ele>433.62435423992</ele>
        <time>2018-05-26T16:12:32Z</time>
      </trkpt>
      <trkpt lat="47.74986" lon="4.69576">
        <ele>433.68038086187</ele>
        <time>2018-05-26T16:12:38Z</time>
      </trkpt>
      <trkpt lat="47.7499" lon="4.69563">
        <ele>433.95484544189</ele>
        <time>2018-05-26T16:12:45Z</time>
      </trkpt>
      <trkpt lat="47.74997" lon="4.69553">
        <ele>434.47881535674</ele>
        <time>2018-05-26T16:12:52Z</time>
      </trkpt>
      <trkpt lat="47.75004" lon="4.69545">
        <ele>434.73616197766</ele>
        <time>2018-05-26T16:12:59Z</time>
      </trkpt>
      <trkpt lat="47.75011" lon="4.69533">
        <ele>434.71012185356</ele>
        <time>2018-05-26T16:13:06Z</time>
      </trkpt>
      <trkpt lat="47.75013" lon="4.69524">
        <ele>434.37413376968</ele>
        <time>2018-05-26T16:13:12Z</time>
      </trkpt>
      <trkpt lat="47.75015" lon="4.69518">
        <ele>434.45079978243</ele>
        <time>2018-05-26T16:13:18Z</time>
      </trkpt>
      <trkpt lat="47.75016" lon="4.69508">
        <ele>434.13002891841</ele>
        <time>2018-05-26T16:13:25Z</time>
      </trkpt>
      <trkpt lat="47.75018" lon="4.69495">
        <ele>433.68678903796</ele>
        <time>2018-05-26T16:13:32Z</time>
      </trkpt>
      <trkpt lat="47.7502" lon="4.69488">
        <ele>433.50646712921</ele>
        <time>2018-05-26T16:13:38Z</time>
      </trkpt>
      <trkpt lat="47.75024" lon="4.69477">
        <ele>433.08501716605</ele>
        <time>2018-05-26T16:13:45Z</time>
      </trkpt>
      <trkpt lat="47.75027" lon="4.69468">
        <ele>433.02571562486</ele>
        <time>2018-05-26T16:13:52Z</time>
      </trkpt>
      <trkpt lat="47.75026" lon="4.6946">
        <ele>433.37268881186</ele>
        <time>2018-05-26T16:13:58Z</time>
      </trkpt>
      <trkpt lat="47.75029" lon="4.69449">
        <ele>434.02044206581</ele>
        <time>2018-05-26T16:14:05Z</time>
      </trkpt>
      <trkpt lat="47.75034" lon="4.6944">
        <ele>434.99210589685</ele>
        <time>2018-05-26T16:14:11Z</time>
      </trkpt>
      <trkpt lat="47.75034" lon="4.69433">
        <ele>436.00566665888</ele>
        <time>2018-05-26T16:14:18Z</time>
      </trkpt>
      <trkpt lat="47.75034" lon="4.69432">
        <ele>436.17206979058</ele>
        <time>2018-05-26T16:14:25Z</time>
      </trkpt>
      <trkpt lat="47.75034" lon="4.69432">
        <ele>435.17603538464</ele>
        <time>2018-05-26T16:14:32Z</time>
      </trkpt>
      <trkpt lat="47.75033" lon="4.69425">
        <ele>434.13565731276</ele>
        <time>2018-05-26T16:14:38Z</time>
      </trkpt>
      <trkpt lat="47.75032" lon="4.69415">
        <ele>434.43032615288</ele>
        <time>2018-05-26T16:14:45Z</time>
      </trkpt>
      <trkpt lat="47.7503" lon="4.69405">
        <ele>435.44117329137</ele>
        <time>2018-05-26T16:14:52Z</time>
      </trkpt>
      <trkpt lat="47.75027" lon="4.69398">
        <ele>436.33516186936</ele>
        <time>2018-05-26T16:14:58Z</time>
      </trkpt>
      <trkpt lat="47.75026" lon="4.69393">
        <ele>437.60042217739</ele>
        <time>2018-05-26T16:15:05Z</time>
      </trkpt>
      <trkpt lat="47.75027" lon="4.69387">
        <ele>438.77689455326</ele>
        <time>2018-05-26T16:15:11Z</time>
      </trkpt>
      <trkpt lat="47.75027" lon="4.6938">
        <ele>439.56312999099</ele>
        <time>2018-05-26T16:15:18Z</time>
      </trkpt>
      <trkpt lat="47.75026" lon="4.6937">
        <ele>439.17709888058</ele>
        <time>2018-05-26T16:15:25Z</time>
      </trkpt>
      <trkpt lat="47.75027" lon="4.69363">
        <ele>438.46203914281</ele>
        <time>2018-05-26T16:15:31Z</time>
      </trkpt>
      <trkpt lat="47.75026" lon="4.69349">
        <ele>438.46913721615</ele>
        <time>2018-05-26T16:15:37Z</time>
      </trkpt>
      <trkpt lat="47.75025" lon="4.69339">
        <ele>438.63128756106</ele>
        <time>2018-05-26T16:15:44Z</time>
      </trkpt>
      <trkpt lat="47.75025" lon="4.6933">
        <ele>439.28750450881</ele>
        <time>2018-05-26T16:15:50Z</time>
      </trkpt>
      <trkpt lat="47.75025" lon="4.69329">
        <ele>439.3784416649</ele>
        <time>2018-05-26T16:15:57Z</time>
      </trkpt>
      <trkpt lat="47.75024" lon="4.69329">
        <ele>439.00297086917</ele>
        <time>2018-05-26T16:16:04Z</time>
      </trkpt>
      <trkpt lat="47.75022" lon="4.69325">
        <ele>437.42837863988</ele>
        <time>2018-05-26T16:16:10Z</time>
      </trkpt>
      <trkpt lat="47.75021" lon="4.69323">
        <ele>436.35791396014</ele>
        <time>2018-05-26T16:16:16Z</time>
      </trkpt>
      <trkpt lat="47.75022" lon="4.69318">
        <ele>435.79349191218</ele>
        <time>2018-05-26T16:16:23Z</time>
      </trkpt>
      <trkpt lat="47.75025" lon="4.69311">
        <ele>435.39150425192</ele>
        <time>2018-05-26T16:16:29Z</time>
      </trkpt>
      <trkpt lat="47.75027" lon="4.69306">
        <ele>434.57142139846</ele>
        <time>2018-05-26T16:16:36Z</time>
      </trkpt>
      <trkpt lat="47.75026" lon="4.69303">
        <ele>433.52547915</ele>
        <time>2018-05-26T16:16:43Z</time>
      </trkpt>
      <trkpt lat="47.75025" lon="4.693">
        <ele>433.0861863768</ele>
        <time>2018-05-26T16:16:50Z</time>
      </trkpt>
      <trkpt lat="47.75027" lon="4.69295">
        <ele>433.19841469715</ele>
        <time>2018-05-26T16:16:57Z</time>
      </trkpt>
      <trkpt lat="47.75028" lon="4.69286">
        <ele>433.59776949072</ele>
        <time>2018-05-26T16:17:03Z</time>
      </trkpt>
      <trkpt lat="47.7503" lon="4.69279">
        <ele>434.11322348764</ele>
        <time>2018-05-26T16:17:09Z</time>
      </trkpt>
      <trkpt lat="47.7503" lon="4.69271">
        <ele>434.1599975636</ele>
        <time>2018-05-26T16:17:16Z</time>
      </trkpt>
      <trkpt lat="47.75032" lon="4.69271">
        <ele>434.05261514459</ele>
        <time>2018-05-26T16:17:22Z</time>
      </trkpt>
      <trkpt lat="47.75034" lon="4.69257">
        <ele>433.02484991724</ele>
        <time>2018-05-26T16:17:29Z</time>
      </trkpt>
      <trkpt lat="47.75033" lon="4.69249">
        <ele>431.2395985394</ele>
        <time>2018-05-26T16:17:36Z</time>
      </trkpt>
      <trkpt lat="47.75035" lon="4.69246">
        <ele>429.84493247625</ele>
        <time>2018-05-26T16:17:42Z</time>
      </trkpt>
      <trkpt lat="47.75038" lon="4.69241">
        <ele>428.15457313717</ele>
        <time>2018-05-26T16:17:49Z</time>
      </trkpt>
      <trkpt lat="47.75039" lon="4.69215">
        <ele>427.52103399386</ele>
        <time>2018-05-26T16:17:56Z</time>
      </trkpt>
      <trkpt lat="47.7504" lon="4.69198">
        <ele>427.55771001758</ele>
        <time>2018-05-26T16:18:02Z</time>
      </trkpt>
      <trkpt lat="47.75039" lon="4.69191">
        <ele>428.04827474237</ele>
        <time>2018-05-26T16:18:09Z</time>
      </trkpt>
      <trkpt lat="47.7504" lon="4.69187">
        <ele>428.64203865827</ele>
        <time>2018-05-26T16:18:15Z</time>
      </trkpt>
      <trkpt lat="47.75041" lon="4.6918">
        <ele>429.0125879283</ele>
        <time>2018-05-26T16:18:22Z</time>
      </trkpt>
      <trkpt lat="47.7504" lon="4.69175">
        <ele>428.80305792191</ele>
        <time>2018-05-26T16:18:29Z</time>
      </trkpt>
      <trkpt lat="47.75042" lon="4.6917">
        <ele>427.74144081699</ele>
        <time>2018-05-26T16:18:35Z</time>
      </trkpt>
      <trkpt lat="47.75047" lon="4.69165">
        <ele>426.72421492172</ele>
        <time>2018-05-26T16:18:41Z</time>
      </trkpt>
      <trkpt lat="47.75051" lon="4.69158">
        <ele>426.51312451989</ele>
        <time>2018-05-26T16:18:48Z</time>
      </trkpt>
      <trkpt lat="47.75049" lon="4.69148">
        <ele>426.10540866896</ele>
        <time>2018-05-26T16:18:55Z</time>
      </trkpt>
      <trkpt lat="47.75051" lon="4.69139">
        <ele>425.82067282847</ele>
        <time>2018-05-26T16:19:01Z</time>
      </trkpt>
      <trkpt lat="47.75053" lon="4.69132">
        <ele>425.61627063915</ele>
        <time>2018-05-26T16:19:08Z</time>
      </trkpt>
      <trkpt lat="47.75056" lon="4.6913">
        <ele>425.10890358373</ele>
        <time>2018-05-26T16:19:14Z</time>
      </trkpt>
      <trkpt lat="47.75054" lon="4.69119">
        <ele>424.74148683636</ele>
        <time>2018-05-26T16:19:21Z</time>
      </trkpt>
      <trkpt lat="47.75057" lon="4.69115">
        <ele>423.96135997762</ele>
        <time>2018-05-26T16:19:27Z</time>
      </trkpt>
      <trkpt lat="47.7506" lon="4.69111">
        <ele>423.8347615224</ele>
        <time>2018-05-26T16:19:33Z</time>
      </trkpt>
      <trkpt lat="47.75059" lon="4.69107">
        <ele>423.86595838733</ele>
        <time>2018-05-26T16:19:40Z</time>
      </trkpt>
      <trkpt lat="47.75059" lon="4.69105">
        <ele>424.16877010504</ele>
        <time>2018-05-26T16:19:47Z</time>
      </trkpt>
      <trkpt lat="47.75058" lon="4.69104">
        <ele>424.35386731543</ele>
        <time>2018-05-26T16:19:53Z</time>
      </trkpt>
      <trkpt lat="47.75057" lon="4.69104">
        <ele>424.51032876356</ele>
        <time>2018-05-26T16:20:00Z</time>
      </trkpt>
      <trkpt lat="47.75056" lon="4.69103">
        <ele>424.49350658036</ele>
        <time>2018-05-26T16:20:06Z</time>
      </trkpt>
      <trkpt lat="47.75053" lon="4.69101">
        <ele>424.50678339731</ele>
        <time>2018-05-26T16:20:13Z</time>
      </trkpt>
      <trkpt lat="47.75051" lon="4.691">
        <ele>423.72388806203</ele>
        <time>2018-05-26T16:20:20Z</time>
      </trkpt>
      <trkpt lat="47.75051" lon="4.69103">
        <ele>423.1398554062</ele>
        <time>2018-05-26T16:20:26Z</time>
      </trkpt>
      <trkpt lat="47.75052" lon="4.69102">
        <ele>422.32674947924</ele>
        <time>2018-05-26T16:20:33Z</time>
      </trkpt>
      <trkpt lat="47.75053" lon="4.69102">
        <ele>422.2429527149</ele>
        <time>2018-05-26T16:20:40Z</time>
      </trkpt>
      <trkpt lat="47.75055" lon="4.691">
        <ele>422.19425024756</ele>
        <time>2018-05-26T16:20:47Z</time>
      </trkpt>
      <trkpt lat="47.75057" lon="4.69096">
        <ele>422.28303733839</ele>
        <time>2018-05-26T16:20:53Z</time>
      </trkpt>
      <trkpt lat="47.7506" lon="4.69092">
        <ele>422.3816993058</ele>
        <time>2018-05-26T16:21:00Z</time>
      </trkpt>
      <trkpt lat="47.75062" lon="4.69091">
        <ele>422.42908050099</ele>
        <time>2018-05-26T16:21:07Z</time>
      </trkpt>
      <trkpt lat="47.75064" lon="4.69089">
        <ele>422.71043311049</ele>
        <time>2018-05-26T16:21:14Z</time>
      </trkpt>
      <trkpt lat="47.75066" lon="4.69087">
        <ele>422.90068349601</ele>
        <time>2018-05-26T16:21:21Z</time>
      </trkpt>
      <trkpt lat="47.75068" lon="4.69083">
        <ele>423.06595677083</ele>
        <time>2018-05-26T16:21:27Z</time>
      </trkpt>
      <trkpt lat="47.75072" lon="4.69077">
        <ele>422.97993103887</ele>
        <time>2018-05-26T16:21:33Z</time>
      </trkpt>
      <trkpt lat="47.75076" lon="4.69067">
        <ele>423.38848641378</ele>
        <time>2018-05-26T16:21:40Z</time>
      </trkpt>
      <trkpt lat="47.7508" lon="4.69064">
        <ele>424.01117872529</ele>
        <time>2018-05-26T16:21:47Z</time>
      </trkpt>
      <trkpt lat="47.75081" lon="4.6906">
        <ele>424.02288060888</ele>
        <time>2018-05-26T16:21:53Z</time>
      </trkpt>
      <trkpt lat="47.75085" lon="4.69051">
        <ele>423.89514709003</ele>
        <time>2018-05-26T16:22:00Z</time>
      </trkpt>
      <trkpt lat="47.75089" lon="4.69045">
        <ele>423.86583007808</ele>
        <time>2018-05-26T16:22:06Z</time>
      </trkpt>
      <trkpt lat="47.75095" lon="4.69039">
        <ele>424.3868795375</ele>
        <time>2018-05-26T16:22:13Z</time>
      </trkpt>
      <trkpt lat="47.75098" lon="4.69034">
        <ele>425.08743184648</ele>
        <time>2018-05-26T16:22:20Z</time>
      </trkpt>
      <trkpt lat="47.75101" lon="4.69025">
        <ele>424.94743504213</ele>
        <time>2018-05-26T16:22:27Z</time>
      </trkpt>
      <trkpt lat="47.75105" lon="4.6902">
        <ele>424.85402596201</ele>
        <time>2018-05-26T16:22:33Z</time>
      </trkpt>
      <trkpt lat="47.75106" lon="4.69011">
        <ele>425.36455600315</ele>
        <time>2018-05-26T16:22:40Z</time>
      </trkpt>
      <trkpt lat="47.75108" lon="4.69003">
        <ele>425.66358363636</ele>
        <time>2018-05-26T16:22:47Z</time>
      </trkpt>
      <trkpt lat="47.7511" lon="4.69001">
        <ele>425.87963055927</ele>
        <time>2018-05-26T16:22:53Z</time>
      </trkpt>
      <trkpt lat="47.75114" lon="4.68997">
        <ele>426.01512780577</ele>
        <time>2018-05-26T16:22:59Z</time>
      </trkpt>
      <trkpt lat="47.75118" lon="4.68994">
        <ele>426.1048394427</ele>
        <time>2018-05-26T16:23:05Z</time>
      </trkpt>
      <trkpt lat="47.75121" lon="4.68989">
        <ele>425.81260112447</ele>
        <time>2018-05-26T16:23:12Z</time>
      </trkpt>
      <trkpt lat="47.75128" lon="4.68988">
        <ele>425.37168082331</ele>
        <time>2018-05-26T16:23:18Z</time>
      </trkpt>
      <trkpt lat="47.75132" lon="4.68986">
        <ele>424.64954932088</ele>
        <time>2018-05-26T16:23:24Z</time>
      </trkpt>
      <trkpt lat="47.75135" lon="4.68984">
        <ele>424.47933547389</ele>
        <time>2018-05-26T16:23:31Z</time>
      </trkpt>
      <trkpt lat="47.75141" lon="4.68972">
        <ele>424.0463051471</ele>
        <time>2018-05-26T16:23:38Z</time>
      </trkpt>
      <trkpt lat="47.75144" lon="4.68967">
        <ele>424.05300596278</ele>
        <time>2018-05-26T16:23:45Z</time>
      </trkpt>
      <trkpt lat="47.75146" lon="4.68963">
        <ele>424.35441045569</ele>
        <time>2018-05-26T16:23:51Z</time>
      </trkpt>
      <trkpt lat="47.75148" lon="4.68956">
        <ele>424.66063985974</ele>
        <time>2018-05-26T16:23:58Z</time>
      </trkpt>
      <trkpt lat="47.75148" lon="4.68948">
        <ele>424.64476908672</ele>
        <time>2018-05-26T16:24:05Z</time>
      </trkpt>
      <trkpt lat="47.7515" lon="4.6894">
        <ele>424.26915434687</ele>
        <time>2018-05-26T16:24:11Z</time>
      </trkpt>
      <trkpt lat="47.7515" lon="4.68934">
        <ele>423.72561588723</ele>
        <time>2018-05-26T16:24:18Z</time>
      </trkpt>
      <trkpt lat="47.75151" lon="4.68933">
        <ele>423.62174007653</ele>
        <time>2018-05-26T16:24:25Z</time>
      </trkpt>
      <trkpt lat="47.75156" lon="4.68929">
        <ele>423.24489269278</ele>
        <time>2018-05-26T16:24:32Z</time>
      </trkpt>
      <trkpt lat="47.75161" lon="4.68923">
        <ele>422.79321276923</ele>
        <time>2018-05-26T16:24:39Z</time>
      </trkpt>
      <trkpt lat="47.75164" lon="4.68918">
        <ele>422.30246060719</ele>
        <time>2018-05-26T16:24:46Z</time>
      </trkpt>
      <trkpt lat="47.75165" lon="4.68912">
        <ele>422.27094613261</ele>
        <time>2018-05-26T16:24:52Z</time>
      </trkpt>
      <trkpt lat="47.75168" lon="4.68906">
        <ele>422.16829718108</ele>
        <time>2018-05-26T16:24:59Z</time>
      </trkpt>
      <trkpt lat="47.75177" lon="4.68901">
        <ele>422.43455328046</ele>
        <time>2018-05-26T16:25:05Z</time>
      </trkpt>
      <trkpt lat="47.75181" lon="4.68898">
        <ele>422.60338700862</ele>
        <time>2018-05-26T16:25:12Z</time>
      </trkpt>
      <trkpt lat="47.75184" lon="4.68893">
        <ele>422.85829062805</ele>
        <time>2018-05-26T16:25:18Z</time>
      </trkpt>
      <trkpt lat="47.7519" lon="4.68888">
        <ele>423.13046281301</ele>
        <time>2018-05-26T16:25:25Z</time>
      </trkpt>
      <trkpt lat="47.75194" lon="4.68883">
        <ele>423.1128104156</ele>
        <time>2018-05-26T16:25:31Z</time>
      </trkpt>
      <trkpt lat="47.75197" lon="4.68879">
        <ele>422.64916060326</ele>
        <time>2018-05-26T16:25:37Z</time>
      </trkpt>
      <trkpt lat="47.75203" lon="4.68873">
        <ele>422.25406548722</ele>
        <time>2018-05-26T16:25:44Z</time>
      </trkpt>
      <trkpt lat="47.75207" lon="4.68868">
        <ele>422.01674814577</ele>
        <time>2018-05-26T16:25:51Z</time>
      </trkpt>
      <trkpt lat="47.75211" lon="4.68863">
        <ele>421.76816805371</ele>
        <time>2018-05-26T16:25:58Z</time>
      </trkpt>
      <trkpt lat="47.75212" lon="4.68861">
        <ele>421.7276787225</ele>
        <time>2018-05-26T16:26:05Z</time>
      </trkpt>
      <trkpt lat="47.75214" lon="4.68859">
        <ele>421.47151795222</ele>
        <time>2018-05-26T16:26:11Z</time>
      </trkpt>
      <trkpt lat="47.75217" lon="4.6885">
        <ele>420.71180505525</ele>
        <time>2018-05-26T16:26:18Z</time>
      </trkpt>
      <trkpt lat="47.75219" lon="4.68845">
        <ele>419.58719874632</ele>
        <time>2018-05-26T16:26:25Z</time>
      </trkpt>
      <trkpt lat="47.75219" lon="4.68842">
        <ele>419.60183236076</ele>
        <time>2018-05-26T16:26:32Z</time>
      </trkpt>
      <trkpt lat="47.75222" lon="4.68838">
        <ele>419.90875737265</ele>
        <time>2018-05-26T16:26:38Z</time>
      </trkpt>
      <trkpt lat="47.75231" lon="4.68832">
        <ele>419.58330733057</ele>
        <time>2018-05-26T16:26:45Z</time>
      </trkpt>
      <trkpt lat="47.75235" lon="4.68825">
        <ele>419.6701632826</ele>
        <time>2018-05-26T16:26:52Z</time>
      </trkpt>
      <trkpt lat="47.75238" lon="4.68819">
        <ele>420.54197849872</ele>
        <time>2018-05-26T16:26:59Z</time>
      </trkpt>
      <trkpt lat="47.7524" lon="4.68814">
        <ele>420.73601388794</ele>
        <time>2018-05-26T16:27:05Z</time>
      </trkpt>
      <trkpt lat="47.75241" lon="4.68809">
        <ele>420.31449022531</ele>
        <time>2018-05-26T16:27:12Z</time>
      </trkpt>
      <trkpt lat="47.75244" lon="4.68807">
        <ele>419.67027247899</ele>
        <time>2018-05-26T16:27:18Z</time>
      </trkpt>
      <trkpt lat="47.75243" lon="4.68801">
        <ele>419.09516230669</ele>
        <time>2018-05-26T16:27:24Z</time>
      </trkpt>
      <trkpt lat="47.75244" lon="4.68793">
        <ele>418.3175055742</ele>
        <time>2018-05-26T16:27:30Z</time>
      </trkpt>
      <trkpt lat="47.75248" lon="4.68786">
        <ele>417.62560644576</ele>
        <time>2018-05-26T16:27:37Z</time>
      </trkpt>
      <trkpt lat="47.7525" lon="4.68785">
        <ele>416.84478290274</ele>
        <time>2018-05-26T16:27:44Z</time>
      </trkpt>
      <trkpt lat="47.7525" lon="4.68782">
        <ele>415.6261881126</ele>
        <time>2018-05-26T16:27:50Z</time>
      </trkpt>
      <trkpt lat="47.75249" lon="4.68777">
        <ele>414.08800511686</ele>
        <time>2018-05-26T16:27:57Z</time>
      </trkpt>
      <trkpt lat="47.7525" lon="4.6877">
        <ele>413.1130323197</ele>
        <time>2018-05-26T16:28:03Z</time>
      </trkpt>
      <trkpt lat="47.75251" lon="4.68764">
        <ele>412.57346414871</ele>
        <time>2018-05-26T16:28:11Z</time>
      </trkpt>
      <trkpt lat="47.75252" lon="4.68761">
        <ele>412.20842379939</ele>
        <time>2018-05-26T16:28:18Z</time>
      </trkpt>
      <trkpt lat="47.75253" lon="4.68753">
        <ele>411.93856483341</ele>
        <time>2018-05-26T16:28:25Z</time>
      </trkpt>
      <trkpt lat="47.75255" lon="4.68749">
        <ele>411.96824015117</ele>
        <time>2018-05-26T16:28:32Z</time>
      </trkpt>
      <trkpt lat="47.75258" lon="4.68743">
        <ele>412.03103854512</ele>
        <time>2018-05-26T16:28:38Z</time>
      </trkpt>
      <trkpt lat="47.75261" lon="4.68737">
        <ele>411.44364568441</ele>
        <time>2018-05-26T16:28:45Z</time>
      </trkpt>
      <trkpt lat="47.75267" lon="4.6873">
        <ele>411.34402257658</ele>
        <time>2018-05-26T16:28:51Z</time>
      </trkpt>
      <trkpt lat="47.75275" lon="4.68721">
        <ele>411.13735050265</ele>
        <time>2018-05-26T16:28:58Z</time>
      </trkpt>
      <trkpt lat="47.75291" lon="4.68711">
        <ele>411.12319584272</ele>
        <time>2018-05-26T16:29:04Z</time>
      </trkpt>
      <trkpt lat="47.75293" lon="4.68705">
        <ele>411.27511421335</ele>
        <time>2018-05-26T16:29:11Z</time>
      </trkpt>
      <trkpt lat="47.75298" lon="4.68699">
        <ele>411.42806838781</ele>
        <time>2018-05-26T16:29:18Z</time>
      </trkpt>
      <trkpt lat="47.753" lon="4.68693">
        <ele>411.14309720109</ele>
        <time>2018-05-26T16:29:24Z</time>
      </trkpt>
      <trkpt lat="47.753" lon="4.68683">
        <ele>410.72396185035</ele>
        <time>2018-05-26T16:29:31Z</time>
      </trkpt>
      <trkpt lat="47.75302" lon="4.68681">
        <ele>410.61744656541</ele>
        <time>2018-05-26T16:29:37Z</time>
      </trkpt>
      <trkpt lat="47.75307" lon="4.68674">
        <ele>411.01944991402</ele>
        <time>2018-05-26T16:29:44Z</time>
      </trkpt>
      <trkpt lat="47.75313" lon="4.68666">
        <ele>411.61810248612</ele>
        <time>2018-05-26T16:29:51Z</time>
      </trkpt>
      <trkpt lat="47.75317" lon="4.68659">
        <ele>411.93265756614</ele>
        <time>2018-05-26T16:29:57Z</time>
      </trkpt>
      <trkpt lat="47.75318" lon="4.68654">
        <ele>412.6828238933</ele>
        <time>2018-05-26T16:30:04Z</time>
      </trkpt>
      <trkpt lat="47.75317" lon="4.68643">
        <ele>412.26668182598</ele>
        <time>2018-05-26T16:30:11Z</time>
      </trkpt>
      <trkpt lat="47.75318" lon="4.68637">
        <ele>411.66945616156</ele>
        <time>2018-05-26T16:30:18Z</time>
      </trkpt>
      <trkpt lat="47.75318" lon="4.68634">
        <ele>411.55106736786</ele>
        <time>2018-05-26T16:30:24Z</time>
      </trkpt>
      <trkpt lat="47.75319" lon="4.68631">
        <ele>411.44386132877</ele>
        <time>2018-05-26T16:30:31Z</time>
      </trkpt>
      <trkpt lat="47.75325" lon="4.68625">
        <ele>411.24136419859</ele>
        <time>2018-05-26T16:30:38Z</time>
      </trkpt>
      <trkpt lat="47.75325" lon="4.68623">
        <ele>411.32037609823</ele>
        <time>2018-05-26T16:30:44Z</time>
      </trkpt>
      <trkpt lat="47.75326" lon="4.68624">
        <ele>411.47951163654</ele>
        <time>2018-05-26T16:30:51Z</time>
      </trkpt>
      <trkpt lat="47.75326" lon="4.68624">
        <ele>412.38143049828</ele>
        <time>2018-05-26T16:30:57Z</time>
      </trkpt>
      <trkpt lat="47.75326" lon="4.68625">
        <ele>412.49883206043</ele>
        <time>2018-05-26T16:31:04Z</time>
      </trkpt>
      <trkpt lat="47.75327" lon="4.68625">
        <ele>412.39127877194</ele>
        <time>2018-05-26T16:31:10Z</time>
      </trkpt>
      <trkpt lat="47.75327" lon="4.68625">
        <ele>412.53417525154</ele>
        <time>2018-05-26T16:31:17Z</time>
      </trkpt>
      <trkpt lat="47.75326" lon="4.68619">
        <ele>412.6261724245</ele>
        <time>2018-05-26T16:31:24Z</time>
      </trkpt>
      <trkpt lat="47.75327" lon="4.68621">
        <ele>412.16595484272</ele>
        <time>2018-05-26T16:31:30Z</time>
      </trkpt>
      <trkpt lat="47.75328" lon="4.68619">
        <ele>411.30109622255</ele>
        <time>2018-05-26T16:31:36Z</time>
      </trkpt>
      <trkpt lat="47.75332" lon="4.68611">
        <ele>410.60950614585</ele>
        <time>2018-05-26T16:31:43Z</time>
      </trkpt>
      <trkpt lat="47.75336" lon="4.68606">
        <ele>409.98638654588</ele>
        <time>2018-05-26T16:31:49Z</time>
      </trkpt>
      <trkpt lat="47.75339" lon="4.68599">
        <ele>409.52433787467</ele>
        <time>2018-05-26T16:31:56Z</time>
      </trkpt>
      <trkpt lat="47.75346" lon="4.6859">
        <ele>408.79491295537</ele>
        <time>2018-05-26T16:32:02Z</time>
      </trkpt>
      <trkpt lat="47.75347" lon="4.68588">
        <ele>408.419126906</ele>
        <time>2018-05-26T16:32:08Z</time>
      </trkpt>
      <trkpt lat="47.75349" lon="4.68584">
        <ele>407.62478857112</ele>
        <time>2018-05-26T16:32:15Z</time>
      </trkpt>
      <trkpt lat="47.75352" lon="4.68578">
        <ele>407.18702694438</ele>
        <time>2018-05-26T16:32:21Z</time>
      </trkpt>
      <trkpt lat="47.75354" lon="4.68574">
        <ele>406.19846674855</ele>
        <time>2018-05-26T16:32:28Z</time>
      </trkpt>
      <trkpt lat="47.75351" lon="4.68569">
        <ele>406.16137312508</ele>
        <time>2018-05-26T16:32:34Z</time>
      </trkpt>
      <trkpt lat="47.7535" lon="4.68565">
        <ele>406.12645551468</ele>
        <time>2018-05-26T16:32:40Z</time>
      </trkpt>
      <trkpt lat="47.75349" lon="4.68562">
        <ele>405.97483234075</ele>
        <time>2018-05-26T16:32:47Z</time>
      </trkpt>
      <trkpt lat="47.7535" lon="4.6856">
        <ele>405.77042301507</ele>
        <time>2018-05-26T16:32:54Z</time>
      </trkpt>
      <trkpt lat="47.75349" lon="4.68559">
        <ele>405.25388746186</ele>
        <time>2018-05-26T16:33:00Z</time>
      </trkpt>
      <trkpt lat="47.7535" lon="4.68557">
        <ele>403.95291901091</ele>
        <time>2018-05-26T16:33:07Z</time>
      </trkpt>
      <trkpt lat="47.7535" lon="4.68552">
        <ele>402.36214197288</ele>
        <time>2018-05-26T16:33:13Z</time>
      </trkpt>
      <trkpt lat="47.7535" lon="4.6855">
        <ele>402.23059056695</ele>
        <time>2018-05-26T16:33:19Z</time>
      </trkpt>
      <trkpt lat="47.75351" lon="4.68543">
        <ele>401.85006470122</ele>
        <time>2018-05-26T16:33:26Z</time>
      </trkpt>
      <trkpt lat="47.75352" lon="4.68539">
        <ele>401.68678414116</ele>
        <time>2018-05-26T16:33:33Z</time>
      </trkpt>
      <trkpt lat="47.75353" lon="4.68534">
        <ele>401.38375483563</ele>
        <time>2018-05-26T16:33:40Z</time>
      </trkpt>
      <trkpt lat="47.75354" lon="4.68529">
        <ele>400.67201008153</ele>
        <time>2018-05-26T16:33:47Z</time>
      </trkpt>
      <trkpt lat="47.75357" lon="4.6853">
        <ele>399.18419290353</ele>
        <time>2018-05-26T16:33:54Z</time>
      </trkpt>
      <trkpt lat="47.75358" lon="4.68526">
        <ele>398.12748221682</ele>
        <time>2018-05-26T16:34:01Z</time>
      </trkpt>
      <trkpt lat="47.75359" lon="4.68518">
        <ele>397.06539222653</ele>
        <time>2018-05-26T16:34:08Z</time>
      </trkpt>
      <trkpt lat="47.75354" lon="4.68509">
        <ele>395.98309271544</ele>
        <time>2018-05-26T16:34:14Z</time>
      </trkpt>
      <trkpt lat="47.75355" lon="4.68504">
        <ele>395.13237261729</ele>
        <time>2018-05-26T16:34:21Z</time>
      </trkpt>
      <trkpt lat="47.75355" lon="4.68498">
        <ele>394.29258751782</ele>
        <time>2018-05-26T16:34:28Z</time>
      </trkpt>
      <trkpt lat="47.75355" lon="4.68498">
        <ele>394.29470720382</ele>
        <time>2018-05-26T16:34:35Z</time>
      </trkpt>
      <trkpt lat="47.75348" lon="4.68485">
        <ele>393.82650838157</ele>
        <time>2018-05-26T16:34:41Z</time>
      </trkpt>
      <trkpt lat="47.75339" lon="4.68477">
        <ele>393.5973695546</ele>
        <time>2018-05-26T16:34:47Z</time>
      </trkpt>
      <trkpt lat="47.75337" lon="4.68473">
        <ele>393.29010533773</ele>
        <time>2018-05-26T16:34:54Z</time>
      </trkpt>
      <trkpt lat="47.75336" lon="4.68472">
        <ele>392.97177836833</ele>
        <time>2018-05-26T16:35:00Z</time>
      </trkpt>
      <trkpt lat="47.75335" lon="4.68467">
        <ele>392.22436273275</ele>
        <time>2018-05-26T16:35:07Z</time>
      </trkpt>
      <trkpt lat="47.75335" lon="4.68467">
        <ele>391.71444372266</ele>
        <time>2018-05-26T16:35:14Z</time>
      </trkpt>
      <trkpt lat="47.7533" lon="4.68454">
        <ele>391.43728733579</ele>
        <time>2018-05-26T16:35:21Z</time>
      </trkpt>
      <trkpt lat="47.75324" lon="4.68447">
        <ele>391.25101743403</ele>
        <time>2018-05-26T16:35:28Z</time>
      </trkpt>
      <trkpt lat="47.75322" lon="4.68441">
        <ele>390.68413678485</ele>
        <time>2018-05-26T16:35:34Z</time>
      </trkpt>
      <trkpt lat="47.75321" lon="4.68434">
        <ele>390.12010361294</ele>
        <time>2018-05-26T16:35:41Z</time>
      </trkpt>
      <trkpt lat="47.7532" lon="4.6843">
        <ele>389.74806123269</ele>
        <time>2018-05-26T16:35:47Z</time>
      </trkpt>
      <trkpt lat="47.75316" lon="4.68424">
        <ele>389.1888373026</ele>
        <time>2018-05-26T16:35:54Z</time>
      </trkpt>
      <trkpt lat="47.75313" lon="4.6842">
        <ele>389.10279088706</ele>
        <time>2018-05-26T16:36:00Z</time>
      </trkpt>
      <trkpt lat="47.75313" lon="4.6842">
        <ele>388.72787125282</ele>
        <time>2018-05-26T16:36:06Z</time>
      </trkpt>
      <trkpt lat="47.75311" lon="4.68418">
        <ele>388.59910359199</ele>
        <time>2018-05-26T16:36:13Z</time>
      </trkpt>
      <trkpt lat="47.75308" lon="4.68411">
        <ele>388.51283501619</ele>
        <time>2018-05-26T16:36:20Z</time>
      </trkpt>
      <trkpt lat="47.75307" lon="4.68407">
        <ele>388.21604930711</ele>
        <time>2018-05-26T16:36:27Z</time>
      </trkpt>
      <trkpt lat="47.75307" lon="4.68406">
        <ele>388.00231180213</ele>
        <time>2018-05-26T16:36:33Z</time>
      </trkpt>
      <trkpt lat="47.75307" lon="4.68403">
        <ele>387.40315928452</ele>
        <time>2018-05-26T16:36:40Z</time>
      </trkpt>
      <trkpt lat="47.75306" lon="4.68402">
        <ele>387.24325341073</ele>
        <time>2018-05-26T16:36:47Z</time>
      </trkpt>
      <trkpt lat="47.75305" lon="4.68402">
        <ele>387.28770961628</ele>
        <time>2018-05-26T16:36:54Z</time>
      </trkpt>
      <trkpt lat="47.75304" lon="4.68401">
        <ele>387.3135049801</ele>
        <time>2018-05-26T16:37:01Z</time>
      </trkpt>
      <trkpt lat="47.75303" lon="4.68401">
        <ele>387.28296952095</ele>
        <time>2018-05-26T16:37:07Z</time>
      </trkpt>
      <trkpt lat="47.75303" lon="4.684">
        <ele>387.15215661108</ele>
        <time>2018-05-26T16:37:14Z</time>
      </trkpt>
      <trkpt lat="47.75303" lon="4.684">
        <ele>386.9887074671</ele>
        <time>2018-05-26T16:37:20Z</time>
      </trkpt>
      <trkpt lat="47.753" lon="4.68398">
        <ele>386.09038472025</ele>
        <time>2018-05-26T16:37:27Z</time>
      </trkpt>
      <trkpt lat="47.753" lon="4.68397">
        <ele>385.10781545389</ele>
        <time>2018-05-26T16:37:33Z</time>
      </trkpt>
      <trkpt lat="47.75297" lon="4.68394">
        <ele>383.89182036106</ele>
        <time>2018-05-26T16:37:40Z</time>
      </trkpt>
      <trkpt lat="47.75294" lon="4.68387">
        <ele>383.52276738378</ele>
        <time>2018-05-26T16:37:47Z</time>
      </trkpt>
      <trkpt lat="47.75289" lon="4.68379">
        <ele>382.87262234287</ele>
        <time>2018-05-26T16:37:53Z</time>
      </trkpt>
      <trkpt lat="47.75287" lon="4.68377">
        <ele>382.23848510976</ele>
        <time>2018-05-26T16:38:00Z</time>
      </trkpt>
      <trkpt lat="47.75283" lon="4.68371">
        <ele>381.08151575772</ele>
        <time>2018-05-26T16:38:07Z</time>
      </trkpt>
      <trkpt lat="47.75282" lon="4.68366">
        <ele>380.57958766322</ele>
        <time>2018-05-26T16:38:13Z</time>
      </trkpt>
      <trkpt lat="47.75281" lon="4.68366">
        <ele>379.91571127707</ele>
        <time>2018-05-26T16:38:19Z</time>
      </trkpt>
      <trkpt lat="47.75281" lon="4.68365">
        <ele>379.46206138215</ele>
        <time>2018-05-26T16:38:25Z</time>
      </trkpt>
      <trkpt lat="47.75277" lon="4.68362">
        <ele>378.93167934644</ele>
        <time>2018-05-26T16:38:32Z</time>
      </trkpt>
      <trkpt lat="47.75271" lon="4.68356">
        <ele>377.7184458052</ele>
        <time>2018-05-26T16:38:38Z</time>
      </trkpt>
      <trkpt lat="47.75261" lon="4.68345">
        <ele>375.63688180941</ele>
        <time>2018-05-26T16:38:45Z</time>
      </trkpt>
      <trkpt lat="47.75259" lon="4.68343">
        <ele>374.50701265606</ele>
        <time>2018-05-26T16:38:52Z</time>
      </trkpt>
      <trkpt lat="47.75253" lon="4.68337">
        <ele>373.81603581594</ele>
        <time>2018-05-26T16:38:59Z</time>
      </trkpt>
      <trkpt lat="47.75252" lon="4.68334">
        <ele>373.37238379293</ele>
        <time>2018-05-26T16:39:05Z</time>
      </trkpt>
      <trkpt lat="47.75248" lon="4.68327">
        <ele>372.835496703</ele>
        <time>2018-05-26T16:39:11Z</time>
      </trkpt>
      <trkpt lat="47.75243" lon="4.68319">
        <ele>372.15486350545</ele>
        <time>2018-05-26T16:39:18Z</time>
      </trkpt>
      <trkpt lat="47.75238" lon="4.68319">
        <ele>370.89529936381</ele>
        <time>2018-05-26T16:39:25Z</time>
      </trkpt>
      <trkpt lat="47.75232" lon="4.68316">
        <ele>370.48381582058</ele>
        <time>2018-05-26T16:39:35Z</time>
      </trkpt>
      <trkpt lat="47.75235" lon="4.68318">
        <ele>369.2008716861</ele>
        <time>2018-05-26T16:39:42Z</time>
      </trkpt>
      <trkpt lat="47.75235" lon="4.68318">
        <ele>369.07420704992</ele>
        <time>2018-05-26T16:39:48Z</time>
      </trkpt>
      <trkpt lat="47.75236" lon="4.68318">
        <ele>369.18427903984</ele>
        <time>2018-05-26T16:39:55Z</time>
      </trkpt>
      <trkpt lat="47.75233" lon="4.68315">
        <ele>369.55837035232</ele>
        <time>2018-05-26T16:40:02Z</time>
      </trkpt>
      <trkpt lat="47.75232" lon="4.68313">
        <ele>370.17093739911</ele>
        <time>2018-05-26T16:40:09Z</time>
      </trkpt>
      <trkpt lat="47.75232" lon="4.68313">
        <ele>370.99930361673</ele>
        <time>2018-05-26T16:40:15Z</time>
      </trkpt>
      <trkpt lat="47.75232" lon="4.68313">
        <ele>371.22543216342</ele>
        <time>2018-05-26T16:40:22Z</time>
      </trkpt>
      <trkpt lat="47.7523" lon="4.68307">
        <ele>371.11932202655</ele>
        <time>2018-05-26T16:40:28Z</time>
      </trkpt>
      <trkpt lat="47.75228" lon="4.68301">
        <ele>370.79836867753</ele>
        <time>2018-05-26T16:40:35Z</time>
      </trkpt>
      <trkpt lat="47.75226" lon="4.683">
        <ele>370.44766989411</ele>
        <time>2018-05-26T16:40:42Z</time>
      </trkpt>
      <trkpt lat="47.75225" lon="4.68299">
        <ele>370.49800647027</ele>
        <time>2018-05-26T16:40:48Z</time>
      </trkpt>
      <trkpt lat="47.75225" lon="4.68297">
        <ele>370.16784452021</ele>
        <time>2018-05-26T16:40:54Z</time>
      </trkpt>
      <trkpt lat="47.75224" lon="4.68291">
        <ele>369.53098498483</ele>
        <time>2018-05-26T16:41:00Z</time>
      </trkpt>
      <trkpt lat="47.75225" lon="4.68285">
        <ele>368.93989232501</ele>
        <time>2018-05-26T16:41:07Z</time>
      </trkpt>
      <trkpt lat="47.75225" lon="4.68287">
        <ele>368.97194760036</ele>
        <time>2018-05-26T16:41:13Z</time>
      </trkpt>
      <trkpt lat="47.75225" lon="4.68288">
        <ele>369.01409086076</ele>
        <time>2018-05-26T16:41:20Z</time>
      </trkpt>
      <trkpt lat="47.75224" lon="4.68287">
        <ele>368.58370977241</ele>
        <time>2018-05-26T16:41:27Z</time>
      </trkpt>
      <trkpt lat="47.75224" lon="4.68287">
        <ele>368.45968659516</ele>
        <time>2018-05-26T16:41:33Z</time>
      </trkpt>
      <trkpt lat="47.75224" lon="4.68284">
        <ele>367.9749085835</ele>
        <time>2018-05-26T16:41:40Z</time>
      </trkpt>
      <trkpt lat="47.7522" lon="4.68282">
        <ele>367.4997081194</ele>
        <time>2018-05-26T16:41:47Z</time>
      </trkpt>
      <trkpt lat="47.75221" lon="4.68276">
        <ele>366.1146329176</ele>
        <time>2018-05-26T16:41:54Z</time>
      </trkpt>
      <trkpt lat="47.75223" lon="4.68269">
        <ele>365.54426598807</ele>
        <time>2018-05-26T16:42:01Z</time>
      </trkpt>
      <trkpt lat="47.75217" lon="4.68253">
        <ele>363.60681184843</ele>
        <time>2018-05-26T16:42:07Z</time>
      </trkpt>
      <trkpt lat="47.75214" lon="4.68237">
        <ele>361.66092870891</ele>
        <time>2018-05-26T16:42:14Z</time>
      </trkpt>
      <trkpt lat="47.75214" lon="4.68228">
        <ele>361.07328101298</ele>
        <time>2018-05-26T16:42:20Z</time>
      </trkpt>
      <trkpt lat="47.75215" lon="4.68223">
        <ele>360.4367114328</ele>
        <time>2018-05-26T16:42:27Z</time>
      </trkpt>
      <trkpt lat="47.75217" lon="4.68217">
        <ele>359.49326734979</ele>
        <time>2018-05-26T16:42:33Z</time>
      </trkpt>
      <trkpt lat="47.75219" lon="4.68212">
        <ele>358.99476059503</ele>
        <time>2018-05-26T16:42:40Z</time>
      </trkpt>
      <trkpt lat="47.75219" lon="4.68201">
        <ele>358.32971218917</ele>
        <time>2018-05-26T16:42:46Z</time>
      </trkpt>
      <trkpt lat="47.7522" lon="4.68191">
        <ele>357.14116518104</ele>
        <time>2018-05-26T16:42:53Z</time>
      </trkpt>
      <trkpt lat="47.7522" lon="4.68186">
        <ele>356.8953540999</ele>
        <time>2018-05-26T16:43:00Z</time>
      </trkpt>
      <trkpt lat="47.7522" lon="4.68186">
        <ele>356.55525673783</ele>
        <time>2018-05-26T16:43:06Z</time>
      </trkpt>
      <trkpt lat="47.75221" lon="4.68185">
        <ele>355.32959250203</ele>
        <time>2018-05-26T16:43:13Z</time>
      </trkpt>
      <trkpt lat="47.75222" lon="4.68187">
        <ele>355.08990022845</ele>
        <time>2018-05-26T16:43:20Z</time>
      </trkpt>
      <trkpt lat="47.75223" lon="4.68189">
        <ele>354.97294044092</ele>
        <time>2018-05-26T16:43:27Z</time>
      </trkpt>
      <trkpt lat="47.75224" lon="4.6819">
        <ele>354.90289803999</ele>
        <time>2018-05-26T16:43:34Z</time>
      </trkpt>
      <trkpt lat="47.75225" lon="4.6819">
        <ele>354.82821097243</ele>
        <time>2018-05-26T16:43:40Z</time>
      </trkpt>
      <trkpt lat="47.75225" lon="4.6819">
        <ele>355.05905750376</ele>
        <time>2018-05-26T16:43:47Z</time>
      </trkpt>
      <trkpt lat="47.75225" lon="4.6819">
        <ele>355.42165723283</ele>
        <time>2018-05-26T16:43:53Z</time>
      </trkpt>
      <trkpt lat="47.75225" lon="4.6819">
        <ele>355.98053885502</ele>
        <time>2018-05-26T16:44:00Z</time>
      </trkpt>
      <trkpt lat="47.75225" lon="4.6819">
        <ele>356.2506006846</ele>
        <time>2018-05-26T16:44:06Z</time>
      </trkpt>
      <trkpt lat="47.75225" lon="4.6819">
        <ele>356.58337710009</ele>
        <time>2018-05-26T16:44:13Z</time>
      </trkpt>
      <trkpt lat="47.75224" lon="4.68189">
        <ele>357.53566759067</ele>
        <time>2018-05-26T16:44:20Z</time>
      </trkpt>
      <trkpt lat="47.75224" lon="4.68189">
        <ele>357.50059613888</ele>
        <time>2018-05-26T16:44:27Z</time>
      </trkpt>
      <trkpt lat="47.75224" lon="4.68189">
        <ele>356.81639760372</ele>
        <time>2018-05-26T16:44:34Z</time>
      </trkpt>
      <trkpt lat="47.7523" lon="4.68188">
        <ele>356.12404428236</ele>
        <time>2018-05-26T16:44:40Z</time>
      </trkpt>
      <trkpt lat="47.75238" lon="4.68185">
        <ele>354.53506015361</ele>
        <time>2018-05-26T16:44:47Z</time>
      </trkpt>
      <trkpt lat="47.7524" lon="4.68185">
        <ele>354.01902837976</ele>
        <time>2018-05-26T16:44:53Z</time>
      </trkpt>
      <trkpt lat="47.7524" lon="4.68181">
        <ele>353.81022391292</ele>
        <time>2018-05-26T16:44:59Z</time>
      </trkpt>
      <trkpt lat="47.75241" lon="4.68178">
        <ele>353.2775241173</ele>
        <time>2018-05-26T16:45:06Z</time>
      </trkpt>
      <trkpt lat="47.75241" lon="4.68177">
        <ele>353.17146111873</ele>
        <time>2018-05-26T16:45:12Z</time>
      </trkpt>
      <trkpt lat="47.75241" lon="4.68176">
        <ele>352.86846050755</ele>
        <time>2018-05-26T16:45:18Z</time>
      </trkpt>
      <trkpt lat="47.75241" lon="4.68176">
        <ele>352.71808101863</ele>
        <time>2018-05-26T16:45:25Z</time>
      </trkpt>
      <trkpt lat="47.75241" lon="4.68176">
        <ele>352.7263801974</ele>
        <time>2018-05-26T16:45:31Z</time>
      </trkpt>
      <trkpt lat="47.75244" lon="4.68176">
        <ele>353.58134301717</ele>
        <time>2018-05-26T16:45:38Z</time>
      </trkpt>
      <trkpt lat="47.75246" lon="4.68175">
        <ele>353.90464676658</ele>
        <time>2018-05-26T16:45:44Z</time>
      </trkpt>
      <trkpt lat="47.75246" lon="4.68175">
        <ele>353.86630532022</ele>
        <time>2018-05-26T16:45:51Z</time>
      </trkpt>
      <trkpt lat="47.75247" lon="4.68175">
        <ele>353.8879916406</ele>
        <time>2018-05-26T16:45:57Z</time>
      </trkpt>
      <trkpt lat="47.75248" lon="4.68173">
        <ele>354.04194008031</ele>
        <time>2018-05-26T16:46:03Z</time>
      </trkpt>
      <trkpt lat="47.75247" lon="4.68172">
        <ele>354.6366296712</ele>
        <time>2018-05-26T16:46:10Z</time>
      </trkpt>
      <trkpt lat="47.75247" lon="4.68172">
        <ele>353.91492434448</ele>
        <time>2018-05-26T16:46:16Z</time>
      </trkpt>
      <trkpt lat="47.7525" lon="4.68173">
        <ele>352.93103195732</ele>
        <time>2018-05-26T16:46:23Z</time>
      </trkpt>
      <trkpt lat="47.75251" lon="4.68173">
        <ele>353.5613143705</ele>
        <time>2018-05-26T16:46:30Z</time>
      </trkpt>
      <trkpt lat="47.75252" lon="4.68173">
        <ele>354.04193112892</ele>
        <time>2018-05-26T16:46:36Z</time>
      </trkpt>
      <trkpt lat="47.75256" lon="4.68175">
        <ele>354.81254293548</ele>
        <time>2018-05-26T16:46:42Z</time>
      </trkpt>
      <trkpt lat="47.7526" lon="4.6818">
        <ele>355.81078423003</ele>
        <time>2018-05-26T16:46:49Z</time>
      </trkpt>
      <trkpt lat="47.75264" lon="4.68186">
        <ele>356.04090834718</ele>
        <time>2018-05-26T16:46:56Z</time>
      </trkpt>
      <trkpt lat="47.75271" lon="4.68186">
        <ele>356.56910549103</ele>
        <time>2018-05-26T16:47:03Z</time>
      </trkpt>
      <trkpt lat="47.7528" lon="4.68181">
        <ele>357.4890830483</ele>
        <time>2018-05-26T16:47:09Z</time>
      </trkpt>
      <trkpt lat="47.75289" lon="4.68188">
        <ele>357.75119217791</ele>
        <time>2018-05-26T16:47:15Z</time>
      </trkpt>
      <trkpt lat="47.75302" lon="4.68195">
        <ele>357.83495310394</ele>
        <time>2018-05-26T16:47:22Z</time>
      </trkpt>
      <trkpt lat="47.75309" lon="4.68196">
        <ele>357.75072206873</ele>
        <time>2018-05-26T16:47:28Z</time>
      </trkpt>
      <trkpt lat="47.75318" lon="4.682">
        <ele>358.41004983901</ele>
        <time>2018-05-26T16:47:35Z</time>
      </trkpt>
      <trkpt lat="47.75323" lon="4.68202">
        <ele>359.29876801079</ele>
        <time>2018-05-26T16:47:42Z</time>
      </trkpt>
      <trkpt lat="47.75327" lon="4.68204">
        <ele>359.27867845374</ele>
        <time>2018-05-26T16:47:49Z</time>
      </trkpt>
      <trkpt lat="47.75328" lon="4.68205">
        <ele>359.88943780251</ele>
        <time>2018-05-26T16:47:55Z</time>
      </trkpt>
      <trkpt lat="47.75328" lon="4.68206">
        <ele>361.94203656343</ele>
        <time>2018-05-26T16:48:02Z</time>
      </trkpt>
      <trkpt lat="47.75336" lon="4.68202">
        <ele>364.24749894835</ele>
        <time>2018-05-26T16:48:09Z</time>
      </trkpt>
      <trkpt lat="47.75344" lon="4.68201">
        <ele>365.75958231916</ele>
        <time>2018-05-26T16:48:15Z</time>
      </trkpt>
      <trkpt lat="47.75349" lon="4.68201">
        <ele>366.20948630017</ele>
        <time>2018-05-26T16:48:21Z</time>
      </trkpt>
      <trkpt lat="47.7535" lon="4.682">
        <ele>366.4459250562</ele>
        <time>2018-05-26T16:48:28Z</time>
      </trkpt>
      <trkpt lat="47.75348" lon="4.68196">
        <ele>366.6097220541</ele>
        <time>2018-05-26T16:48:35Z</time>
      </trkpt>
      <trkpt lat="47.7535" lon="4.68189">
        <ele>366.32202309614</ele>
        <time>2018-05-26T16:48:42Z</time>
      </trkpt>
      <trkpt lat="47.75348" lon="4.68181">
        <ele>365.70275117033</ele>
        <time>2018-05-26T16:48:49Z</time>
      </trkpt>
      <trkpt lat="47.75346" lon="4.68175">
        <ele>365.32385650706</ele>
        <time>2018-05-26T16:48:55Z</time>
      </trkpt>
      <trkpt lat="47.75344" lon="4.68163">
        <ele>365.17486384284</ele>
        <time>2018-05-26T16:49:01Z</time>
      </trkpt>
      <trkpt lat="47.75343" lon="4.68156">
        <ele>365.02702600809</ele>
        <time>2018-05-26T16:49:08Z</time>
      </trkpt>
      <trkpt lat="47.7534" lon="4.68148">
        <ele>365.60281159002</ele>
        <time>2018-05-26T16:49:14Z</time>
      </trkpt>
      <trkpt lat="47.75338" lon="4.68142">
        <ele>366.05383823923</ele>
        <time>2018-05-26T16:49:21Z</time>
      </trkpt>
      <trkpt lat="47.75335" lon="4.68138">
        <ele>366.44240728493</ele>
        <time>2018-05-26T16:49:27Z</time>
      </trkpt>
      <trkpt lat="47.75329" lon="4.68135">
        <ele>366.55676289214</ele>
        <time>2018-05-26T16:49:33Z</time>
      </trkpt>
      <trkpt lat="47.75326" lon="4.68133">
        <ele>366.88376301098</ele>
        <time>2018-05-26T16:49:40Z</time>
      </trkpt>
      <trkpt lat="47.75328" lon="4.68133">
        <ele>366.74164689912</ele>
        <time>2018-05-26T16:49:46Z</time>
      </trkpt>
      <trkpt lat="47.75329" lon="4.68132">
        <ele>366.72412645523</ele>
        <time>2018-05-26T16:49:53Z</time>
      </trkpt>
      <trkpt lat="47.75331" lon="4.68135">
        <ele>366.83850948656</ele>
        <time>2018-05-26T16:49:59Z</time>
      </trkpt>
      <trkpt lat="47.75331" lon="4.68135">
        <ele>367.38694102103</ele>
        <time>2018-05-26T16:50:06Z</time>
      </trkpt>
      <trkpt lat="47.75331" lon="4.68135">
        <ele>367.41875016779</ele>
        <time>2018-05-26T16:50:13Z</time>
      </trkpt>
      <trkpt lat="47.75331" lon="4.68135">
        <ele>367.39969334356</ele>
        <time>2018-05-26T16:50:20Z</time>
      </trkpt>
      <trkpt lat="47.7533" lon="4.68135">
        <ele>367.13721032156</ele>
        <time>2018-05-26T16:50:27Z</time>
      </trkpt>
      <trkpt lat="47.75329" lon="4.68134">
        <ele>366.9860794607</ele>
        <time>2018-05-26T16:50:34Z</time>
      </trkpt>
      <trkpt lat="47.75328" lon="4.68134">
        <ele>367.60662620516</ele>
        <time>2018-05-26T16:50:41Z</time>
      </trkpt>
      <trkpt lat="47.75325" lon="4.68135">
        <ele>368.49172117465</ele>
        <time>2018-05-26T16:50:48Z</time>
      </trkpt>
      <trkpt lat="47.75325" lon="4.68135">
        <ele>368.63694854908</ele>
        <time>2018-05-26T16:50:54Z</time>
      </trkpt>
      <trkpt lat="47.75324" lon="4.68135">
        <ele>368.25175495631</ele>
        <time>2018-05-26T16:51:01Z</time>
      </trkpt>
      <trkpt lat="47.75323" lon="4.68135">
        <ele>367.45922680739</ele>
        <time>2018-05-26T16:51:07Z</time>
      </trkpt>
      <trkpt lat="47.75321" lon="4.68131">
        <ele>367.04721546964</ele>
        <time>2018-05-26T16:51:14Z</time>
      </trkpt>
      <trkpt lat="47.7532" lon="4.68127">
        <ele>366.9587287001</ele>
        <time>2018-05-26T16:51:20Z</time>
      </trkpt>
      <trkpt lat="47.75318" lon="4.68119">
        <ele>366.6598018995</ele>
        <time>2018-05-26T16:51:27Z</time>
      </trkpt>
      <trkpt lat="47.75312" lon="4.6811">
        <ele>367.42303897192</ele>
        <time>2018-05-26T16:51:34Z</time>
      </trkpt>
      <trkpt lat="47.7531" lon="4.68101">
        <ele>368.18387801587</ele>
        <time>2018-05-26T16:51:41Z</time>
      </trkpt>
      <trkpt lat="47.75308" lon="4.68098">
        <ele>368.83031345074</ele>
        <time>2018-05-26T16:51:48Z</time>
      </trkpt>
      <trkpt lat="47.75306" lon="4.68093">
        <ele>369.6452678677</ele>
        <time>2018-05-26T16:51:54Z</time>
      </trkpt>
      <trkpt lat="47.75301" lon="4.68087">
        <ele>370.11647571257</ele>
        <time>2018-05-26T16:52:01Z</time>
      </trkpt>
      <trkpt lat="47.75294" lon="4.68076">
        <ele>370.72761747581</ele>
        <time>2018-05-26T16:52:08Z</time>
      </trkpt>
      <trkpt lat="47.75292" lon="4.68066">
        <ele>371.40210451382</ele>
        <time>2018-05-26T16:52:14Z</time>
      </trkpt>
      <trkpt lat="47.75292" lon="4.68066">
        <ele>371.99811761648</ele>
        <time>2018-05-26T16:52:21Z</time>
      </trkpt>
      <trkpt lat="47.75292" lon="4.68066">
        <ele>373.14516608526</ele>
        <time>2018-05-26T16:52:28Z</time>
      </trkpt>
      <trkpt lat="47.75291" lon="4.68065">
        <ele>373.64939559798</ele>
        <time>2018-05-26T16:52:34Z</time>
      </trkpt>
      <trkpt lat="47.7529" lon="4.68059">
        <ele>374.30644136511</ele>
        <time>2018-05-26T16:52:41Z</time>
      </trkpt>
      <trkpt lat="47.75286" lon="4.6804">
        <ele>374.90373105105</ele>
        <time>2018-05-26T16:52:47Z</time>
      </trkpt>
      <trkpt lat="47.75281" lon="4.68024">
        <ele>375.28810303994</ele>
        <time>2018-05-26T16:52:54Z</time>
      </trkpt>
      <trkpt lat="47.75277" lon="4.68016">
        <ele>375.67180248472</ele>
        <time>2018-05-26T16:53:00Z</time>
      </trkpt>
      <trkpt lat="47.75277" lon="4.68006">
        <ele>376.75655807135</ele>
        <time>2018-05-26T16:53:07Z</time>
      </trkpt>
      <trkpt lat="47.75276" lon="4.6799">
        <ele>377.67399827607</ele>
        <time>2018-05-26T16:53:13Z</time>
      </trkpt>
      <trkpt lat="47.75278" lon="4.67985">
        <ele>378.48771545126</ele>
        <time>2018-05-26T16:53:20Z</time>
      </trkpt>
      <trkpt lat="47.75277" lon="4.67974">
        <ele>379.62399526198</ele>
        <time>2018-05-26T16:53:27Z</time>
      </trkpt>
      <trkpt lat="47.75275" lon="4.67962">
        <ele>381.26066477988</ele>
        <time>2018-05-26T16:53:33Z</time>
      </trkpt>
      <trkpt lat="47.75274" lon="4.67951">
        <ele>382.50683728495</ele>
        <time>2018-05-26T16:53:39Z</time>
      </trkpt>
      <trkpt lat="47.75273" lon="4.67938">
        <ele>384.04211992804</ele>
        <time>2018-05-26T16:53:45Z</time>
      </trkpt>
      <trkpt lat="47.75273" lon="4.67929">
        <ele>385.47951199715</ele>
        <time>2018-05-26T16:53:52Z</time>
      </trkpt>
      <trkpt lat="47.75272" lon="4.67923">
        <ele>385.83663630692</ele>
        <time>2018-05-26T16:53:59Z</time>
      </trkpt>
      <trkpt lat="47.75271" lon="4.67918">
        <ele>385.23577521941</ele>
        <time>2018-05-26T16:54:06Z</time>
      </trkpt>
      <trkpt lat="47.75272" lon="4.6791">
        <ele>384.69873087848</ele>
        <time>2018-05-26T16:54:12Z</time>
      </trkpt>
      <trkpt lat="47.75272" lon="4.67903">
        <ele>383.95433344749</ele>
        <time>2018-05-26T16:54:19Z</time>
      </trkpt>
      <trkpt lat="47.75274" lon="4.67895">
        <ele>383.86959136833</ele>
        <time>2018-05-26T16:54:25Z</time>
      </trkpt>
      <trkpt lat="47.75274" lon="4.67888">
        <ele>383.44866198233</ele>
        <time>2018-05-26T16:54:31Z</time>
      </trkpt>
      <trkpt lat="47.75272" lon="4.6788">
        <ele>382.49828867437</ele>
        <time>2018-05-26T16:54:37Z</time>
      </trkpt>
      <trkpt lat="47.75275" lon="4.67869">
        <ele>382.37345217065</ele>
        <time>2018-05-26T16:54:43Z</time>
      </trkpt>
      <trkpt lat="47.75274" lon="4.67859">
        <ele>382.44405203619</ele>
        <time>2018-05-26T16:54:50Z</time>
      </trkpt>
      <trkpt lat="47.75275" lon="4.67852">
        <ele>382.62236178772</ele>
        <time>2018-05-26T16:54:57Z</time>
      </trkpt>
      <trkpt lat="47.75272" lon="4.67839">
        <ele>383.09557537155</ele>
        <time>2018-05-26T16:55:04Z</time>
      </trkpt>
      <trkpt lat="47.75271" lon="4.67836">
        <ele>383.16847915093</ele>
        <time>2018-05-26T16:55:11Z</time>
      </trkpt>
      <trkpt lat="47.75269" lon="4.67841">
        <ele>383.8086897701</ele>
        <time>2018-05-26T16:55:17Z</time>
      </trkpt>
      <trkpt lat="47.75268" lon="4.67857">
        <ele>384.61802785304</ele>
        <time>2018-05-26T16:55:24Z</time>
      </trkpt>
      <trkpt lat="47.75268" lon="4.67862">
        <ele>385.06420883065</ele>
        <time>2018-05-26T16:55:30Z</time>
      </trkpt>
      <trkpt lat="47.75268" lon="4.67862">
        <ele>385.17116088257</ele>
        <time>2018-05-26T16:55:37Z</time>
      </trkpt>
      <trkpt lat="47.75268" lon="4.67862">
        <ele>385.02961418718</ele>
        <time>2018-05-26T16:55:43Z</time>
      </trkpt>
      <trkpt lat="47.75263" lon="4.67866">
        <ele>384.9930470919</ele>
        <time>2018-05-26T16:55:49Z</time>
      </trkpt>
      <trkpt lat="47.75262" lon="4.6787">
        <ele>384.99148798492</ele>
        <time>2018-05-26T16:55:56Z</time>
      </trkpt>
      <trkpt lat="47.75264" lon="4.67871">
        <ele>384.88582241303</ele>
        <time>2018-05-26T16:56:03Z</time>
      </trkpt>
      <trkpt lat="47.75269" lon="4.67874">
        <ele>384.59223272473</ele>
        <time>2018-05-26T16:56:09Z</time>
      </trkpt>
      <trkpt lat="47.7527" lon="4.67873">
        <ele>383.17350328946</ele>
        <time>2018-05-26T16:56:15Z</time>
      </trkpt>
      <trkpt lat="47.75269" lon="4.67864">
        <ele>381.84365328885</ele>
        <time>2018-05-26T16:56:21Z</time>
      </trkpt>
      <trkpt lat="47.7527" lon="4.67836">
        <ele>381.61094439098</ele>
        <time>2018-05-26T16:56:28Z</time>
      </trkpt>
      <trkpt lat="47.75272" lon="4.67832">
        <ele>381.95926328332</ele>
        <time>2018-05-26T16:56:35Z</time>
      </trkpt>
      <trkpt lat="47.75269" lon="4.6782">
        <ele>382.29118491395</ele>
        <time>2018-05-26T16:56:42Z</time>
      </trkpt>
      <trkpt lat="47.75268" lon="4.67816">
        <ele>382.48536039452</ele>
        <time>2018-05-26T16:56:49Z</time>
      </trkpt>
      <trkpt lat="47.75267" lon="4.67816">
        <ele>382.89987967741</ele>
        <time>2018-05-26T16:56:55Z</time>
      </trkpt>
      <trkpt lat="47.75268" lon="4.67813">
        <ele>383.33911748802</ele>
        <time>2018-05-26T16:57:02Z</time>
      </trkpt>
      <trkpt lat="47.75266" lon="4.67801">
        <ele>384.36499083445</ele>
        <time>2018-05-26T16:57:09Z</time>
      </trkpt>
      <trkpt lat="47.75265" lon="4.67786">
        <ele>384.96968335373</ele>
        <time>2018-05-26T16:57:16Z</time>
      </trkpt>
      <trkpt lat="47.75265" lon="4.67779">
        <ele>385.35358879294</ele>
        <time>2018-05-26T16:57:22Z</time>
      </trkpt>
      <trkpt lat="47.75262" lon="4.6777">
        <ele>385.53909999813</ele>
        <time>2018-05-26T16:57:29Z</time>
      </trkpt>
      <trkpt lat="47.75262" lon="4.67761">
        <ele>386.07434590044</ele>
        <time>2018-05-26T16:57:35Z</time>
      </trkpt>
      <trkpt lat="47.75262" lon="4.67753">
        <ele>386.1502634842</ele>
        <time>2018-05-26T16:57:41Z</time>
      </trkpt>
      <trkpt lat="47.75262" lon="4.67743">
        <ele>386.44355176536</ele>
        <time>2018-05-26T16:57:48Z</time>
      </trkpt>
      <trkpt lat="47.75259" lon="4.67735">
        <ele>386.56426705735</ele>
        <time>2018-05-26T16:57:54Z</time>
      </trkpt>
      <trkpt lat="47.75257" lon="4.67725">
        <ele>386.82351201554</ele>
        <time>2018-05-26T16:58:00Z</time>
      </trkpt>
      <trkpt lat="47.75257" lon="4.67716">
        <ele>387.5470092155</ele>
        <time>2018-05-26T16:58:07Z</time>
      </trkpt>
      <trkpt lat="47.75258" lon="4.6771">
        <ele>388.08508208015</ele>
        <time>2018-05-26T16:58:13Z</time>
      </trkpt>
      <trkpt lat="47.75258" lon="4.67706">
        <ele>388.60208623749</ele>
        <time>2018-05-26T16:58:20Z</time>
      </trkpt>
      <trkpt lat="47.75256" lon="4.67695">
        <ele>389.16065616172</ele>
        <time>2018-05-26T16:58:27Z</time>
      </trkpt>
      <trkpt lat="47.75254" lon="4.67686">
        <ele>389.74073319213</ele>
        <time>2018-05-26T16:58:34Z</time>
      </trkpt>
      <trkpt lat="47.75252" lon="4.67675">
        <ele>389.98457591214</ele>
        <time>2018-05-26T16:58:41Z</time>
      </trkpt>
      <trkpt lat="47.75249" lon="4.67666">
        <ele>390.73600958825</ele>
        <time>2018-05-26T16:58:48Z</time>
      </trkpt>
      <trkpt lat="47.75246" lon="4.67656">
        <ele>391.40563582896</ele>
        <time>2018-05-26T16:58:55Z</time>
      </trkpt>
      <trkpt lat="47.75244" lon="4.6765">
        <ele>391.75321279244</ele>
        <time>2018-05-26T16:59:01Z</time>
      </trkpt>
      <trkpt lat="47.75241" lon="4.6764">
        <ele>392.35945864543</ele>
        <time>2018-05-26T16:59:08Z</time>
      </trkpt>
      <trkpt lat="47.75241" lon="4.67637">
        <ele>392.43911645551</ele>
        <time>2018-05-26T16:59:15Z</time>
      </trkpt>
      <trkpt lat="47.75242" lon="4.67636">
        <ele>392.50275121879</ele>
        <time>2018-05-26T16:59:21Z</time>
      </trkpt>
      <trkpt lat="47.75242" lon="4.67631">
        <ele>392.33287223821</ele>
        <time>2018-05-26T16:59:27Z</time>
      </trkpt>
      <trkpt lat="47.75242" lon="4.67623">
        <ele>392.25925166346</ele>
        <time>2018-05-26T16:59:33Z</time>
      </trkpt>
      <trkpt lat="47.75241" lon="4.67613">
        <ele>391.96757403891</ele>
        <time>2018-05-26T16:59:40Z</time>
      </trkpt>
      <trkpt lat="47.75238" lon="4.67601">
        <ele>391.78551746838</ele>
        <time>2018-05-26T16:59:47Z</time>
      </trkpt>
      <trkpt lat="47.75237" lon="4.6759">
        <ele>392.39979927596</ele>
        <time>2018-05-26T16:59:53Z</time>
      </trkpt>
      <trkpt lat="47.75235" lon="4.6758">
        <ele>393.18726731936</ele>
        <time>2018-05-26T17:00:00Z</time>
      </trkpt>
      <trkpt lat="47.75235" lon="4.6757">
        <ele>394.26121385149</ele>
        <time>2018-05-26T17:00:07Z</time>
      </trkpt>
      <trkpt lat="47.75235" lon="4.67563">
        <ele>394.73621508548</ele>
        <time>2018-05-26T17:00:13Z</time>
      </trkpt>
      <trkpt lat="47.75233" lon="4.67556">
        <ele>395.10792666243</ele>
        <time>2018-05-26T17:00:19Z</time>
      </trkpt>
      <trkpt lat="47.75232" lon="4.67545">
        <ele>395.39644007829</ele>
        <time>2018-05-26T17:00:25Z</time>
      </trkpt>
      <trkpt lat="47.75229" lon="4.67538">
        <ele>395.6375899735</ele>
        <time>2018-05-26T17:00:32Z</time>
      </trkpt>
      <trkpt lat="47.75229" lon="4.67528">
        <ele>395.90267264845</ele>
        <time>2018-05-26T17:00:39Z</time>
      </trkpt>
      <trkpt lat="47.75228" lon="4.67521">
        <ele>396.36405505676</ele>
        <time>2018-05-26T17:00:45Z</time>
      </trkpt>
      <trkpt lat="47.75228" lon="4.67511">
        <ele>396.91189033153</ele>
        <time>2018-05-26T17:00:52Z</time>
      </trkpt>
      <trkpt lat="47.75227" lon="4.67503">
        <ele>397.38861658372</ele>
        <time>2018-05-26T17:00:58Z</time>
      </trkpt>
      <trkpt lat="47.75227" lon="4.67495">
        <ele>398.10411799704</ele>
        <time>2018-05-26T17:01:04Z</time>
      </trkpt>
      <trkpt lat="47.75228" lon="4.67485">
        <ele>398.68539029758</ele>
        <time>2018-05-26T17:01:10Z</time>
      </trkpt>
      <trkpt lat="47.75228" lon="4.67476">
        <ele>399.07308826209</ele>
        <time>2018-05-26T17:01:16Z</time>
      </trkpt>
      <trkpt lat="47.75228" lon="4.67466">
        <ele>399.35591613135</ele>
        <time>2018-05-26T17:01:23Z</time>
      </trkpt>
      <trkpt lat="47.75227" lon="4.67459">
        <ele>399.91425246082</ele>
        <time>2018-05-26T17:01:29Z</time>
      </trkpt>
      <trkpt lat="47.75228" lon="4.67448">
        <ele>400.65402318734</ele>
        <time>2018-05-26T17:01:36Z</time>
      </trkpt>
      <trkpt lat="47.75227" lon="4.67441">
        <ele>401.62455666417</ele>
        <time>2018-05-26T17:01:43Z</time>
      </trkpt>
      <trkpt lat="47.75227" lon="4.67433">
        <ele>402.11080083234</ele>
        <time>2018-05-26T17:01:50Z</time>
      </trkpt>
      <trkpt lat="47.75225" lon="4.67424">
        <ele>402.62826573059</ele>
        <time>2018-05-26T17:01:56Z</time>
      </trkpt>
      <trkpt lat="47.75225" lon="4.67414">
        <ele>403.14975688584</ele>
        <time>2018-05-26T17:02:03Z</time>
      </trkpt>
      <trkpt lat="47.75221" lon="4.67405">
        <ele>403.98882325919</ele>
        <time>2018-05-26T17:02:10Z</time>
      </trkpt>
      <trkpt lat="47.75221" lon="4.67395">
        <ele>404.47313721274</ele>
        <time>2018-05-26T17:02:16Z</time>
      </trkpt>
      <trkpt lat="47.7522" lon="4.67385">
        <ele>404.7916907026</ele>
        <time>2018-05-26T17:02:23Z</time>
      </trkpt>
      <trkpt lat="47.75219" lon="4.67377">
        <ele>405.1052628425</ele>
        <time>2018-05-26T17:02:29Z</time>
      </trkpt>
      <trkpt lat="47.75219" lon="4.67369">
        <ele>405.47721848646</ele>
        <time>2018-05-26T17:02:35Z</time>
      </trkpt>
      <trkpt lat="47.75218" lon="4.67361">
        <ele>405.98007158847</ele>
        <time>2018-05-26T17:02:42Z</time>
      </trkpt>
      <trkpt lat="47.75216" lon="4.67353">
        <ele>406.59620210267</ele>
        <time>2018-05-26T17:02:49Z</time>
      </trkpt>
      <trkpt lat="47.75216" lon="4.67344">
        <ele>407.12634771119</ele>
        <time>2018-05-26T17:02:56Z</time>
      </trkpt>
      <trkpt lat="47.75215" lon="4.67332">
        <ele>407.61136124494</ele>
        <time>2018-05-26T17:03:03Z</time>
      </trkpt>
      <trkpt lat="47.75213" lon="4.67325">
        <ele>407.95208706921</ele>
        <time>2018-05-26T17:03:10Z</time>
      </trkpt>
      <trkpt lat="47.75213" lon="4.67319">
        <ele>408.43908687716</ele>
        <time>2018-05-26T17:03:16Z</time>
      </trkpt>
      <trkpt lat="47.75213" lon="4.6731">
        <ele>408.7773549553</ele>
        <time>2018-05-26T17:03:23Z</time>
      </trkpt>
      <trkpt lat="47.75214" lon="4.67303">
        <ele>408.88631650451</ele>
        <time>2018-05-26T17:03:29Z</time>
      </trkpt>
      <trkpt lat="47.75213" lon="4.67293">
        <ele>409.17523345727</ele>
        <time>2018-05-26T17:03:36Z</time>
      </trkpt>
      <trkpt lat="47.75211" lon="4.67287">
        <ele>409.55063013536</ele>
        <time>2018-05-26T17:03:43Z</time>
      </trkpt>
      <trkpt lat="47.75211" lon="4.67287">
        <ele>409.64758471235</ele>
        <time>2018-05-26T17:03:49Z</time>
      </trkpt>
      <trkpt lat="47.7521" lon="4.67286">
        <ele>409.73001279344</ele>
        <time>2018-05-26T17:03:56Z</time>
      </trkpt>
      <trkpt lat="47.75209" lon="4.67279">
        <ele>409.79497296018</ele>
        <time>2018-05-26T17:04:02Z</time>
      </trkpt>
      <trkpt lat="47.75209" lon="4.6727">
        <ele>410.12950927025</ele>
        <time>2018-05-26T17:04:08Z</time>
      </trkpt>
      <trkpt lat="47.75208" lon="4.67266">
        <ele>410.83606318795</ele>
        <time>2018-05-26T17:04:15Z</time>
      </trkpt>
      <trkpt lat="47.75206" lon="4.67261">
        <ele>411.58858465899</ele>
        <time>2018-05-26T17:04:22Z</time>
      </trkpt>
      <trkpt lat="47.75201" lon="4.67252">
        <ele>412.17036480381</ele>
        <time>2018-05-26T17:04:29Z</time>
      </trkpt>
      <trkpt lat="47.75197" lon="4.67246">
        <ele>412.42900088598</ele>
        <time>2018-05-26T17:04:35Z</time>
      </trkpt>
      <trkpt lat="47.75194" lon="4.67241">
        <ele>412.59087186685</ele>
        <time>2018-05-26T17:04:41Z</time>
      </trkpt>
      <trkpt lat="47.75189" lon="4.67234">
        <ele>412.82575995112</ele>
        <time>2018-05-26T17:04:48Z</time>
      </trkpt>
      <trkpt lat="47.75183" lon="4.67229">
        <ele>412.88589920518</ele>
        <time>2018-05-26T17:04:54Z</time>
      </trkpt>
      <trkpt lat="47.75179" lon="4.67221">
        <ele>413.18482487282</ele>
        <time>2018-05-26T17:05:01Z</time>
      </trkpt>
      <trkpt lat="47.75175" lon="4.67214">
        <ele>413.49145776221</ele>
        <time>2018-05-26T17:05:08Z</time>
      </trkpt>
      <trkpt lat="47.75172" lon="4.67211">
        <ele>413.5567727006</ele>
        <time>2018-05-26T17:05:15Z</time>
      </trkpt>
      <trkpt lat="47.75173" lon="4.67211">
        <ele>413.59224656434</ele>
        <time>2018-05-26T17:05:21Z</time>
      </trkpt>
      <trkpt lat="47.75173" lon="4.67211">
        <ele>413.35297274716</ele>
        <time>2018-05-26T17:05:27Z</time>
      </trkpt>
      <trkpt lat="47.7517" lon="4.67203">
        <ele>412.60363175992</ele>
        <time>2018-05-26T17:05:34Z</time>
      </trkpt>
      <trkpt lat="47.75167" lon="4.67198">
        <ele>412.5179136282</ele>
        <time>2018-05-26T17:05:41Z</time>
      </trkpt>
      <trkpt lat="47.75166" lon="4.67199">
        <ele>412.53003267179</ele>
        <time>2018-05-26T17:05:47Z</time>
      </trkpt>
      <trkpt lat="47.75163" lon="4.67199">
        <ele>412.29110118661</ele>
        <time>2018-05-26T17:05:54Z</time>
      </trkpt>
      <trkpt lat="47.7516" lon="4.67194">
        <ele>412.15465018016</ele>
        <time>2018-05-26T17:06:00Z</time>
      </trkpt>
      <trkpt lat="47.75156" lon="4.67182">
        <ele>412.3535986858</ele>
        <time>2018-05-26T17:06:07Z</time>
      </trkpt>
      <trkpt lat="47.75155" lon="4.67173">
        <ele>412.6793279921</ele>
        <time>2018-05-26T17:06:13Z</time>
      </trkpt>
      <trkpt lat="47.75153" lon="4.67163">
        <ele>412.87059800253</ele>
        <time>2018-05-26T17:06:20Z</time>
      </trkpt>
      <trkpt lat="47.75152" lon="4.67153">
        <ele>413.30224746308</ele>
        <time>2018-05-26T17:06:26Z</time>
      </trkpt>
      <trkpt lat="47.7515" lon="4.67141">
        <ele>413.37790603335</ele>
        <time>2018-05-26T17:06:33Z</time>
      </trkpt>
      <trkpt lat="47.75148" lon="4.67129">
        <ele>413.824901854</ele>
        <time>2018-05-26T17:06:39Z</time>
      </trkpt>
      <trkpt lat="47.75148" lon="4.67124">
        <ele>414.33481567548</ele>
        <time>2018-05-26T17:06:46Z</time>
      </trkpt>
      <trkpt lat="47.75144" lon="4.67117">
        <ele>414.70123878438</ele>
        <time>2018-05-26T17:06:53Z</time>
      </trkpt>
      <trkpt lat="47.75142" lon="4.67109">
        <ele>415.02943505988</ele>
        <time>2018-05-26T17:06:59Z</time>
      </trkpt>
      <trkpt lat="47.75139" lon="4.67097">
        <ele>415.07236020355</ele>
        <time>2018-05-26T17:07:06Z</time>
      </trkpt>
      <trkpt lat="47.75137" lon="4.67088">
        <ele>415.40315566771</ele>
        <time>2018-05-26T17:07:12Z</time>
      </trkpt>
      <trkpt lat="47.75134" lon="4.67081">
        <ele>414.94022541909</ele>
        <time>2018-05-26T17:07:19Z</time>
      </trkpt>
      <trkpt lat="47.75128" lon="4.67074">
        <ele>414.80386790503</ele>
        <time>2018-05-26T17:07:25Z</time>
      </trkpt>
      <trkpt lat="47.75124" lon="4.67065">
        <ele>415.10196018659</ele>
        <time>2018-05-26T17:07:32Z</time>
      </trkpt>
      <trkpt lat="47.75121" lon="4.6706">
        <ele>415.24022806364</ele>
        <time>2018-05-26T17:07:38Z</time>
      </trkpt>
      <trkpt lat="47.75118" lon="4.67053">
        <ele>415.38157223379</ele>
        <time>2018-05-26T17:07:45Z</time>
      </trkpt>
      <trkpt lat="47.75114" lon="4.67045">
        <ele>415.41397409792</ele>
        <time>2018-05-26T17:07:51Z</time>
      </trkpt>
      <trkpt lat="47.75112" lon="4.67039">
        <ele>415.27736947231</ele>
        <time>2018-05-26T17:07:57Z</time>
      </trkpt>
      <trkpt lat="47.75109" lon="4.67031">
        <ele>414.90941898783</ele>
        <time>2018-05-26T17:08:04Z</time>
      </trkpt>
      <trkpt lat="47.75106" lon="4.67016">
        <ele>415.01926203252</ele>
        <time>2018-05-26T17:08:10Z</time>
      </trkpt>
      <trkpt lat="47.75099" lon="4.67006">
        <ele>415.08456653697</ele>
        <time>2018-05-26T17:08:17Z</time>
      </trkpt>
      <trkpt lat="47.75097" lon="4.67001">
        <ele>414.83257878105</ele>
        <time>2018-05-26T17:08:23Z</time>
      </trkpt>
      <trkpt lat="47.75096" lon="4.66993">
        <ele>414.81567459568</ele>
        <time>2018-05-26T17:08:30Z</time>
      </trkpt>
      <trkpt lat="47.75095" lon="4.66985">
        <ele>415.13741557309</ele>
        <time>2018-05-26T17:08:37Z</time>
      </trkpt>
      <trkpt lat="47.75093" lon="4.66979">
        <ele>415.15011393413</ele>
        <time>2018-05-26T17:08:43Z</time>
      </trkpt>
      <trkpt lat="47.75092" lon="4.66978">
        <ele>415.23904358699</ele>
        <time>2018-05-26T17:08:50Z</time>
      </trkpt>
      <trkpt lat="47.7509" lon="4.66976">
        <ele>415.43025552105</ele>
        <time>2018-05-26T17:08:56Z</time>
      </trkpt>
      <trkpt lat="47.75086" lon="4.66965">
        <ele>415.28254355541</ele>
        <time>2018-05-26T17:09:03Z</time>
      </trkpt>
      <trkpt lat="47.75083" lon="4.66954">
        <ele>415.26256247862</ele>
        <time>2018-05-26T17:09:09Z</time>
      </trkpt>
      <trkpt lat="47.75083" lon="4.66944">
        <ele>415.16828036166</ele>
        <time>2018-05-26T17:09:16Z</time>
      </trkpt>
      <trkpt lat="47.75085" lon="4.66934">
        <ele>414.91276809124</ele>
        <time>2018-05-26T17:09:23Z</time>
      </trkpt>
      <trkpt lat="47.75087" lon="4.6692">
        <ele>414.64069582338</ele>
        <time>2018-05-26T17:09:30Z</time>
      </trkpt>
      <trkpt lat="47.75089" lon="4.66913">
        <ele>414.73482462351</ele>
        <time>2018-05-26T17:09:36Z</time>
      </trkpt>
      <trkpt lat="47.7509" lon="4.66903">
        <ele>414.84995933726</ele>
        <time>2018-05-26T17:09:42Z</time>
      </trkpt>
      <trkpt lat="47.75092" lon="4.66894">
        <ele>415.20641949463</ele>
        <time>2018-05-26T17:09:49Z</time>
      </trkpt>
      <trkpt lat="47.75089" lon="4.66893">
        <ele>415.43354039631</ele>
        <time>2018-05-26T17:09:55Z</time>
      </trkpt>
      <trkpt lat="47.75085" lon="4.66889">
        <ele>415.80582185675</ele>
        <time>2018-05-26T17:10:02Z</time>
      </trkpt>
      <trkpt lat="47.75081" lon="4.66881">
        <ele>416.69223090831</ele>
        <time>2018-05-26T17:10:09Z</time>
      </trkpt>
      <trkpt lat="47.75079" lon="4.66875">
        <ele>417.45590454531</ele>
        <time>2018-05-26T17:10:16Z</time>
      </trkpt>
      <trkpt lat="47.75079" lon="4.66875">
        <ele>417.72427466891</ele>
        <time>2018-05-26T17:10:22Z</time>
      </trkpt>
      <trkpt lat="47.75079" lon="4.66875">
        <ele>417.84392503582</ele>
        <time>2018-05-26T17:10:29Z</time>
      </trkpt>
      <trkpt lat="47.7508" lon="4.66869">
        <ele>418.13547552901</ele>
        <time>2018-05-26T17:10:35Z</time>
      </trkpt>
      <trkpt lat="47.75079" lon="4.66862">
        <ele>417.82457871202</ele>
        <time>2018-05-26T17:10:41Z</time>
      </trkpt>
      <trkpt lat="47.75078" lon="4.66863">
        <ele>417.52756349785</ele>
        <time>2018-05-26T17:10:48Z</time>
      </trkpt>
      <trkpt lat="47.75077" lon="4.66862">
        <ele>417.48304352289</ele>
        <time>2018-05-26T17:10:55Z</time>
      </trkpt>
      <trkpt lat="47.75076" lon="4.66862">
        <ele>417.42239134731</ele>
        <time>2018-05-26T17:11:01Z</time>
      </trkpt>
      <trkpt lat="47.75076" lon="4.66863">
        <ele>417.37845193958</ele>
        <time>2018-05-26T17:11:08Z</time>
      </trkpt>
      <trkpt lat="47.75075" lon="4.66865">
        <ele>417.35069545045</ele>
        <time>2018-05-26T17:11:15Z</time>
      </trkpt>
      <trkpt lat="47.75075" lon="4.66865">
        <ele>417.37872489717</ele>
        <time>2018-05-26T17:11:21Z</time>
      </trkpt>
      <trkpt lat="47.75077" lon="4.66864">
        <ele>417.17224670385</ele>
        <time>2018-05-26T17:11:28Z</time>
      </trkpt>
      <trkpt lat="47.75083" lon="4.66848">
        <ele>417.03271310691</ele>
        <time>2018-05-26T17:11:35Z</time>
      </trkpt>
      <trkpt lat="47.75086" lon="4.66834">
        <ele>417.22301974591</ele>
        <time>2018-05-26T17:11:41Z</time>
      </trkpt>
      <trkpt lat="47.75083" lon="4.66823">
        <ele>417.42654559471</ele>
        <time>2018-05-26T17:11:47Z</time>
      </trkpt>
      <trkpt lat="47.7508" lon="4.66815">
        <ele>417.40097856563</ele>
        <time>2018-05-26T17:11:54Z</time>
      </trkpt>
      <trkpt lat="47.75078" lon="4.66805">
        <ele>417.32403521453</ele>
        <time>2018-05-26T17:12:00Z</time>
      </trkpt>
      <trkpt lat="47.75078" lon="4.66798">
        <ele>417.3703409234</ele>
        <time>2018-05-26T17:12:07Z</time>
      </trkpt>
      <trkpt lat="47.75077" lon="4.66793">
        <ele>417.4624547778</ele>
        <time>2018-05-26T17:12:13Z</time>
      </trkpt>
      <trkpt lat="47.75074" lon="4.66786">
        <ele>417.55977766517</ele>
        <time>2018-05-26T17:12:19Z</time>
      </trkpt>
      <trkpt lat="47.75074" lon="4.66778">
        <ele>417.9800385053</ele>
        <time>2018-05-26T17:12:26Z</time>
      </trkpt>
      <trkpt lat="47.75077" lon="4.66769">
        <ele>418.36404322921</ele>
        <time>2018-05-26T17:12:32Z</time>
      </trkpt>
      <trkpt lat="47.75079" lon="4.6676">
        <ele>418.37852136459</ele>
        <time>2018-05-26T17:12:39Z</time>
      </trkpt>
      <trkpt lat="47.7508" lon="4.66752">
        <ele>418.43023933103</ele>
        <time>2018-05-26T17:12:45Z</time>
      </trkpt>
      <trkpt lat="47.75082" lon="4.66741">
        <ele>418.19649624017</ele>
        <time>2018-05-26T17:12:51Z</time>
      </trkpt>
      <trkpt lat="47.7508" lon="4.66733">
        <ele>418.03618218224</ele>
        <time>2018-05-26T17:12:58Z</time>
      </trkpt>
      <trkpt lat="47.75078" lon="4.66723">
        <ele>417.74432679009</ele>
        <time>2018-05-26T17:13:05Z</time>
      </trkpt>
      <trkpt lat="47.75074" lon="4.66715">
        <ele>417.66928408979</ele>
        <time>2018-05-26T17:13:11Z</time>
      </trkpt>
      <trkpt lat="47.7507" lon="4.66706">
        <ele>417.4813501673</ele>
        <time>2018-05-26T17:13:18Z</time>
      </trkpt>
      <trkpt lat="47.75067" lon="4.66701">
        <ele>417.32145184691</ele>
        <time>2018-05-26T17:13:24Z</time>
      </trkpt>
      <trkpt lat="47.75063" lon="4.66692">
        <ele>416.75264362531</ele>
        <time>2018-05-26T17:13:30Z</time>
      </trkpt>
      <trkpt lat="47.75059" lon="4.66686">
        <ele>416.36163329439</ele>
        <time>2018-05-26T17:13:37Z</time>
      </trkpt>
      <trkpt lat="47.75054" lon="4.66676">
        <ele>416.16849556776</ele>
        <time>2018-05-26T17:13:44Z</time>
      </trkpt>
      <trkpt lat="47.75049" lon="4.66668">
        <ele>416.11416394155</ele>
        <time>2018-05-26T17:13:50Z</time>
      </trkpt>
      <trkpt lat="47.75044" lon="4.66662">
        <ele>415.84199129877</ele>
        <time>2018-05-26T17:13:57Z</time>
      </trkpt>
      <trkpt lat="47.75039" lon="4.66659">
        <ele>415.82653824442</ele>
        <time>2018-05-26T17:14:04Z</time>
      </trkpt>
      <trkpt lat="47.75036" lon="4.66652">
        <ele>415.43276606594</ele>
        <time>2018-05-26T17:14:11Z</time>
      </trkpt>
      <trkpt lat="47.7503" lon="4.66641">
        <ele>414.88295076772</ele>
        <time>2018-05-26T17:14:18Z</time>
      </trkpt>
      <trkpt lat="47.75024" lon="4.66632">
        <ele>414.11889126136</ele>
        <time>2018-05-26T17:14:25Z</time>
      </trkpt>
      <trkpt lat="47.75019" lon="4.66624">
        <ele>413.92257614018</ele>
        <time>2018-05-26T17:14:32Z</time>
      </trkpt>
      <trkpt lat="47.75015" lon="4.66619">
        <ele>413.47082255921</ele>
        <time>2018-05-26T17:14:39Z</time>
      </trkpt>
      <trkpt lat="47.75012" lon="4.66608">
        <ele>412.97650690654</ele>
        <time>2018-05-26T17:14:46Z</time>
      </trkpt>
      <trkpt lat="47.75007" lon="4.666">
        <ele>412.32463902991</ele>
        <time>2018-05-26T17:14:53Z</time>
      </trkpt>
      <trkpt lat="47.75001" lon="4.66594">
        <ele>412.10103886803</ele>
        <time>2018-05-26T17:15:00Z</time>
      </trkpt>
      <trkpt lat="47.74996" lon="4.6659">
        <ele>412.02750649766</ele>
        <time>2018-05-26T17:15:07Z</time>
      </trkpt>
      <trkpt lat="47.74991" lon="4.66585">
        <ele>411.70201048709</ele>
        <time>2018-05-26T17:15:14Z</time>
      </trkpt>
      <trkpt lat="47.74987" lon="4.66574">
        <ele>411.12725583102</ele>
        <time>2018-05-26T17:15:20Z</time>
      </trkpt>
      <trkpt lat="47.74983" lon="4.66566">
        <ele>410.47777571341</ele>
        <time>2018-05-26T17:15:27Z</time>
      </trkpt>
      <trkpt lat="47.7498" lon="4.66558">
        <ele>410.02272102</ele>
        <time>2018-05-26T17:15:33Z</time>
      </trkpt>
      <trkpt lat="47.74975" lon="4.66549">
        <ele>409.69551686247</ele>
        <time>2018-05-26T17:15:40Z</time>
      </trkpt>
      <trkpt lat="47.74978" lon="4.66539">
        <ele>409.60050205641</ele>
        <time>2018-05-26T17:15:46Z</time>
      </trkpt>
      <trkpt lat="47.74979" lon="4.66537">
        <ele>409.56418531093</ele>
        <time>2018-05-26T17:15:53Z</time>
      </trkpt>
      <trkpt lat="47.7498" lon="4.66535">
        <ele>409.57397994635</ele>
        <time>2018-05-26T17:15:59Z</time>
      </trkpt>
      <trkpt lat="47.74981" lon="4.66535">
        <ele>409.84549006249</ele>
        <time>2018-05-26T17:16:05Z</time>
      </trkpt>
      <trkpt lat="47.7498" lon="4.66536">
        <ele>409.64486406169</ele>
        <time>2018-05-26T17:16:12Z</time>
      </trkpt>
      <trkpt lat="47.74978" lon="4.66536">
        <ele>409.11705074383</ele>
        <time>2018-05-26T17:16:18Z</time>
      </trkpt>
      <trkpt lat="47.74978" lon="4.66535">
        <ele>409.03306608475</ele>
        <time>2018-05-26T17:16:25Z</time>
      </trkpt>
      <trkpt lat="47.74978" lon="4.66535">
        <ele>408.77230809266</ele>
        <time>2018-05-26T17:16:31Z</time>
      </trkpt>
      <trkpt lat="47.74978" lon="4.66536">
        <ele>408.69533135884</ele>
        <time>2018-05-26T17:16:38Z</time>
      </trkpt>
      <trkpt lat="47.74977" lon="4.66535">
        <ele>408.68080905931</ele>
        <time>2018-05-26T17:16:45Z</time>
      </trkpt>
      <trkpt lat="47.74976" lon="4.66533">
        <ele>408.82339796147</ele>
        <time>2018-05-26T17:16:51Z</time>
      </trkpt>
    </trkseg>
  </trk>
</gpx>